[[{"header":{"parameterUnit":"m.s-1","parameterCategory":1,"la1":30.6,"la2":28.766,"lo1":-90.7593,"lo2":-88.6598,"dy":0.0162,"dx":0.0183,"nx":116,"ny":114,"refTime":"2024-03-22T06:00:00:Z","depth":0,"parameterNumber":2,"parameterNumberName":"U-component_of_WINDS"},"data":[0.0,0.0,0.0,0.0,0.0,0.0,0.0,0.0,0.0,0.0,0.0,0.0,0.0,0.0,0.0,0.0,0.0,0.0,0.0,0.0,0.0,0.0,0.0,0.0,0.0,0.0,0.0,0.0,0.0,0.0,0.0,0.0,0.0,0.0,0.0,0.0,0.0,0.0,0.0,0.0,0.0,0.0,0.0,0.0,0.0,0.0,0.0,0.0,0.0,0.0,0.0,0.0,0.0,0.0,0.0,0.0,0.0,0.0,0.0,0.0,0.0,0.0,0.0,0.0,0.0,0.0,0.0,0.0,0.0,0.0,0.0,0.0,0.0,0.0,0.0,0.0,0.0,0.0,0.0,0.0,0.0,0.0,0.0,0.0,0.0,0.0,0.0,0.0,0.0,0.0,0.0,0.0,0.0,0.0,0.0,0.0,0.0,0.0,0.0,0.0,0.0,0.0,0.0,0.0,0.0,0.0,0.0,0.0,0.0,0.0,0.0,0.0,0.0,0.0,0.0,0.0,0.0,0.0,0.0,0.0,0.0,0.0,0.0,0.0,0.0,0.0,0.0,0.0,0.0,0.0,0.0,0.0,0.0,0.0,0.0,0.0,0.0,0.0,0.0,0.0,0.0,0.0,0.0,0.0,0.0,0.0,0.0,0.0,0.0,0.0,0.0,0.0,0.0,0.0,0.0,0.0,0.0,0.0,0.0,0.0,0.0,0.0,0.0,0.0,0.0,0.0,0.0,0.0,0.0,0.0,0.0,0.0,0.0,0.0,0.0,0.0,0.0,0.0,0.0,0.0,0.0,0.0,0.0,0.0,0.0,0.0,0.0,0.0,0.0,0.0,0.0,0.0,0.0,0.0,0.0,0.0,0.0,0.0,0.0,0.0,0.0,0.0,0.0,0.0,0.0,0.0,0.0,0.0,0.0,0.0,0.0,0.0,0.0,0.0,0.0,0.0,0.0,0.0,0.0,0.0,0.0,0.0,0.0,0.0,0.0,0.0,0.0,0.0,0.0,0.0,0.0,0.0,0.0,0.0,0.0,0.0,0.0,0.0,0.0,0.0,0.0,0.0,0.0,0.0,0.0,0.0,0.0,0.0,0.0,0.0,0.0,0.0,0.0,0.0,0.0,0.0,0.0,0.0,0.0,0.0,0.0,0.0,0.0,0.0,0.0,0.0,0.0,0.0,0.0,0.0,0.0,0.0,0.0,0.0,0.0,0.0,0.0,0.0,0.0,0.0,0.0,0.0,0.0,0.0,0.0,0.0,0.0,0.0,0.0,0.0,0.0,0.0,0.0,0.0,0.0,0.0,0.0,0.0,0.0,0.0,0.0,0.0,0.0,0.0,0.0,0.0,0.0,0.0,0.0,0.0,0.0,0.0,0.0,0.0,0.0,0.0,0.0,0.0,0.0,0.0,0.0,0.0,0.0,0.0,0.0,0.0,0.0,0.0,0.0,0.0,0.0,0.0,0.0,0.0,0.0,0.0,0.0,0.0,0.0,0.0,0.0,0.0,0.0,0.0,0.0,0.0,0.0,0.0,0.0,0.0,0.0,0.0,0.0,0.0,0.0,0.0,0.0,0.0,0.0,0.0,0.0,0.0,0.0,0.0,0.0,0.0,0.0,0.0,0.0,0.0,0.0,0.0,0.0,0.0,0.0,0.0,0.0,0.0,0.0,0.0,0.0,0.0,0.0,0.0,0.0,0.0,0.0,0.0,0.0,0.0,0.0,0.0,0.0,0.0,0.0,0.0,0.0,0.0,0.0,0.0,0.0,0.0,0.0,0.0,0.0,0.0,0.0,0.0,0.0,0.0,0.0,0.0,0.0,0.0,0.0,0.0,0.0,0.0,0.0,0.0,0.0,0.0,0.0,0.0,0.0,0.0,0.0,0.0,0.0,0.0,0.0,0.0,0.0,0.0,0.0,0.0,0.0,0.0,0.0,0.0,0.0,0.0,0.0,0.0,0.0,0.0,0.0,0.0,0.0,0.0,0.0,0.0,0.0,0.0,0.0,0.0,0.0,0.0,0.0,0.0,0.0,0.0,0.0,0.0,0.0,0.0,0.0,0.0,0.0,0.0,0.0,0.0,0.0,0.0,0.0,0.0,0.0,0.0,0.0,0.0,0.0,0.0,0.0,0.0,0.0,0.0,0.0,0.0,0.0,0.0,0.0,0.0,0.0,0.0,0.0,0.0,0.0,0.0,0.0,0.0,0.0,0.0,0.0,0.0,0.0,0.0,0.0,0.0,0.0,0.0,0.0,0.0,0.0,0.0,0.0,0.0,0.0,0.0,0.0,0.0,0.0,0.0,0.0,0.0,0.0,0.0,0.0,0.0,0.0,0.0,0.0,0.0,0.0,0.0,0.0,0.0,0.0,0.0,0.0,0.0,0.0,0.0,0.0,0.0,0.0,0.0,0.0,0.0,0.0,0.0,0.0,0.0,0.0,0.0,0.0,0.0,0.0,0.0,0.0,0.0,0.0,0.0,0.0,0.0,0.0,0.0,0.0,0.0,0.0,0.0,0.0,0.0,0.0,0.0,0.0,0.0,0.0,0.0,0.0,0.0,0.0,0.0,0.0,0.0,0.0,0.0,0.0,0.0,0.0,0.0,0.0,0.0,0.0,0.0,0.0,0.0,0.0,0.0,0.0,0.0,0.0,0.0,0.0,0.0,0.0,0.0,0.0,0.0,0.0,0.0,0.0,0.0,0.0,0.0,0.0,0.0,0.0,0.0,0.0,0.0,0.0,0.0,0.0,0.0,0.0,0.0,0.0,0.0,0.0,0.0,0.0,0.0,0.0,0.0,0.0,0.0,0.0,0.0,0.0,0.0,0.0,0.0,0.0,0.0,0.0,0.0,0.0,0.0,0.0,0.0,0.0,0.0,0.0,0.0,0.0,0.0,0.0,0.0,0.0,0.0,0.0,0.0,0.0,0.0,0.0,0.0,0.0,0.0,0.0,0.0,0.0,0.0,0.0,0.0,0.0,0.0,0.0,0.0,0.0,0.0,0.0,0.0,0.0,0.0,0.0,0.0,0.0,0.0,0.0,0.0,0.0,0.0,0.0,0.0,0.0,0.0,0.0,0.0,0.0,0.0,0.0,0.0,0.0,0.0,0.0,0.0,0.0,0.0,0.0,0.0,0.0,0.0,0.0,0.0,0.0,0.0,0.0,0.0,0.0,0.0,0.0,0.0,0.0,0.0,0.0,0.0,0.0,0.0,0.0,0.0,0.0,0.0,0.0,0.0,0.0,0.0,0.0,0.0,0.0,0.0,0.0,0.0,0.0,0.0,0.0,0.0,0.0,0.0,0.0,0.0,0.0,0.0,0.0,0.0,0.0,0.0,0.0,0.0,0.0,0.0,0.0,0.0,0.0,0.0,0.0,0.0,0.0,0.0,0.0,0.0,0.0,0.0,0.0,0.0,0.0,0.0,0.0,0.0,0.0,0.0,0.0,0.0,0.0,0.0,0.0,0.0,0.0,0.0,0.0,0.0,0.0,0.0,0.0,0.0,0.0,0.0,0.0,0.0,0.0,0.0,0.0,0.0,0.0,0.0,0.0,0.0,0.0,0.0,0.0,0.0,0.0,0.0,0.0,0.0,0.0,0.0,0.0,0.0,0.0,0.0,0.0,0.0,0.0,0.0,0.0,0.0,0.0,0.0,0.0,0.0,0.0,0.0,0.0,0.0,0.0,0.0,0.0,0.0,0.0,0.0,0.0,0.0,0.0,0.0,0.0,0.0,0.0,0.0,0.0,0.0,0.0,0.0,0.0,0.0,0.0,0.0,0.0,0.0,0.0,0.0,0.0,0.0,0.0,0.0,0.0,0.0,0.0,0.0,0.0,0.0,0.0,0.0,0.0,0.0,0.0,0.0,0.0,0.0,0.0,0.0,0.0,0.0,0.0,0.0,0.0,0.0,0.0,0.0,0.0,0.0,0.0,0.0,0.0,0.0,0.0,0.0,0.0,0.0,0.0,0.0,0.0,0.0,0.0,0.0,0.0,0.0,0.0,0.0,0.0,0.0,0.0,0.0,0.0,0.0,0.0,0.0,0.0,0.0,0.0,0.0,0.0,0.0,0.0,0.0,0.0,0.0,0.0,0.0,0.0,0.0,0.0,0.0,0.0,0.0,0.0,0.0,0.0,0.0,0.0,0.0,0.0,0.0,0.0,0.0,0.0,0.0,0.0,0.0,0.0,0.0,0.0,0.0,0.0,0.0,0.0,0.0,0.0,0.0,0.0,0.0,0.0,0.0,0.0,0.0,0.0,0.0,0.0,0.0,0.0,0.0,0.0,0.0,0.0,0.0,0.0,0.0,0.0,0.0,0.0,0.0,0.0,0.0,0.0,0.0,0.0,0.0,0.0,0.0,0.0,0.0,0.0,0.0,0.0,0.0,0.0,0.0,0.0,0.0,0.0,0.0,0.0,0.0,0.0,0.0,0.0,0.0,0.0,0.0,0.0,0.0,0.0,0.0,0.0,0.0,0.0,0.0,0.0,0.0,0.0,0.0,0.0,0.0,0.0,0.0,0.0,0.0,0.0,0.0,0.0,0.0,0.0,0.0,0.0,0.0,0.0,0.0,0.0,0.0,0.0,0.0,0.0,0.0,0.0,0.0,0.0,0.0,0.0,0.0,0.0,0.0,0.0,0.0,0.0,0.0,0.0,0.0,0.0,0.0,0.0,0.0,0.0,0.0,0.0,0.0,0.0,0.0,0.0,0.0,0.0,0.0,0.0,0.0,0.0,0.0,0.0,0.0,0.0,0.0,0.0,0.0,0.0,0.0,0.0,0.0,0.0,0.0,0.0,0.0,0.0,0.0,0.0,0.0,0.0,0.0,0.0,0.0,0.0,0.0,0.0,0.0,0.0,0.0,0.0,0.0,0.0,0.0,0.0,0.0,0.0,0.0,0.0,0.0,0.0,0.0,0.0,0.0,0.0,0.0,0.0,0.0,0.0,0.0,0.0,0.0,0.0,0.0,0.0,0.0,0.0,0.0,0.0,0.0,0.0,0.0,0.0,0.0,0.0,0.0,0.0,0.0,0.0,0.0,0.0,0.0,0.0,0.0,0.0,0.0,0.0,0.0,0.0,0.0,0.0,0.0,0.0,0.0,0.0,0.0,0.0,0.0,0.0,0.0,0.0,0.0,0.0,0.0,0.0,0.0,0.0,0.0,0.0,0.0,0.0,0.0,0.0,0.0,0.0,0.0,0.0,0.0,0.0,0.0,0.0,0.0,0.0,0.0,0.0,0.0,0.0,0.0,0.0,0.0,0.0,0.0,0.0,0.0,0.0,0.0,0.0,0.0,0.0,0.0,0.0,0.0,0.0,0.0,0.0,0.0,0.0,0.0,0.0,0.0,0.0,0.0,0.0,0.0,0.0,0.0,0.0,0.0,0.0,0.0,0.0,0.0,0.0,0.0,0.0,0.0,0.0,0.0,0.0,0.0,0.0,0.0,0.0,0.0,0.0,0.0,0.0,0.0,0.0,0.0,0.0,0.0,0.0,0.0,0.0,0.0,0.0,0.0,0.0,0.0,0.0,0.0,0.0,0.0,0.0,0.0,0.0,0.0,0.0,0.0,0.0,0.0,0.0,0.0,0.0,0.0,0.0,0.0,0.0,0.0,0.0,0.0,0.0,0.0,0.0,0.0,0.0,0.0,0.0,0.0,0.0,0.0,0.0,0.0,0.0,0.0,0.0,0.0,0.0,0.0,0.0,0.0,0.0,0.0,0.0,0.0,0.0,0.0,0.0,0.0,0.0,0.0,0.0,0.0,0.0,0.0,0.0,0.0,0.0,0.0,0.0,0.0,0.0,0.0,0.0,0.0,0.0,0.0,0.0,0.0,0.0,0.0,0.0,0.0,0.0,0.0,0.0,0.0,0.0,0.0,0.0,0.0,0.0,0.0,0.0,0.0,0.0,0.0,0.0,0.0,0.0,0.0,0.0,0.0,0.0,0.0,0.0,0.0,0.0,0.0,0.0,0.0,0.0,0.0,0.0,0.0,0.0,0.0,0.0,0.0,0.0,0.0,0.0,0.0,0.0,0.0,0.0,0.0,0.0,0.0,0.0,0.0,0.0,0.0,0.0,0.0,0.0,0.0,4.5086,4.5423,0.0,0.0,0.0,0.0,0.0,0.0,0.0,0.0,0.0,0.0,0.0,0.0,0.0,0.0,0.0,0.0,0.0,0.0,0.0,0.0,0.0,0.0,0.0,4.0648,4.0697,4.0697,4.0745,0.0,0.0,0.0,0.0,0.0,0.0,0.0,4.0888,4.0888,4.0888,4.0888,4.0888,4.0965,4.1041,4.164,4.1917,4.1977,0.0,0.0,0.0,0.0,0.0,0.0,0.0,0.0,0.0,0.0,0.0,0.0,0.0,0.0,0.0,0.0,0.0,0.0,0.0,0.0,0.0,0.0,0.0,0.0,0.0,0.0,0.0,0.0,0.0,0.0,0.0,0.0,0.0,0.0,0.0,0.0,0.0,0.0,0.0,0.0,0.0,0.0,0.0,0.0,0.0,0.0,0.0,0.0,0.0,0.0,0.0,0.0,0.0,0.0,0.0,0.0,0.0,0.0,0.0,0.0,0.0,0.0,0.0,0.0,0.0,0.0,0.0,0.0,0.0,0.0,0.0,4.4725,0.0,0.0,0.0,0.0,0.0,0.0,0.0,0.0,0.0,0.0,0.0,0.0,0.0,0.0,0.0,0.0,0.0,0.0,0.0,0.0,0.0,4.0648,4.0583,4.0648,4.0697,4.0745,4.0745,4.0793,4.0871,4.0888,0.0,0.0,4.0888,4.0888,4.0888,4.0888,4.0888,4.0888,4.0888,4.0995,4.1163,4.1408,4.156,4.1604,4.1995,0.0,0.0,0.0,0.0,0.0,0.0,0.0,0.0,0.0,0.0,0.0,0.0,0.0,0.0,0.0,0.0,0.0,0.0,0.0,0.0,0.0,0.0,0.0,0.0,0.0,0.0,0.0,0.0,0.0,0.0,0.0,0.0,0.0,0.0,0.0,0.0,0.0,0.0,0.0,0.0,0.0,0.0,0.0,0.0,0.0,0.0,0.0,0.0,0.0,0.0,0.0,0.0,0.0,0.0,0.0,0.0,0.0,0.0,0.0,0.0,0.0,0.0,0.0,4.2629,4.2629,4.2691,4.3015,4.3075,4.2892,4.3469,4.3798,4.3956,4.4412,0.0,0.0,0.0,0.0,0.0,0.0,0.0,0.0,0.0,0.0,0.0,0.0,0.0,0.0,0.0,0.0,0.0,0.0,0.0,4.0745,4.084,4.0745,4.0745,4.0871,4.0871,4.0888,4.0888,4.0888,4.0888,4.0888,4.0888,4.0888,4.0888,4.0888,4.0888,4.0888,4.0888,4.0918,4.0918,4.1163,4.1363,4.1604,4.1648,4.1692,4.1692,0.0,0.0,0.0,0.0,0.0,0.0,0.0,0.0,0.0,0.0,0.0,0.0,0.0,0.0,0.0,0.0,0.0,0.0,0.0,0.0,0.0,0.0,0.0,0.0,0.0,0.0,0.0,0.0,0.0,0.0,0.0,0.0,0.0,0.0,0.0,0.0,0.0,0.0,0.0,0.0,0.0,4.5423,4.5423,0.0,0.0,0.0,0.0,0.0,0.0,0.0,0.0,0.0,0.0,0.0,0.0,0.0,4.3103,4.2982,4.2332,4.1981,4.1981,4.1209,4.1039,4.1374,4.1704,4.1964,4.2222,4.2618,0.0,4.3571,4.3956,0.0,0.0,0.0,0.0,0.0,0.0,0.0,0.0,0.0,0.0,0.0,0.0,0.0,0.0,0.0,0.0,0.0,0.0,0.0,0.0,0.0,4.0631,4.0631,4.068,4.068,4.0728,4.0888,4.0888,4.0888,4.0888,4.0888,4.0888,4.0888,4.0888,4.0888,4.0888,4.0888,4.0888,4.0888,4.1012,4.1088,4.1198,4.1198,4.1498,4.1995,4.2061,0.0,0.0,0.0,0.0,0.0,0.0,0.0,0.0,0.0,0.0,0.0,0.0,0.0,0.0,0.0,0.0,0.0,0.0,0.0,0.0,0.0,0.0,0.0,0.0,0.0,0.0,0.0,0.0,0.0,0.0,0.0,0.0,0.0,0.0,0.0,0.0,0.0,0.0,0.0,4.4423,4.4147,4.4147,4.3871,4.3698,0.0,0.0,0.0,0.0,0.0,0.0,0.0,0.0,0.0,4.1152,4.1168,4.0938,4.0468,4.0114,3.995,3.995,3.9586,3.9468,3.9652,3.9966,4.0096,4.0096,4.0674,4.0972,4.1096,4.29,4.3722,4.3956,0.0,0.0,0.0,0.0,4.4202,4.3972,0.0,0.0,0.0,0.0,0.0,0.0,0.0,0.0,0.0,0.0,0.0,0.0,4.0631,4.0583,4.0583,4.0583,4.0583,4.068,4.0888,4.0888,4.0888,4.0888,4.0888,4.0888,4.0888,4.0888,4.0888,4.0888,4.0888,4.0888,4.0888,4.0888,4.0918,4.0965,4.0965,4.1363,4.1934,4.2079,4.2121,4.2121,0.0,0.0,0.0,0.0,0.0,0.0,0.0,0.0,0.0,0.0,0.0,0.0,0.0,0.0,0.0,0.0,0.0,0.0,0.0,0.0,0.0,0.0,0.0,0.0,0.0,0.0,0.0,0.0,0.0,0.0,0.0,0.0,0.0,0.0,0.0,0.0,0.0,4.3577,4.3214,4.3214,4.3042,4.2804,0.0,0.0,0.0,0.0,0.0,0.0,4.0442,4.0401,4.007,3.9408,3.9361,3.9077,3.8508,3.8508,3.8508,3.8508,3.8508,3.8508,3.8508,3.8818,3.8883,3.8623,3.933,3.9456,3.9345,4.152,4.2507,4.2686,4.3115,4.3289,4.3289,4.3289,4.3231,4.3057,0.0,0.0,0.0,0.0,0.0,0.0,0.0,0.0,0.0,0.0,0.0,4.0745,4.0888,4.0793,4.0745,4.0888,4.0888,4.0888,4.0888,4.0888,4.0888,4.0888,4.0888,4.0888,4.0888,4.0888,4.0888,4.0888,4.0888,4.0888,4.0888,4.0888,4.0995,4.1163,4.1163,4.1088,4.1012,4.1471,4.1648,4.1648,4.1849,0.0,0.0,0.0,0.0,0.0,0.0,0.0,0.0,0.0,0.0,0.0,0.0,0.0,0.0,0.0,0.0,0.0,0.0,0.0,0.0,0.0,0.0,0.0,0.0,0.0,0.0,0.0,0.0,0.0,0.0,0.0,0.0,0.0,0.0,0.0,0.0,0.0,0.0,4.3214,4.2509,0.0,0.0,0.0,0.0,3.8969,3.9432,3.9391,3.8758,3.873,3.8637,3.8542,3.8558,3.8573,3.8508,3.8508,3.8508,3.8508,3.8508,3.8508,3.8508,3.8818,3.9011,3.9011,3.9393,3.9581,3.9581,4.0016,4.0425,4.0867,4.1206,4.1337,4.1337,4.1337,4.1065,4.0653,0.0,0.0,0.0,0.0,0.0,0.0,0.0,0.0,4.0793,4.0793,4.0745,4.0697,4.0631,4.0697,4.0697,4.0745,4.0793,4.0793,4.0871,4.0888,4.0888,4.0888,4.0888,4.0888,4.0888,4.0888,4.0888,4.0888,4.0888,4.0888,4.0888,4.0888,4.0918,4.1012,4.1012,4.0965,4.0918,4.138,4.1604,4.1604,4.1692,4.1719,0.0,0.0,0.0,0.0,0.0,0.0,0.0,0.0,0.0,0.0,0.0,0.0,0.0,0.0,0.0,0.0,0.0,0.0,0.0,0.0,0.0,0.0,0.0,0.0,0.0,0.0,0.0,0.0,0.0,0.0,0.0,0.0,0.0,0.0,0.0,0.0,0.0,4.1355,4.0815,0.0,3.9821,3.9656,3.9172,3.8092,3.8108,3.7892,3.728,3.7234,3.7235,3.72,3.7215,3.7215,3.7215,3.7215,3.7215,3.7215,3.7215,3.7215,3.7215,3.7341,3.7389,3.7389,3.7514,3.7436,3.709,3.7405,3.8542,4.0027,4.0103,4.0164,4.0164,4.0164,4.0059,3.9952,0.0,0.0,0.0,0.0,0.0,0.0,0.0,4.084,4.0745,4.0745,4.0745,4.0745,4.0631,4.0728,4.0745,4.0745,4.0745,4.0745,4.084,4.084,4.084,4.084,4.0888,4.0888,4.0888,4.0888,4.0888,4.0888,4.0888,4.0888,4.0888,4.0888,4.0888,4.0888,4.0888,4.0888,4.0935,4.1244,4.1408,4.1453,4.1453,4.1453,4.1453,0.0,0.0,0.0,0.0,0.0,0.0,0.0,0.0,0.0,0.0,0.0,0.0,0.0,0.0,0.0,0.0,0.0,0.0,0.0,0.0,0.0,0.0,0.0,0.0,0.0,0.0,0.0,0.0,0.0,0.0,0.0,0.0,0.0,0.0,4.051,4.007,4.007,3.9731,3.9295,3.8882,3.881,3.8407,3.7326,3.7342,3.7134,3.6554,3.6492,3.6492,3.6492,3.6492,3.6492,3.6492,3.6492,3.6492,3.6492,3.6289,3.6226,3.6226,3.6022,3.5958,3.5958,3.5958,3.5752,3.5479,3.5672,3.6636,3.801,3.8263,3.831,3.831,3.831,3.831,3.831,0.0,0.0,0.0,0.0,0.0,0.0,4.0888,4.0888,4.0888,4.0871,4.0888,4.0888,4.0871,4.0888,4.0888,4.0888,4.0793,4.0697,4.0697,4.0697,4.0697,4.0697,4.084,4.0888,4.0888,4.0888,4.0888,4.0888,4.0888,4.0888,4.0888,4.0888,4.0888,4.0888,4.0888,4.0888,4.0888,4.0888,4.0995,4.1209,4.1209,4.1209,4.1209,0.0,0.0,0.0,0.0,0.0,0.0,0.0,0.0,0.0,0.0,0.0,0.0,0.0,0.0,0.0,0.0,0.0,0.0,0.0,0.0,0.0,0.0,0.0,0.0,0.0,0.0,0.0,0.0,0.0,0.0,0.0,0.0,0.0,3.961,3.961,3.961,3.9558,3.9348,3.8882,3.8157,3.8311,3.7895,3.66,3.7074,3.7134,3.6554,3.6492,3.6492,3.6492,3.6492,3.6492,3.6492,3.6492,3.6492,3.6492,3.5958,3.5688,3.5688,3.5154,3.4876,3.4876,3.4876,3.4876,3.489,3.489,3.489,3.4942,3.5518,3.5743,3.5743,3.5743,3.5743,3.5743,0.0,0.0,0.0,0.0,0.0,0.0,4.0888,4.0888,4.0888,4.0793,4.084,4.0871,4.0745,4.084,4.0888,4.0888,4.0888,4.084,4.084,4.084,4.084,4.084,4.0888,4.0888,4.0888,4.0888,4.0888,4.0888,4.0888,4.0888,4.0888,4.0888,4.0888,4.0888,4.0888,4.0888,4.0888,4.0888,4.0918,4.0965,4.0965,4.0965,4.0965,0.0,0.0,0.0,0.0,0.0,0.0,0.0,0.0,0.0,0.0,0.0,0.0,0.0,0.0,0.0,0.0,0.0,0.0,0.0,0.0,0.0,0.0,0.0,0.0,0.0,0.0,0.0,0.0,0.0,0.0,0.0,3.9222,3.9259,3.9558,3.9365,3.9098,3.8849,3.8479,3.8001,3.7329,3.7389,3.715,3.6554,3.6662,3.6662,3.6492,3.6492,3.6492,3.6492,3.6492,3.6492,3.6492,3.6492,3.6289,3.5958,3.5752,3.5494,3.5073,3.4942,3.4876,3.4876,3.4876,3.4677,3.4341,3.4341,3.4085,3.3839,3.4795,3.5175,3.5175,3.5175,3.5175,3.5175,0.0,0.0,0.0,0.0,0.0,0.0,4.0888,4.0888,4.0888,4.0793,4.084,4.0888,4.0793,4.0823,4.0888,4.0888,4.084,4.084,4.084,4.084,4.084,4.0888,4.0888,4.0888,4.0888,4.0888,4.0888,4.0888,4.0888,4.0888,4.0888,4.0888,4.0888,4.0888,4.0888,4.0888,4.0888,4.0888,4.0888,4.0888,4.0745,4.0745,4.0871,4.0728,4.0631,4.0631,4.0402,4.0353,4.0303,4.0104,0.0,0.0,0.0,0.0,0.0,0.0,0.0,0.0,0.0,0.0,0.0,0.0,0.0,0.0,0.0,0.0,0.0,0.0,0.0,0.0,0.0,0.0,0.0,0.0,3.8876,3.8805,3.8849,3.8717,3.8455,3.8254,3.7828,3.7389,3.6999,3.6877,3.6693,3.6492,3.6492,3.6492,3.6492,3.6492,3.6492,3.6492,3.6492,3.6492,3.6492,3.6492,3.6226,3.5688,3.5479,3.5073,3.4543,3.4356,3.4235,3.4235,3.4235,3.4031,3.3756,3.3756,3.3577,0.0,0.0,0.0,0.0,0.0,3.4235,3.4235,0.0,0.0,0.0,0.0,0.0,0.0,4.0888,4.0871,4.0888,4.0888,4.0888,4.0871,4.0888,4.0888,4.0888,4.0888,4.0793,4.0697,4.0697,4.0697,4.0793,4.0871,4.0888,4.0888,4.0888,4.0888,4.0888,4.0888,4.0888,4.0888,4.0888,4.0888,4.0888,4.0888,4.0888,4.0888,4.0888,4.0888,4.0871,4.0776,4.0436,4.0485,4.0776,4.0387,4.0238,4.0188,3.9782,3.961,3.9594,3.9558,0.0,0.0,0.0,0.0,0.0,0.0,0.0,0.0,0.0,0.0,0.0,0.0,0.0,0.0,0.0,0.0,0.0,0.0,0.0,0.0,0.0,0.0,0.0,0.0,3.86,3.8262,3.7943,3.7828,3.777,3.777,3.7345,3.7015,3.6938,3.6677,3.6492,3.6492,3.6492,3.6492,3.6492,3.6492,0.0,0.0,0.0,3.6492,3.6429,3.6429,3.6085,3.5479,3.5023,3.4543,3.4016,3.3507,3.3326,3.3326,3.3326,3.3326,3.3326,3.3326,3.3326,3.3326,3.3326,3.3326,3.3326,3.3326,3.3326,3.3326,0.0,0.0,0.0,0.0,0.0,0.0,4.0745,4.0631,4.068,4.0871,4.0793,4.0793,4.0888,4.0888,4.0888,4.0888,4.0793,4.0697,4.0697,4.0793,4.0871,4.0888,4.0888,4.0888,4.0888,4.0888,4.0888,4.0888,4.0888,4.0888,4.0888,4.0888,4.0888,4.0888,4.0888,4.0888,4.0888,4.0888,4.0728,4.0404,4.0355,4.0355,4.0387,3.9885,3.9731,3.9714,3.9662,3.961,3.9558,3.9222,3.9312,3.9558,3.9222,3.9365,0.0,0.0,0.0,0.0,0.0,0.0,0.0,0.0,0.0,0.0,0.0,0.0,0.0,0.0,0.0,0.0,0.0,0.0,0.0,3.8504,3.8189,3.7943,3.7886,3.7508,3.7165,3.7165,3.706,3.6877,3.6616,3.6554,3.6492,3.6492,3.6492,3.6492,3.6492,3.6492,3.6492,3.6492,3.6492,3.6289,3.5879,3.5816,3.535,3.4409,0.0,0.0,3.3437,3.3312,3.3326,3.3326,3.3326,3.3326,3.3326,3.3326,3.3326,3.3326,3.3326,3.3326,3.3326,3.3326,3.3326,3.3326,0.0,0.0,0.0,0.0,0.0,0.0,4.0697,4.0648,4.0648,4.0793,4.0745,4.0745,4.0793,4.0728,4.0728,4.0793,4.0745,4.0697,4.0697,4.084,4.0888,4.0888,4.0888,4.0888,4.0888,4.0888,4.0888,4.0888,4.0888,4.0888,4.0888,4.0888,4.0888,4.0888,4.0888,4.0888,4.0888,4.0888,4.0697,4.0305,4.007,3.985,3.9609,3.9382,3.9312,3.9259,3.9044,3.9007,3.8952,3.8766,3.8805,3.8952,3.875,3.886,3.8952,0.0,0.0,0.0,0.0,0.0,0.0,0.0,0.0,0.0,0.0,0.0,0.0,0.0,0.0,3.8391,3.8391,0.0,3.8391,3.8391,3.8132,3.7886,3.7886,3.7389,3.7015,3.7015,3.6877,3.6677,3.6492,3.6492,3.6492,3.6492,3.6492,3.6492,3.6492,3.6492,3.6492,3.6492,3.6492,3.652,3.6587,3.5982,3.5448,3.5025,3.4365,3.3825,3.3326,3.3326,3.3326,3.3326,3.3326,3.3326,3.3326,3.3326,3.3326,3.3326,3.3326,3.3326,3.3326,3.3326,3.3326,3.3326,0.0,0.0,0.0,0.0,0.0,0.0,4.06,4.06,4.06,4.0648,4.0648,4.0648,4.0648,4.0583,4.0534,4.06,4.0648,4.0697,4.0648,4.084,4.0888,4.0888,4.0888,4.0888,4.0888,4.0888,4.0888,4.0888,4.0888,4.0888,4.0888,4.0888,4.0888,4.0888,4.0888,4.0888,4.0888,4.0888,4.0631,4.0121,3.9765,3.9312,3.886,3.886,3.886,3.8821,3.8504,3.8391,3.8391,3.8391,3.8391,3.8391,3.8391,3.8391,3.8391,3.8391,3.8391,0.0,0.0,0.0,0.0,0.0,0.0,0.0,0.0,3.8391,3.8391,3.8391,3.8391,3.8391,3.8391,3.8391,3.8391,3.8335,3.8075,3.7886,3.7711,3.7285,3.6954,3.6877,3.6677,3.6492,3.6492,3.6492,3.6492,3.6492,3.6492,3.6492,3.6492,3.6492,3.6553,3.6676,3.6553,3.6752,3.7364,3.6148,3.5553,3.5521,3.4466,3.3701,3.3326,3.3326,3.3326,3.3326,3.3326,3.3326,3.3326,3.3326,3.3326,3.3326,3.3326,3.3326,3.3326,3.3326,3.3326,3.3326,0.0,0.0,0.0,0.0,0.0,0.0,0.0,0.0,4.0221,4.0485,4.0436,4.0387,4.0534,4.0534,4.0436,4.0337,4.0551,4.0648,4.0534,4.0776,4.0888,4.0888,4.0888,4.0888,4.0888,4.0888,4.0888,4.0888,4.0888,4.0888,4.0888,4.0888,4.0888,4.0888,4.0888,4.0888,4.0888,4.0888,4.0402,3.9662,3.961,3.9152,3.8448,3.8448,3.8448,3.8448,3.8391,3.8391,3.8391,3.8391,3.8391,3.8391,3.8391,3.8391,3.8391,3.8391,3.8391,3.8391,3.8391,3.8391,3.8391,3.8391,3.8391,3.8391,0.0,3.8391,3.8391,3.8391,3.8391,3.8391,3.8391,3.8391,3.8278,3.8001,3.7943,3.7711,3.7181,3.706,3.6877,3.6616,3.6492,3.6492,3.6492,3.6492,3.6492,3.6492,3.6492,3.6492,3.6492,3.6492,3.6769,3.7369,3.6799,3.661,3.6799,3.5612,3.4787,3.4322,3.3675,3.3382,3.3326,3.3326,3.3326,3.3326,3.3326,3.3326,3.3326,3.3326,3.3326,3.3326,3.3326,3.3326,3.3326,3.3326,3.3326,3.3326,0.0,0.0,0.0,0.0,0.0,0.0,0.0,0.0,4.0238,4.0387,4.0337,4.0305,4.0387,4.0387,4.0337,4.0188,4.0436,4.0534,4.0387,4.068,4.0888,4.0793,4.0888,4.0888,4.0888,4.0888,4.0888,4.0888,4.0888,4.0888,4.0888,4.0888,4.0888,4.0888,4.0888,4.0888,4.0888,4.0888,4.0566,4.0003,3.9714,3.9259,3.8711,3.8504,3.8391,3.8391,3.8391,3.8391,0.0,3.8391,3.8391,3.8391,3.8391,3.8391,3.8391,3.8391,3.8391,3.8391,3.8391,3.8391,3.8391,3.8391,3.8391,3.8391,3.8391,3.8391,3.8391,3.8391,3.8262,3.8132,3.8132,3.8132,3.8075,3.7943,3.777,3.7594,3.7551,3.7029,3.6754,3.6754,3.6616,3.6492,3.6492,3.6492,3.6492,3.6492,3.6492,3.6492,3.6492,3.6492,3.6615,3.6907,3.6645,3.6674,3.7155,3.5678,3.5001,3.5098,3.3886,3.3326,3.3326,3.3326,3.3326,3.3326,3.3326,3.3326,3.3255,3.3016,3.3086,3.3255,3.3016,3.2931,3.3016,3.3241,3.3326,3.3326,0.0,0.0,0.0,0.0,0.0,0.0,0.0,0.0,0.0,0.0,4.0238,4.0238,4.0238,4.0238,4.0188,4.0138,4.0337,4.0436,4.0337,4.0631,4.0776,4.0697,4.0793,4.084,4.084,4.0888,4.0888,4.084,4.0888,4.0871,4.0776,4.084,4.084,4.0776,4.0776,4.0823,4.084,4.084,4.0631,4.0288,3.9952,3.9523,3.9115,3.886,3.8655,3.856,3.8448,3.8391,3.8391,3.8391,3.8391,3.8391,3.8391,3.8391,3.8391,3.8391,3.8391,3.8391,3.8278,3.8262,3.8205,3.8148,3.8148,3.8148,3.8262,3.8205,3.8148,3.8262,3.8017,3.777,3.7886,3.7886,3.7886,3.7886,3.7711,3.7535,3.7669,3.7134,3.6785,3.6877,3.6754,3.6616,3.6492,3.6492,3.6492,3.6492,3.6492,3.6492,3.6492,3.6492,3.6569,3.6769,3.6599,3.6815,3.7492,3.5744,3.5112,3.5583,3.4054,3.3326,3.3326,3.3326,3.3326,3.3326,3.3171,3.3157,3.3086,3.2704,3.2717,3.2945,3.2632,3.2561,3.2561,3.2874,3.2945,3.2945,0.0,0.0,0.0,0.0,0.0,0.0,0.0,0.0,0.0,0.0,0.0,4.0138,4.0138,4.0138,4.0121,4.007,4.0238,4.0337,4.0485,4.0534,4.0583,4.0697,4.0697,4.0697,4.0697,4.084,4.084,4.0697,4.084,4.0776,4.0517,4.0648,4.0648,4.0534,4.0534,4.0583,4.0697,4.0697,4.0551,4.0305,4.0288,4.0003,3.961,3.9558,3.9312,3.8914,3.856,3.8391,3.8391,3.8391,3.8391,3.8391,3.8391,3.8391,3.8391,3.8391,3.8391,3.8335,3.8001,3.7943,3.7828,3.7535,3.7417,3.7535,3.7828,3.7637,3.7535,3.7828,3.7653,3.7535,3.7828,3.7886,3.7886,3.7886,3.7886,3.7653,3.7121,3.721,3.7178,3.66,3.6816,3.6877,3.6554,3.6492,3.6492,3.6492,3.6492,3.6492,3.6492,3.6492,3.6799,3.7446,3.683,3.6815,3.7492,3.5744,3.489,3.4905,3.3854,3.3326,3.3326,3.3326,3.3326,3.3255,3.286,3.2704,3.2704,3.2273,3.2128,3.2128,3.2128,3.2128,3.2128,3.2128,3.2128,3.2128,0.0,0.0,0.0,0.0,0.0,0.0,0.0,0.0,0.0,0.0,0.0,0.0,0.0,0.0,0.0,0.0,4.0238,4.0288,4.0238,4.0485,4.06,4.0453,4.06,4.0648,4.0583,4.0697,4.068,4.0583,4.068,4.0697,4.0485,4.0534,4.0534,4.0485,4.0485,4.0534,4.0583,4.0583,4.06,4.0551,4.0288,4.0121,4.002,3.9714,3.9365,3.8969,0.0,3.86,3.8391,3.8391,3.8391,3.8391,3.8391,3.8391,3.8391,3.8391,3.8262,3.8017,3.7943,3.777,3.7535,3.7417,3.7417,3.7417,3.7535,3.7476,3.7417,3.7535,3.7476,3.7401,3.7535,3.7594,3.7594,3.7594,3.7433,3.7225,3.7015,3.6862,3.6723,3.6492,3.6616,3.6616,3.6492,3.6492,3.6492,3.6492,3.6492,3.6492,3.6492,3.6492,3.6599,3.683,3.6615,3.6599,3.683,3.5921,3.5285,3.489,3.3839,3.3171,3.2931,3.2931,3.2789,3.2503,3.2345,3.2273,3.2273,3.1909,3.1909,3.2055,3.185,3.1776,3.1776,3.1776,3.1629,3.1408,0.0,0.0,0.0,0.0,0.0,0.0,0.0,0.0,0.0,0.0,0.0,0.0,0.0,0.0,0.0,0.0,0.0,4.0188,4.0188,4.0387,4.0436,4.0305,4.0453,4.0502,4.0436,4.0534,4.0534,4.0436,4.0534,4.0534,4.0387,4.0387,4.0387,4.0387,4.0387,4.037,4.0436,4.0436,4.0534,4.0697,4.0436,4.0387,4.0485,4.0204,3.9782,0.0,3.9451,3.9077,3.86,3.8448,3.8391,3.8391,3.8391,3.8335,3.8205,3.8205,3.796,3.7711,3.761,3.7433,3.7254,3.7134,3.7074,3.7134,3.7254,3.7134,3.7134,3.7254,3.727,3.7314,3.7358,3.7417,3.7476,3.7727,3.7389,3.7165,3.7165,3.6968,3.6723,3.6554,3.6616,3.6616,3.6492,3.6492,3.6492,3.6492,3.6492,3.6492,3.6492,3.6492,3.6492,3.6492,3.6492,3.6492,3.6492,3.5958,3.5415,3.481,3.3825,3.3213,3.2917,3.2632,3.2345,3.2055,3.1982,3.1909,3.1909,3.1556,3.1482,3.1703,3.1482,3.1421,3.1421,3.1421,3.1198,3.1061,0.0,0.0,0.0,0.0,0.0,0.0,0.0,0.0,0.0,0.0,0.0,0.0,0.0,0.0,0.0,0.0,0.0,0.0,4.0305,4.0188,4.0188,4.0288,4.0305,4.0305,4.0305,4.0436,4.0436,4.0305,4.0436,4.0387,4.007,4.0238,4.0238,4.007,4.007,4.0188,4.0288,4.0305,4.0453,4.0697,4.0697,4.0793,4.0888,4.0888,4.0631,4.0305,4.0305,3.9764,3.8969,3.856,3.8391,3.8335,3.8335,3.8148,3.7886,3.7886,3.7653,3.7298,3.706,3.7015,3.6877,3.6554,3.6492,3.6554,3.6877,3.6754,3.6631,3.6938,3.6999,3.7105,3.7358,3.7417,3.7594,3.8278,3.7786,3.7358,3.7358,3.7358,3.7118,3.6554,3.6754,3.6877,3.6554,3.6492,3.6492,3.6492,3.6492,3.6492,3.6492,3.6492,3.6492,3.6492,3.6492,3.6492,3.6492,3.5958,3.535,3.4662,3.3905,3.3451,3.3269,3.2561,3.2128,3.2055,3.1763,3.1629,3.1556,3.1123,3.0986,3.0986,3.0986,3.0986,3.0986,3.1013,3.1026,3.1039,0.0,0.0,0.0,0.0,0.0,0.0,0.0,0.0,0.0,0.0,0.0,0.0,0.0,0.0,0.0,0.0,0.0,0.0,4.0138,4.0188,4.0238,4.0138,4.0238,4.0238,4.0138,4.0288,4.0288,4.0138,4.0288,4.0238,4.007,4.0121,4.0121,4.007,4.007,4.0138,4.0188,4.0238,4.0404,4.0534,4.0648,4.0793,4.0888,4.0888,4.0631,4.0305,4.0305,3.9901,3.9348,3.8701,3.81,3.7653,3.7653,3.7594,3.7535,3.7535,3.7314,3.7121,3.7015,3.6816,3.6616,3.6492,3.6492,3.6492,3.6616,3.6554,3.6631,3.6938,3.7165,3.7373,3.7695,3.7594,3.7476,3.7653,3.7134,3.6723,3.6723,3.6723,3.6662,3.6492,3.6554,3.6616,3.6492,3.6492,3.6492,3.6492,3.6492,3.6492,3.6492,3.6492,3.6492,3.6492,3.6492,3.6492,3.6492,3.5958,3.5544,3.5204,3.4595,3.4056,3.3659,3.3451,3.2875,3.2101,3.2028,3.1676,3.1123,3.1061,3.0986,3.0986,3.0986,3.0986,3.1039,3.147,3.1627,3.1679,0.0,0.0,0.0,0.0,0.0,0.0,0.0,0.0,0.0,0.0,0.0,0.0,0.0,0.0,0.0,0.0,0.0,0.0,0.0,4.0188,4.0188,4.007,4.0188,4.0188,4.007,4.0188,4.0188,4.007,4.0188,4.0188,4.007,4.007,4.007,4.007,4.007,4.007,4.0138,4.0238,4.0387,0.0,0.0,4.0793,4.0888,4.0888,4.0745,4.0534,4.0534,4.0204,3.9594,3.9011,3.8311,3.7594,3.7476,3.7314,3.721,3.721,3.7044,3.6754,3.6754,3.6616,3.6492,3.6492,3.6492,3.6492,3.6492,3.6616,3.6754,3.6954,3.7329,3.7711,3.7886,3.7653,3.7476,3.7594,3.7074,3.6693,3.6693,3.6693,3.6677,3.6492,3.6492,3.6492,3.6492,3.6492,3.6492,3.6492,3.6492,3.6492,3.6492,3.6492,3.6492,3.6492,3.6492,3.6492,3.6492,3.6226,3.5958,3.5688,3.5008,3.4461,3.3988,3.3713,3.3213,3.2577,0.0,3.2015,3.1969,3.1616,3.1468,3.1468,3.1468,3.1418,3.1405,3.1718,3.2006,3.2293,0.0,0.0,0.0,0.0,0.0,0.0,0.0,0.0,0.0,0.0,0.0,0.0,0.0,0.0,0.0,0.0,0.0,0.0,0.0,0.0,4.007,4.007,4.007,4.007,4.007,4.0171,4.0171,4.007,4.0171,4.0171,4.007,4.007,4.007,4.007,4.007,4.007,4.0138,4.0238,4.0387,4.0534,4.0648,4.0793,4.0888,0.0,4.0888,4.0888,4.0888,4.0434,3.98,3.9401,3.8645,3.7812,3.7519,3.7194,3.6938,3.6938,3.6754,3.6492,3.6492,3.6492,3.6492,3.6492,3.6492,3.6492,3.6492,3.6739,3.6954,3.706,3.7492,3.7886,3.7943,3.7653,3.7476,3.777,3.7329,3.6938,3.6938,3.6938,3.6816,3.6554,3.6492,3.6492,3.6492,3.6492,3.6492,3.6492,3.6492,3.6492,3.6492,3.6492,3.6492,3.6492,3.6492,3.6492,3.6492,3.6492,3.6352,3.5973,3.5365,3.481,3.4461,3.3782,3.3437,3.3283,3.2648,3.272,3.3143,3.2506,3.2218,3.2232,3.23,3.224,3.2143,3.2161,3.2528,3.304,0.0,0.0,0.0,0.0,0.0,0.0,0.0,0.0,0.0,0.0,4.007,4.007,0.0,0.0,0.0,0.0,0.0,0.0,0.0,0.0,0.0,4.007,4.007,4.007,4.007,4.0483,4.0483,4.007,4.0483,4.0483,4.007,4.007,4.007,4.007,4.007,4.007,4.0138,4.0238,4.0387,4.0534,4.0648,4.0793,4.0888,4.0888,0.0,0.0,4.0888,4.0583,4.0171,3.98,3.8816,3.7663,3.7589,3.7103,3.6554,3.6554,3.6554,3.6492,3.6492,3.6492,3.6492,3.6492,3.6492,3.6492,3.6492,3.6554,3.6739,3.7254,3.7417,3.7653,3.8205,3.7786,3.7417,3.7476,3.6952,3.6554,3.6554,3.6554,3.6554,3.6492,3.6492,3.6492,3.6492,3.6492,3.6492,3.6492,3.6492,3.6492,3.6492,3.6492,3.6492,3.6492,3.6492,3.6492,3.6492,3.6492,3.6352,3.5973,3.5894,3.5653,3.5279,3.5148,3.4773,3.4109,3.3959,0.0,3.3213,3.3073,3.3003,3.3058,3.3633,3.3826,3.3831,3.4186,3.4386,3.4404,0.0,0.0,0.0,0.0,0.0,0.0,0.0,4.007,4.007,4.007,4.007,4.007,4.007,4.007,4.007,0.0,0.0,0.0,0.0,0.0,0.0,4.0434,4.0434,4.058,4.0832,4.1047,4.1047,4.0832,0.0,4.0659,4.0434,4.0204,4.007,4.007,4.007,4.007,4.0138,4.0238,4.0387,4.0568,4.106,4.136,4.1509,4.1971,0.0,0.0,4.1595,4.136,4.1096,4.0571,3.968,3.869,3.8206,3.7838,3.7504,3.7445,3.7445,3.7445,3.7445,3.7222,3.6952,3.6952,3.6723,3.6492,3.6492,3.6616,3.6862,3.715,3.7433,3.777,3.8075,3.7711,3.7417,3.7417,3.6892,3.6492,3.6492,3.6492,3.6492,3.6492,3.6492,3.6492,3.6492,3.6492,3.6492,3.6492,3.6492,3.6492,3.6492,3.6492,3.6492,3.6492,3.6492,3.6492,3.6492,3.6414,3.6226,3.5973,3.5894,3.5718,3.5504,3.5504,3.5279,3.4905,3.4461,3.4327,3.4356,3.3919,3.3768,3.3825,3.4524,3.4768,3.4745,3.5294,3.5668,3.588,0.0,0.0,0.0,0.0,0.0,0.0,0.0,4.007,4.007,4.007,4.007,4.007,4.007,4.007,4.007,0.0,0.0,0.0,0.0,0.0,0.0,0.0,0.0,0.0,4.1481,0.0,0.0,4.1481,4.123,0.0,0.0,0.0,0.0,0.0,4.0121,4.007,4.0138,4.0358,4.0576,0.0,0.0,4.2036,4.2253,0.0,0.0,0.0,0.0,4.213,4.1888,4.1319,4.0637,3.9902,3.9209,3.8723,3.8446,3.839,3.8334,3.8278,3.8278,3.7953,3.7578,3.7578,3.7118,3.6723,3.6831,3.6968,3.7121,3.7165,3.7551,3.7886,3.7828,3.7594,3.7358,3.7298,3.6907,3.6554,3.6492,3.6492,3.6492,3.6492,3.6492,3.6492,3.6492,3.6492,3.6492,3.6492,3.6492,3.6492,3.6492,3.6492,3.6492,3.6492,3.6492,3.6492,3.6492,3.6274,3.6148,3.5973,3.5831,3.5653,3.5504,3.5504,3.5504,3.5439,3.4824,3.4905,3.5424,3.4839,3.4616,3.4873,3.5502,3.5795,3.588,3.6372,3.6807,3.7049,0.0,0.0,0.0,0.0,0.0,0.0,0.0,4.007,4.007,4.007,4.007,4.007,4.007,4.007,4.007,0.0,0.0,0.0,0.0,0.0,0.0,0.0,0.0,0.0,0.0,0.0,0.0,4.1481,4.1888,0.0,0.0,0.0,0.0,0.0,0.0,4.007,4.0121,4.0815,0.0,0.0,0.0,0.0,0.0,0.0,0.0,0.0,0.0,4.2595,4.1974,4.1905,4.144,4.0776,4.0583,3.9594,3.8502,3.8518,3.8407,3.8278,3.8278,3.8278,3.8238,3.8238,3.7738,3.746,3.801,3.7738,3.7476,3.777,3.7886,3.7828,3.7476,3.7417,3.7314,3.706,3.6999,3.6877,3.6554,3.6492,3.6492,3.6492,3.6492,3.6492,3.6492,3.6492,3.6492,3.6492,3.6492,3.6492,3.6492,3.6492,3.6492,3.6492,3.6492,3.6492,3.6492,3.6274,3.6148,3.5973,3.5831,3.5653,3.5504,3.5504,3.5504,3.5504,3.5424,3.5424,0.0,3.5424,3.5783,3.638,3.7007,3.7565,3.808,3.8017,3.7919,3.772,0.0,0.0,0.0,0.0,0.0,0.0,4.0121,4.007,4.007,4.007,4.007,4.007,4.007,4.007,4.007,4.007,0.0,0.0,0.0,0.0,0.0,0.0,0.0,0.0,0.0,0.0,4.2537,4.236,4.2239,0.0,0.0,0.0,0.0,0.0,0.0,4.1017,4.0849,4.1869,0.0,0.0,0.0,0.0,0.0,0.0,0.0,0.0,0.0,0.0,4.263,4.2147,4.1492,4.0888,4.084,4.0353,3.9765,3.9627,3.9575,3.9523,3.9401,3.9135,3.8849,3.8849,3.8407,3.801,3.8351,3.8181,3.801,3.8254,3.8383,3.8399,3.8286,3.823,3.823,3.8132,3.7943,3.7754,3.7621,3.7546,3.7546,3.7546,3.7546,3.7546,3.7546,3.7546,3.7546,3.7546,3.7546,3.7546,3.7546,3.6876,3.6492,3.6492,3.6492,3.6492,3.6492,3.6226,3.6022,3.5973,3.5733,3.5554,3.5504,3.5504,3.5504,3.5504,3.5504,3.5504,0.0,3.5504,3.5893,3.6552,3.7165,3.7754,3.827,3.8634,3.8649,3.8397,0.0,0.0,0.0,0.0,0.0,4.0676,4.0434,4.0385,4.0286,4.0171,4.0121,4.007,4.007,4.007,4.0171,4.0303,4.0303,0.0,0.0,0.0,0.0,0.0,0.0,0.0,0.0,0.0,4.348,4.3244,4.317,4.301,0.0,0.0,4.2273,4.1974,0.0,0.0,0.0,0.0,0.0,0.0,0.0,0.0,0.0,0.0,0.0,0.0,0.0,0.0,0.0,0.0,0.0,4.0888,4.0888,4.084,4.0697,4.0502,4.0404,4.0337,4.0188,3.985,3.954,3.947,3.9011,3.8723,3.8957,3.8832,3.8723,3.8778,3.892,3.8936,3.8717,3.8733,3.875,3.8678,3.8551,3.8407,3.8278,3.8278,3.8278,3.8278,3.8278,3.8278,3.8278,3.8278,3.8278,3.8278,3.8278,3.8278,3.8278,3.7504,3.6937,3.6785,3.6785,3.6662,3.6414,3.6163,3.5973,3.5894,3.5619,3.5504,3.5504,3.5504,3.5504,3.5504,3.5504,3.5504,0.0,3.5714,3.6178,3.6821,3.7449,3.7968,3.8466,3.8941,3.8958,3.8723,0.0,0.0,0.0,0.0,0.0,0.0,4.1168,4.0967,4.075,4.0337,4.0188,4.007,4.007,4.007,4.0303,4.0754,4.0802,0.0,0.0,0.0,0.0,0.0,0.0,0.0,0.0,0.0,4.4892,4.4077,4.4874,4.4874,4.4095,4.4408,4.4639,4.4707,0.0,0.0,0.0,0.0,0.0,0.0,0.0,0.0,0.0,0.0,0.0,0.0,0.0,0.0,0.0,0.0,0.0,0.0,0.0,4.0888,4.0888,4.0745,4.0583,4.0485,4.0337,4.0288,4.0255,4.0121,3.9731,3.9558,4.0121,3.9901,3.961,3.961,3.9489,3.9226,3.8613,3.8662,3.8678,3.8351,3.8606,3.8678,3.8351,3.8278,3.8278,3.8278,3.8278,3.8278,3.8278,3.8278,3.8278,3.8278,3.8278,3.8278,3.8278,3.8294,3.801,3.7417,3.7417,3.6982,3.6211,3.61,3.5894,3.5688,3.5554,3.5504,3.5504,3.5504,3.5504,3.5504,3.5504,3.5504,0.0,3.6207,3.6851,3.7464,3.8123,3.8653,3.909,3.9104,3.8811,3.8516,0.0,0.0,0.0,0.0,0.0,0.0,0.0,4.1534,4.1464,4.1311,4.122,4.1202,4.1202,4.1202,4.1248,4.1383,4.1036,0.0,0.0,0.0,0.0,0.0,0.0,0.0,0.0,4.558,4.5182,4.491,4.5182,4.5164,4.4928,4.5043,4.4928,4.4675,4.4822,4.4777,0.0,0.0,0.0,0.0,0.0,0.0,4.6328,0.0,0.0,0.0,0.0,0.0,0.0,0.0,0.0,0.0,0.0,0.0,0.0,4.084,4.0745,4.06,4.0485,4.0436,4.0436,4.037,4.0254,4.0204,4.0502,4.037,4.0254,4.032,4.0254,4.0054,3.9782,3.9799,3.9764,3.9575,3.9644,3.9644,3.9575,3.9506,3.9506,3.9506,3.9506,3.9506,3.9506,3.9506,3.9506,3.9506,3.9506,3.9506,3.9506,3.9506,3.9065,3.8067,3.801,3.7838,3.7504,3.731,3.7175,3.6995,3.643,3.6148,3.6085,3.5683,3.5504,3.5504,3.5504,3.5504,3.5549,3.6207,3.6851,3.7479,3.8138,3.8582,3.887,3.887,3.8649,3.8277,0.0,0.0,0.0,0.0,0.0,0.0,0.0,4.2162,4.2038,4.1846,4.176,4.1717,4.1717,4.1717,4.1803,4.1973,4.1895,0.0,0.0,0.0,0.0,0.0,0.0,0.0,4.6957,4.6468,4.6069,4.5743,4.6069,4.6051,4.5761,4.6069,4.6073,4.5863,4.6052,4.6069,0.0,0.0,0.0,0.0,0.0,0.0,4.6863,0.0,0.0,0.0,0.0,0.0,0.0,0.0,0.0,0.0,0.0,0.0,0.0,0.0,4.084,4.0745,4.0583,4.0583,4.0534,4.0534,4.0534,4.0583,4.0697,4.068,4.068,4.0745,4.0697,4.0534,4.0387,4.0337,4.0255,4.0138,4.007,4.007,4.007,4.007,4.007,4.007,4.007,4.007,4.007,4.007,4.007,4.007,4.007,4.007,4.007,4.007,3.9747,3.9011,3.8739,3.8407,3.7969,3.7879,3.7706,3.7531,3.7011,3.6784,3.6784,3.6383,3.6211,3.6196,3.5973,3.5997,0.0,3.67,3.721,3.7838,3.8512,3.8805,3.8782,3.8782,3.8575,3.8202,0.0,0.0,0.0,0.0,0.0,0.0,0.0,4.2826,4.2598,4.2162,4.1979,4.1895,4.1895,4.1895,4.2121,4.2613,0.0,0.0,0.0,0.0,0.0,0.0,0.0,0.0,4.7717,4.7717,4.7337,4.6595,4.7337,4.7319,4.6613,4.7355,4.7759,4.7861,4.7258,4.7017,0.0,0.0,0.0,0.0,4.7536,4.7309,0.0,0.0,0.0,0.0,0.0,0.0,0.0,0.0,0.0,0.0,0.0,0.0,0.0,0.0,0.0,0.0,0.0,4.0745,4.0697,4.0583,4.0631,4.0697,4.0697,4.0793,0.0,4.0888,4.0793,4.0648,4.0534,4.0387,4.0288,4.0121,4.007,4.007,4.007,4.007,4.007,4.007,4.007,4.007,4.007,4.007,4.007,4.007,4.007,4.007,4.007,4.007,4.007,4.007,3.954,3.8849,3.7937,3.7937,3.7764,3.7546,3.7488,3.7488,3.7488,3.7429,3.7429,0.0,3.6723,3.6799,3.7428,3.7458,3.7863,3.8467,3.9155,3.9177,3.8782,3.8782,3.8575,3.8202,0.0,0.0,0.0,0.0,0.0,0.0,0.0,0.0,0.0,0.0,4.3032,4.3032,4.3032,4.3032,4.3323,0.0,0.0,0.0,0.0,0.0,0.0,0.0,0.0,0.0,4.7717,4.7717,4.7627,4.7428,4.7627,4.7609,4.7428,4.7627,4.7717,4.7759,4.7572,4.7615,0.0,0.0,0.0,0.0,4.8072,4.7688,0.0,0.0,0.0,0.0,4.421,4.3551,0.0,0.0,0.0,0.0,0.0,0.0,0.0,0.0,4.1864,4.1839,4.1401,0.0,4.084,4.0823,4.084,4.0823,0.0,4.0888,4.0888,4.0888,4.0871,4.0776,4.0534,4.0485,4.0387,4.0121,4.007,4.007,4.007,4.007,4.007,4.007,4.007,4.007,4.007,4.007,4.007,4.007,4.007,4.007,4.007,4.007,4.007,4.007,3.9969,3.9696,3.9276,3.9169,3.9023,3.886,3.8351,3.8108,3.8051,3.7605,3.7429,3.737,3.7251,3.7219,3.7428,3.7973,3.8258,3.8467,3.9155,3.9177,3.8782,3.8782,3.8575,3.8202,0.0,0.0,0.0,0.0,0.0,0.0,0.0,0.0,0.0,0.0,0.0,4.3593,4.3959,4.4014,0.0,0.0,0.0,0.0,0.0,0.0,0.0,0.0,0.0,4.7717,4.7717,4.7717,4.7717,4.7801,4.7801,4.7801,4.7801,4.7801,4.7759,4.7717,4.7717,4.7759,0.0,0.0,0.0,4.7638,4.7677,0.0,0.0,0.0,0.0,0.0,4.4186,4.3592,0.0,4.2641,4.2378,4.2198,0.0,0.0,0.0,0.0,4.2198,4.2157,4.1906,4.149,4.1163,4.1163,4.1163,4.1255,4.1463,4.1507,4.1507,4.1507,4.1507,4.1356,4.0849,4.1007,4.0913,4.0221,4.0483,4.0659,4.0434,4.0221,4.007,4.007,4.007,4.007,4.007,4.007,4.007,4.007,4.007,4.007,4.007,4.007,4.007,4.007,3.9969,3.9833,3.9677,3.9642,3.9484,3.9272,3.8952,3.8772,3.8772,3.8423,3.8254,3.827,3.829,3.848,3.881,3.9185,3.9544,3.9871,4.0186,3.992,3.9349,3.9421,3.8929,3.8202,0.0,0.0,0.0,0.0,0.0,0.0,0.0,0.0,0.0,0.0,0.0,0.0,0.0,0.0,0.0,0.0,0.0,0.0,0.0,0.0,0.0,0.0,4.7801,4.7741,4.7717,4.7741,4.7801,4.7902,4.7902,4.7902,4.7902,4.7902,4.7842,4.7741,4.7741,4.7801,4.7884,4.7816,4.7481,4.6998,4.687,0.0,0.0,0.0,0.0,0.0,0.0,0.0,0.0,4.2995,4.275,4.24,4.24,0.0,0.0,0.0,0.0,0.0,4.232,4.2032,4.1692,4.1604,4.1604,4.1692,4.2115,4.2198,4.2198,4.2198,4.2198,4.199,4.1348,4.1604,4.1516,4.0483,4.1001,4.1348,4.0972,4.0563,4.0303,4.0303,4.0254,4.0221,4.0303,4.0254,4.0271,4.0303,4.0254,4.0221,4.0221,4.0121,4.007,4.007,3.9884,3.9729,3.9677,3.9677,3.952,3.9272,3.9272,3.9272,3.9272,3.9272,3.9272,3.9305,0.0,0.0,4.0404,4.0607,4.1007,4.1525,4.1525,4.0909,4.01,4.0324,3.9621,3.862,0.0,0.0,0.0,0.0,0.0,0.0,0.0,0.0,0.0,0.0,0.0,0.0,0.0,0.0,0.0,0.0,0.0,0.0,0.0,0.0,0.0,4.8148,4.801,4.7947,4.7861,4.7929,4.7951,4.7951,4.7951,4.7951,4.7951,4.7951,4.7951,4.7951,4.7951,4.797,4.7974,4.7396,4.7088,4.6943,4.6305,0.0,0.0,0.0,0.0,0.0,0.0,0.0,0.0,4.341,4.3375,4.3286,4.3286,0.0,0.0,0.0,0.0,0.0,4.2882,4.275,4.2595,4.2198,4.2074,4.2115,4.2157,4.2198,4.2198,4.2198,4.2115,4.199,4.1839,4.1753,4.1648,4.1303,4.1393,4.1481,4.1393,4.1348,4.1276,4.1276,4.0926,4.0832,4.1276,4.0926,4.0832,4.1276,4.0926,4.0707,4.0707,4.0303,4.007,4.007,4.007,3.9935,3.9677,3.9468,3.9325,3.9272,3.9272,3.9272,3.9272,3.9272,3.9272,3.9322,0.0,4.0279,4.0421,4.1071,4.1405,4.1525,4.1525,4.1311,4.1013,4.1013,4.0743,4.0209,0.0,0.0,0.0,0.0,0.0,0.0,0.0,0.0,0.0,0.0,0.0,0.0,0.0,0.0,0.0,0.0,0.0,0.0,0.0,0.0,4.8265,4.8187,4.8169,4.809,4.7947,4.7951,4.805,4.809,4.809,4.809,4.809,4.8032,4.7992,4.7992,4.7992,4.8032,4.8035,4.7307,4.678,4.6341,0.0,0.0,0.0,0.0,0.0,0.0,0.0,0.0,0.0,0.0,4.3497,4.3497,4.3497,0.0,0.0,0.0,0.0,0.0,4.325,4.3214,4.3178,4.2976,4.2732,4.2634,4.2846,4.2884,4.2884,4.2884,4.2808,4.2655,4.2302,4.2338,4.2396,4.2279,4.1828,4.1569,4.1846,4.1656,4.1481,4.1481,4.1321,4.1276,4.1481,4.1303,4.1276,4.1481,4.1321,4.1185,4.1185,4.0955,4.0737,4.0483,4.0434,4.0204,3.9781,3.9537,3.9379,3.9272,3.9272,3.9272,3.9272,3.9272,3.9487,3.9901,0.0,4.1172,4.1573,4.231,4.2602,4.2632,4.2632,4.2301,4.1755,4.1198,4.0997,4.0878,0.0,0.0,0.0,0.0,0.0,0.0,0.0,0.0,0.0,0.0,0.0,0.0,0.0,0.0,0.0,0.0,0.0,0.0,0.0,4.8306,4.8286,4.8226,4.8286,4.8229,4.805,4.8072,4.8111,4.8226,4.8226,4.8226,4.8226,4.813,4.8072,4.8072,4.8072,4.802,4.7897,4.7091,4.6305,4.5553,0.0,0.0,0.0,0.0,0.0,0.0,0.0,0.0,0.0,0.0,0.0,0.0,0.0,0.0,0.0,4.3497,4.3497,4.3497,4.3497,4.3497,4.3497,4.3497,4.3268,4.3105,4.341,4.3497,4.3497,4.3463,4.3411,4.3214,4.2732,4.2844,4.3012,4.2938,4.232,4.1973,4.232,4.2056,4.1828,4.1828,4.1743,4.1717,4.1828,4.1743,4.17,4.1828,4.1717,4.1656,4.1656,4.1569,4.1366,4.0972,4.0861,4.0642,4.0254,3.9867,3.9573,3.9325,3.9325,3.9272,3.9272,3.9272,3.9686,4.0415,4.111,4.1839,4.2585,4.333,4.3628,4.3628,4.3628,4.3157,4.2506,4.1788,4.1593,4.1674,0.0,0.0,0.0,0.0,0.0,0.0,0.0,0.0,0.0,0.0,0.0,0.0,0.0,0.0,0.0,0.0,0.0,0.0,0.0,4.8306,4.8306,4.8306,4.8306,4.8267,4.8187,4.8247,4.8267,4.8306,4.8306,4.8306,4.8306,4.8267,4.8267,4.8267,4.8267,4.7864,4.7112,4.6342,4.5535,4.4727,4.3901,0.0,0.0,0.0,0.0,0.0,0.0,0.0,0.0,0.0,0.0,0.0,0.0,0.0,4.3497,4.3497,4.3497,4.3497,4.3497,4.3497,4.3497,4.3497,4.3479,4.3444,4.3479,4.3497,4.3497,4.3411,4.3286,4.3178,4.3086,4.2994,4.292,4.2882,4.2844,4.2806,4.2844,4.2806,4.2806,4.2806,4.2418,4.232,4.2768,4.2418,4.232,4.2768,4.2418,4.2157,4.2157,4.176,4.1481,4.1437,4.1437,4.1348,4.1213,4.0625,4.0037,3.9484,3.9379,3.9272,3.9272,3.9272,3.9686,4.0415,4.111,4.1839,4.2585,4.333,4.3628,4.3628,4.3628,4.3552,4.3492,4.3295,4.3235,4.3113,0.0,0.0,0.0,0.0,0.0,0.0,0.0,0.0,0.0,0.0,0.0,4.8306,4.8306,0.0,0.0,0.0,0.0,0.0,0.0,4.8306,4.8306,4.8306,4.8306,4.8267,4.8247,4.8267,4.8306,4.8306,4.8306,4.8306,4.8306,4.8306,4.8306,4.8288,4.7792,4.7388,4.6984,4.5718,4.4984,4.4635,4.3809,4.3497,0.0,0.0,0.0,0.0,0.0,0.0,0.0,0.0,4.3497,4.3497,4.3497,4.3497,4.3497,4.3497,4.3497,4.3497,4.3497,4.3497,4.3497,4.3497,4.3497,4.3497,4.3497,4.3497,4.3497,4.3463,4.3411,4.3269,4.3141,4.2994,4.2882,4.2882,4.2882,4.2882,4.2882,4.2882,4.2882,4.2882,4.275,4.2711,4.2882,4.275,4.2711,4.2882,4.2729,4.2634,4.2634,4.2458,4.2239,4.1931,4.1931,4.176,4.1437,4.0767,4.0269,4.0037,3.9573,3.9272,3.9342,3.9752,4.0348,4.1061,4.1789,4.2518,4.323,4.3512,4.3628,4.3628,4.3628,4.3628,4.3568,4.3568,4.3492,4.3492,0.0,0.0,0.0,0.0,0.0,0.0,0.0,0.0,4.8306,0.0,0.0,0.0,0.0,4.8306,0.0,0.0,0.0,0.0,4.8306,4.8306,4.8306,4.8306,4.8306,4.8306,4.8306,4.8306,4.8306,4.8306,4.8306,4.8306,4.8306,4.8049,4.7921,4.7902,4.7095,4.6599,4.6287,4.5186,4.4562,4.4268,4.3718,4.3497,0.0,0.0,0.0,0.0,0.0,0.0,0.0,0.0,4.3649,4.3649,4.3513,4.3497,4.3497,4.3497,4.3497,4.3497,4.3497,4.3497,4.3497,4.3497,4.3497,4.3497,4.3497,4.3497,4.3463,4.3463,4.3376,4.3251,4.3086,4.2938,4.2882,4.2882,4.2882,4.2882,4.2882,4.2882,4.2882,4.2882,4.2882,4.2882,4.2882,4.2882,4.2882,4.2882,4.2882,4.2882,4.2882,4.2882,4.275,4.2418,4.2418,4.2279,4.1973,4.1241,4.0891,4.0861,4.0391,3.9995,3.9636,4.015,4.0878,4.1789,4.2303,4.2949,4.3628,4.3628,4.3628,4.3628,4.3628,4.3628,4.3628,4.3628,4.3628,4.3628,0.0,0.0,0.0,0.0,0.0,0.0,0.0,0.0,4.8306,4.8306,4.8306,0.0,0.0,0.0,0.0,0.0,0.0,0.0,4.8306,4.8306,4.8306,4.8306,4.8306,4.8288,4.8288,4.8288,4.8288,4.8306,4.8306,4.8306,4.8269,4.748,4.7113,4.7076,4.625,4.5461,4.4709,4.4709,4.4232,4.3497,4.3497,4.3497,4.3497,0.0,0.0,0.0,0.0,0.0,0.0,0.0,4.3986,4.3942,4.3615,4.3532,4.3532,4.3532,4.3479,4.3479,4.3497,4.3497,4.3497,4.3497,4.3497,4.3497,4.3497,4.3446,4.3394,4.3394,4.3251,4.3049,4.2938,4.2882,4.2882,4.2882,4.2882,4.2882,4.2882,4.2882,4.2882,4.2882,4.2882,4.2882,4.2882,4.2882,4.2882,4.2882,4.2882,4.2882,4.2882,4.2882,4.2882,4.2882,4.2882,4.2882,4.2882,4.2302,4.1973,4.1899,4.2044,4.151,4.0437,4.0453,4.1177,4.2518,4.2535,4.2949,4.3628,4.3628,4.3628,4.3628,4.3628,4.3628,4.3628,4.3628,4.3628,4.3628,0.0,0.0,0.0,0.0,0.0,0.0,0.0,0.0,4.8306,4.8306,4.8306,0.0,0.0,0.0,0.0,0.0,0.0,0.0,4.8306,4.8306,4.8067,4.7498,4.748,4.7205,4.6617,4.6617,4.7168,4.8306,4.8306,4.8012,4.7462,4.7223,4.6819,4.6232,4.5424,4.4929,4.4672,4.4103,4.3718,4.3497,4.3497,4.3497,4.3497,0.0,0.0,0.0,0.0,0.0,0.0,0.0,0.0,0.0,4.4173,4.4143,4.4084,4.3923,4.3846,4.3814,4.3548,4.3497,4.3497,4.3497,4.3497,4.3497,4.3497,4.3497,4.3481,4.3429,4.3269,4.3142,4.3049,4.2938,4.2882,4.2882,4.2882,4.2882,4.2882,4.2882,4.2882,4.2882,4.2882,4.2882,4.2882,4.2882,4.2882,4.2882,4.2882,4.2882,4.2882,4.2882,4.2882,4.2882,4.2882,4.2882,4.2882,4.2857,4.2814,4.2807,4.2923,4.2455,4.1545,4.2569,4.309,4.3127,4.3665,4.3805,4.3628,4.3628,4.3628,4.3628,4.3628,4.3628,4.3628,4.3628,4.3628,4.3628,0.0,0.0,0.0,0.0,0.0,0.0,4.8513,4.8401,4.8306,4.8306,4.8306,4.8306,0.0,0.0,0.0,4.8306,4.8012,0.0,4.7829,4.7535,4.7131,4.6654,4.6636,4.6416,4.5902,4.5902,4.6379,4.7352,4.7352,4.7113,4.6636,4.6305,4.5902,4.5388,4.458,4.4283,4.4383,4.3885,4.3763,4.3855,4.3855,4.3855,4.3855,0.0,0.0,0.0,0.0,0.0,0.0,0.0,0.0,0.0,4.4465,4.4438,4.4383,4.4109,4.4017,4.3968,4.3763,4.3582,4.3513,4.3682,4.3582,4.3497,4.3497,4.3497,4.3463,4.3305,4.3233,4.3178,4.3031,4.2938,4.2882,4.2882,4.2882,4.2882,4.2882,4.2882,4.2882,4.2882,4.2882,4.2882,4.2882,4.2882,4.2882,4.2882,4.2882,4.2882,4.2882,4.2882,4.3045,4.3353,4.3371,4.3516,4.3842,4.3958,4.4026,4.4002,4.4343,4.4212,4.3687,4.4051,4.4182,4.4153,4.441,4.4179,4.3628,4.3628,4.3628,4.3628,4.3628,4.3628,4.3628,4.3628,4.3628,4.3628,0.0,0.0,4.8623,4.8623,0.0,0.0,4.855,4.8401,4.8306,4.8306,4.8306,4.8306,0.0,0.0,0.0,4.8214,4.7535,4.7095,4.7021,4.6305,4.5865,4.5792,4.5718,4.5681,4.5681,4.5681,4.5681,4.5681,4.5828,4.5865,4.5773,4.5039,4.4672,4.4562,4.3862,4.3716,4.4005,4.4036,4.4181,4.4383,4.4383,4.4383,4.4383,4.4383,0.0,0.0,0.0,0.0,0.0,0.0,0.0,0.0,4.465,4.458,4.4519,4.4181,4.4084,4.4076,4.403,4.3795,4.3682,4.3955,4.3795,4.3582,4.3548,4.3566,4.3463,4.316,4.316,4.3123,4.2938,4.2882,4.2882,4.2882,4.292,4.2957,4.2957,4.2976,4.2995,4.2995,4.2957,4.2957,4.2957,4.292,4.2918,4.2991,4.3009,4.3027,4.3099,4.3118,4.3444,4.4186,4.4204,4.4548,4.5291,4.5363,4.5395,4.5351,4.605,4.6386,4.6295,4.5032,4.4802,4.5372,4.4763,4.4179,4.3671,4.3628,4.3628,4.3628,4.3628,4.3628,4.3628,4.3628,4.3628,4.3628,0.0,0.0,4.8768,4.8839,0.0,0.0,4.8715,4.8569,4.8457,4.8457,4.8363,4.8306,4.8306,4.8306,0.0,4.7425,4.7223,4.6838,4.6195,4.5993,4.5626,4.5002,4.4342,4.4011,4.4011,4.4011,4.4011,4.4011,4.5278,4.5571,4.4947,4.4782,4.436,4.3771,4.3855,4.3942,4.4017,4.4221,4.4346,4.4383,4.4383,4.4383,4.4383,4.4383,4.4572,0.0,0.0,0.0,0.0,0.0,0.0,0.0,4.5222,4.5222,4.514,4.48,4.4726,4.4657,4.4402,4.426,4.4213,4.4289,4.426,4.4143,4.3955,4.391,4.3749,4.3286,4.3178,4.3123,4.2938,4.2882,4.2882,4.2882,4.3105,4.3301,4.3301,4.3523,4.3689,4.3689,4.3456,4.3301,4.3301,4.305,4.3154,4.3788,4.3824,4.4114,4.4747,4.4784,4.4856,4.5037,4.5037,4.5128,4.5291,4.5924,4.625,4.6228,4.6922,4.7258,4.7216,4.6757,4.6348,4.597,4.4927,4.4446,4.4276,4.3789,4.3628,4.3628,4.3628,4.3628,4.3628,4.3628,4.3628,4.3628,0.0,0.0,0.0,0.0,0.0,0.0,0.0,0.0,4.8108,4.8495,4.8476,4.8419,4.8419,4.7976,0.0,0.0,4.6416,4.5773,4.5351,4.4966,4.4562,4.414,4.3718,4.3497,4.3497,4.3497,4.3497,4.3497,4.4342,4.4544,4.4121,4.4121,4.3901,4.3513,4.3846,4.4079,4.4192,4.4465,4.4695,4.4838,4.4838,4.4838,4.4838,4.4862,4.5004,4.514,4.518,0.0,0.0,0.0,0.0,0.0,0.0,0.0,4.6627,4.6233,4.6121,4.6017,4.5401,4.5149,4.4937,4.4496,4.4383,4.4374,4.4221,4.4192,4.4102,4.3772,4.3594,4.3458,4.3422,4.3422,4.3422,4.3387,4.3523,4.3623,4.3623,4.3786,4.4061,4.4469,4.4364,4.4395,4.4816,4.4545,4.4491,4.491,4.4774,4.4856,4.5273,4.5291,4.5472,4.5852,4.587,4.6069,4.645,4.6866,4.7083,4.7083,4.7416,4.7554,4.7511,4.7267,4.6842,4.6186,4.5546,4.5125,4.4855,4.4524,4.4412,4.4412,4.4105,4.4006,4.4006,4.373,4.3628,4.3628,0.0,0.0,0.0,0.0,0.0,0.0,0.0,0.0,0.0,4.8549,4.855,4.8476,4.8347,4.761,4.704,0.0,0.0,0.0,4.4507,4.3864,4.3497,4.3497,4.3497,4.3497,4.3497,4.3532,4.3532,4.3532,4.3532,4.3532,4.3532,4.3532,4.3513,4.3582,4.3923,4.4221,4.4493,4.477,4.5045,4.5297,4.5297,4.5297,4.5317,4.5359,4.54,4.5419,4.5476,4.5609,4.5859,4.6645,0.0,0.0,0.0,0.0,4.8029,4.7704,4.7594,4.7438,4.6706,4.6297,4.5873,4.4979,4.4772,4.4708,4.4503,4.4465,4.4438,4.4402,4.4114,4.3912,4.4016,4.4016,4.3986,4.3943,4.3974,4.406,4.4191,4.4258,4.4636,4.5475,4.5538,4.5767,4.6419,4.6181,4.6028,4.6103,4.5785,4.5642,4.5707,4.5707,4.6015,4.6703,4.6721,4.7029,4.7699,4.7717,4.7717,4.7717,4.7717,4.7615,4.7511,4.7312,4.6934,4.6398,4.6235,4.592,4.5477,4.5355,4.5303,4.5267,4.4801,4.4652,4.4597,4.4105,4.3831,4.373,0.0,0.0,0.0,0.0,0.0,0.0,0.0,0.0,0.0,0.0,4.8642,4.8328,4.7645,4.7425,4.6743,4.5219,4.5013,4.4589,4.3699,0.0,0.0,4.3497,4.3497,4.3497,4.3497,4.3548,4.3582,4.3582,4.3582,4.3582,4.3582,4.3532,4.3649,4.3942,4.4221,4.4511,4.4751,4.5087,4.5256,4.5297,4.5297,4.5297,4.5317,4.5359,4.54,4.5419,4.5476,4.6031,4.6722,4.6874,4.7337,0.0,0.0,0.0,4.8106,4.8048,4.8029,4.7989,4.7794,4.7693,4.7376,4.6431,4.6221,4.5944,4.4971,4.4751,4.4751,4.4745,4.4465,4.4184,4.4117,4.4028,4.4016,4.3986,4.4165,4.459,4.5368,4.5695,4.6195,4.7008,4.6845,4.6709,4.6802,4.6525,4.6493,4.6912,4.6892,4.7012,4.7355,4.7391,4.7446,4.7554,4.7554,4.7591,4.7717,4.7717,4.7717,4.7717,4.7717,4.7615,4.7511,4.7363,4.7205,4.7043,4.6447,4.6137,4.602,4.5528,4.5303,4.5303,4.5197,4.5197,4.5197,4.5091,4.4801,4.439,0.0,0.0,0.0,0.0,0.0,0.0,0.0,0.0,0.0,0.0,0.0,4.8418,4.7587,4.7034,4.626,4.501,4.4546,4.414,4.3704,4.3686,4.3634,4.3548,4.3548,4.3548,4.3497,4.3548,4.3582,4.3582,4.3828,4.3905,4.3892,4.3992,4.4042,4.4036,4.443,4.4676,4.48,4.5173,4.5297,4.5297,4.5297,4.5317,4.5359,4.54,4.5419,4.5534,4.6089,4.6549,4.7048,4.799,4.8548,4.8913,4.9394,0.0,0.0,0.0,4.9528,4.9373,4.8773,4.8271,4.779,4.7322,4.7245,4.7109,4.6595,4.6096,4.5754,4.5754,4.5276,4.4838,4.4745,4.4669,4.4768,4.5205,4.5353,4.5682,4.6558,4.677,4.7169,4.8022,4.7991,4.8079,4.856,4.8288,4.8189,4.8345,4.8015,4.7844,4.8032,4.7824,4.7717,4.7717,4.7717,4.7717,4.7717,4.7717,4.7717,4.7717,4.7717,4.7657,4.7615,4.745,4.7338,4.7196,4.6795,4.6637,4.6637,4.6363,4.6249,4.6235,4.6407,4.615,4.5803,4.5944,4.5522,4.491,0.0,0.0,0.0,0.0,0.0,0.0,0.0,0.0,0.0,0.0,0.0,4.8433,4.7414,0.0,0.0,0.0,4.4202,4.3851,4.3837,4.3804,4.3771,4.3667,4.3667,4.3634,4.3566,4.3634,4.3716,4.3795,4.4072,4.4221,4.4221,4.4465,4.4438,4.4221,4.4624,4.4843,4.4934,4.5194,4.5317,4.5317,4.5317,4.5359,4.54,4.5419,4.5573,4.5917,4.6645,4.7182,4.774,4.8971,4.9548,4.9837,5.0491,5.0702,0.0,0.0,0.0,5.0469,4.9693,4.9039,4.8501,4.8206,4.8124,4.8067,4.7857,4.7302,4.6825,4.6825,4.6347,4.5906,4.5884,4.5605,4.5635,4.6235,4.6448,4.679,4.7631,4.7745,4.8041,4.8894,4.8988,4.9235,4.9822,4.9683,4.9506,4.9415,4.8887,4.8514,4.8306,4.801,4.7824,4.7699,4.7717,4.7717,4.7717,4.7717,4.7717,4.7717,4.7717,4.7717,4.7717,4.7554,4.7425,4.7267,4.7133,4.7043,4.6998,4.6998,4.7105,4.7337,4.7493,4.7205,4.6751,4.6897,4.6343,4.5477,0.0,0.0,0.0,0.0,0.0,0.0,0.0,0.0,0.0,0.0,0.0,4.8314,4.6735,4.6513,4.5811,4.4119,4.3979,4.3942,4.3897,4.3837,4.3804,4.3804,4.3804,0.0,4.3771,4.3851,4.4017,4.426,4.4289,4.4402,4.4591,4.4776,4.4825,4.4751,4.4776,4.5,4.5275,4.5297,4.5338,4.5379,4.5379,4.54,4.54,4.5476,4.6013,4.6743,4.6856,4.7913,4.9279,4.9375,4.9952,5.0625,5.0683,5.0702,5.0702,0.0,0.0,0.0,5.0545,5.0446,5.0153,4.9245,4.9029,4.8812,4.799,4.7761,4.7742,4.7742,4.7704,4.7685,4.7662,4.6923,4.6382,4.6466,4.6972,4.7669,4.8618,4.8681,4.8913,4.9728,4.9822,4.9841,4.9898,4.9879,4.9741,4.9427,4.9365,4.9042,4.8344,4.8267,4.8072,4.7699,4.7717,4.7717,4.7717,4.7717,4.7717,4.7717,4.7717,4.7717,4.7717,4.7554,4.7511,4.7468,4.7267,4.7133,4.6998,4.6998,4.7444,4.8122,4.8157,4.8139,4.8122,4.811,4.7262,4.6137,0.0,0.0,0.0,0.0,0.0,0.0,0.0,0.0,0.0,0.0,0.0,0.0,0.0,4.6494,4.5825,4.4122,4.3974,4.4005,4.3992,4.3961,4.3897,4.3851,4.4017,4.4091,4.4048,4.4279,4.4457,4.4565,4.4776,4.4896,4.4938,4.518,4.5241,4.5175,4.5132,4.5194,4.5297,4.5338,4.5378,4.5418,4.54,4.5419,4.5534,4.6109,4.655,4.7011,4.8125,4.8894,4.949,5.0048,5.0433,5.0702,5.0702,5.0702,5.0702,5.0702,5.0702,5.0702,5.0623,5.0582,5.0445,5.0052,4.9931,4.9832,4.948,4.9003,4.8621,4.8621,4.82,4.7799,4.7799,4.7503,4.7438,4.8014,4.8243,4.8644,4.9454,4.9542,4.9629,4.9887,4.9898,4.9898,4.9898,4.9898,4.9852,4.9741,4.9518,4.927,4.9023,4.855,4.8229,4.809,4.7824,4.7717,4.7717,4.7717,4.7717,4.7717,4.7717,4.7717,4.7717,4.7657,4.7572,4.7529,4.7983,4.8111,4.7958,4.7849,4.8314,4.9102,4.9526,4.9067,4.8247,4.8728,4.7992,4.6684,0.0,0.0,0.0,4.9114,0.0,4.9917,4.9917,4.9917,4.9857,4.9588,0.0,0.0,0.0,0.0,4.6053,4.43,4.4048,4.4005,4.4005,4.4005,4.4036,4.4079,4.425,4.4346,4.4402,4.4908,4.506,4.4868,4.5382,4.5509,4.5243,4.5419,4.5457,4.54,4.536,4.5319,4.5338,4.5379,4.5399,4.5457,4.5745,4.5726,4.5666,4.68,4.7261,4.749,4.8894,4.9586,4.9913,5.0491,5.0702,5.0702,5.0702,5.0702,5.0702,5.0702,5.0702,5.0683,5.0643,5.0623,5.0582,5.0478,5.0435,5.039,5.0325,4.9905,4.95,4.95,4.9041,4.864,4.864,4.8594,4.8666,4.8972,4.9186,4.9499,5.0006,5.0031,4.9978,4.9952,4.9906,4.9898,4.9898,4.9898,4.9898,4.9898,4.9712,4.9537,4.9415,4.894,4.8605,4.8458,4.8111,4.7888,4.7888,4.7783,4.7717,4.7717,4.7717,4.7717,4.7717,4.7717,4.7802,4.8005,4.8529,4.8658,4.8524,4.8639,4.9213,5.0002,5.0347,4.9758,4.8715,4.9139,4.8318,4.6934,4.6457,4.7324,4.8181,4.8507,4.9472,5.0168,5.0168,5.0187,5.0111,4.9857,0.0,0.0,0.0,0.0,0.0,4.4626,4.4181,4.4017,4.4017,4.4017,4.4151,4.4383,4.4411,4.4546,4.48,4.564,4.5803,4.5222,4.6063,4.6146,4.5495,4.5495,4.5476,4.54,4.54,4.5419,4.5456,4.5418,4.5438,4.5571,4.6455,4.6338,4.5817,4.7509,4.8144,4.8259,4.9125,4.9971,5.0702,5.0702,5.0702,5.0702,5.0702,5.0702,5.0702,5.0702,5.0702,5.0702,0.0,0.0,0.0,5.0603,5.05,5.0412,5.0412,5.0348,5.0302,5.0302,5.0302,5.0302,5.0302,5.0302,5.0034,4.9251,4.9692,5.0133,5.0188,5.0089,4.9986,5.0005,4.9933,4.9879,4.9898,4.9898,4.9898,4.9898,4.9898,4.9769,4.9427,4.9415,4.922,4.8816,4.8458,4.8306,4.8306,4.7888,4.7717,4.7717,4.7717,4.7717,4.7753,4.7753,4.8188,4.8949,4.8967,4.8836,4.8632,4.9267,5.0103,5.0933,5.0646,5.0127,4.9489,4.9365,4.8336,4.6998,4.5621,4.6644,4.7537,4.7643,4.8754,4.9603,4.9603,5.0161,5.0462,0.0,0.0,0.0,4.8396,4.7176,4.6215,4.5691,4.4983,4.4591,4.4591,4.4591,4.4599,4.4676,4.4872,4.5011,4.5074,4.5512,4.5669,4.5495,4.5725,4.5743,4.5568,4.5568,4.555,4.5457,4.5457,4.5822,4.6378,4.5745,4.5476,4.5571,4.6492,4.6741,4.6721,4.8394,4.9048,4.9144,0.0,5.0491,5.0702,5.0702,5.0702,5.0702,5.0702,5.0702,5.0702,5.0702,5.0702,5.0702,5.0702,0.0,0.0,0.0,0.0,0.0,5.0478,5.0435,5.0371,5.0371,5.0325,5.0302,5.0302,5.0302,5.0225,4.9996,5.0126,5.0231,5.0188,5.0163,5.0114,5.0005,4.9978,4.9933,4.9906,4.9898,4.9898,0.0,4.9898,4.9852,4.9769,4.9537,4.922,4.8816,4.8458,4.8306,4.8306,4.7888,4.7717,4.7717,4.7717,4.8007,4.8586,4.8586,4.9021,4.98,5.0379,5.0588,5.0543,5.0623,5.1153,5.1874,5.1712,5.0755,4.9489,4.9442,4.8429,4.6998,4.4885,4.5951,4.6841,4.6939,4.8022,4.8971,4.9336,4.9817,5.0221,0.0,0.0,0.0,4.9079,4.7647,4.6754,4.6754,4.6201,4.5848,4.5848,4.5848,4.5873,4.6012,4.6167,4.6294,4.6416,4.6915,4.7009,4.6644,4.7009,4.699,4.6644,4.6644,4.6606,4.6588,4.6588,4.6876,4.73,4.6799,4.6588,4.6665,4.7568,4.774,4.7586,4.9279,4.9721,4.951,0.0,0.0,5.0702,5.0702,5.0702,5.0702,5.0702,5.0702,5.0702,5.0702,5.0702,5.0702,5.0702,5.0702,5.0683,5.0643,0.0,0.0,5.0521,5.0457,5.039,5.0348,5.0325,5.0302,5.0302,5.0302,5.0302,5.0302,5.0302,5.0278,5.0255,5.0231,5.0163,5.0089,4.9752,4.9651,4.9967,4.9656,4.9572,4.9914,4.9925,4.9898,4.9898,4.9712,4.9499,4.9246,4.8937,4.8677,4.8495,4.8151,4.7866,4.7717,4.8043,4.846,4.8931,4.9257,4.9836,5.0615,5.1086,5.1484,5.1792,5.17,5.1989,5.2358,5.2198,5.1311,5.0142,4.9726,4.8765,4.7608,0.0,4.5229,4.6036,4.6307,4.7241,4.824,4.899,4.9279,4.9702,0.0,5.0644,5.0431,4.9719,4.8604,4.7903,4.7903,4.759,4.7414,4.7414,4.7414,4.7486,4.7728,4.7747,4.7851,4.8105,4.8856,4.8875,4.8105,4.8875,4.8856,4.8105,4.8105,4.8105,4.8105,4.8105,4.8144,4.824,4.824,4.8298,4.8452,4.9125,4.8933,4.8413,5.0067,5.0221,4.9644,5.0414,5.0702,5.0702,5.0702,5.0702,5.0702,5.0702,5.0702,5.0702,5.0702,5.0702,5.0702,5.0702,5.0702,5.0702,5.0702,5.0663,0.0,5.0542,5.0478,5.0412,5.0348,5.0325,5.0325,5.0302,5.0302,5.0302,5.0302,5.0302,5.0302,5.0302,5.0255,5.0212,5.0188,4.9434,4.9194,4.9898,4.9182,4.8979,4.9815,4.9895,4.9925,4.9898,4.9898,4.9898,4.9898,4.9577,4.922,4.8885,4.8624,4.8318,4.7993,4.8768,4.9204,4.927,4.9978,5.0695,5.143,5.143,5.1828,5.2498,5.2498,5.2498,5.2498,5.2246,5.1694,5.0976,5.0045,4.9189,4.838,4.425,4.4704,4.5138,4.5407,4.6397,4.7201,4.7355,4.8585,4.9546,4.97,5.0352,5.0735,5.0561,4.9698,4.916,4.916,4.8508,4.8086,4.803,4.803,4.803,4.803,4.803,4.8049,4.8105,4.8279,4.8279,4.8105,4.8279,4.8279,4.8105,4.8105,4.8105,4.8105,4.8105,4.849,4.9144,4.9144,4.9548,5.0144,4.9606,4.9298,4.926,5.0298,5.0587,5.0471,5.0625,5.0702,5.0702,5.0702,5.0702,5.0702,5.0702,5.0702,5.0702,5.0702,5.0702,5.0702,5.0702,5.0702,5.0702,5.0702,5.0683,0.0,5.0663,5.0603,5.0562,5.0542,5.05,5.0438,5.039,5.039,5.0348,5.0302,5.0302,5.0302,5.0302,5.0278,5.0255,5.0212,4.9477,4.9015,4.9118,4.8332,4.818,4.9055,4.9651,4.9952,4.9879,4.9898,4.9898,4.9898,4.9577,4.9365,4.9302,4.9573,4.9694,4.9621,5.0454,5.1003,5.1302,5.149,5.1828,5.2263,5.2263,5.2353,5.2498,5.2498,5.2498,5.2498,5.2452,5.1899,5.0976,5.0182,4.928,4.838,4.425,4.4572,4.4872,4.514,4.5784,4.6394,4.6836,4.7642,4.8524,4.9391,5.0273,5.081,5.0846,5.0424,5.0137,5.0137,4.977,4.9539,4.9502,4.9502,4.9485,4.9449,4.9412,4.9393,4.9393,4.9413,4.9394,4.9394,4.9394,4.9394,4.9394,4.9394,4.9394,4.9394,4.9394,4.9644,5.0048,5.0048,5.0298,5.0644,5.0221,5.0048,5.0087,5.0529,5.0702,5.0702,5.0702,5.0702,5.0702,5.0702,5.0702,5.0702,5.0702,5.0702,5.0702,5.0702,5.0702,5.0702,5.0702,5.0702,0.0,5.0702,0.0,0.0,0.0,5.0623,5.0582,5.0562,5.0521,5.05,5.0457,5.0457,5.0435,5.0348,5.0348,5.0325,5.0302,5.0302,5.0278,5.0236,4.9167,4.8552,4.8948,4.78,4.7334,4.8186,4.9017,4.9423,4.9345,4.9724,4.9933,4.9898,5.0175,5.0188,4.9997,5.0661,5.0903,5.0709,5.1508,5.1992,5.2188,5.2412,5.2602,5.2806,5.2572,5.2498,5.2498,5.2498,5.2498,5.2498,5.2498,5.2198,5.1628,5.0417,4.9685,4.9117,4.4221,4.4493,4.4776,4.5074,4.5342,4.5763,4.6474,4.6758,4.7559,4.9311,5.0291,5.0844,5.0897,5.0844,5.0827,5.0827,5.0827,5.0827,5.081,5.081,5.081,5.0793,5.0757,5.0701,5.0701,5.0702,5.0702,5.0702,5.0702,5.0702,5.0702,5.0702,5.0702,5.0702,5.0702,5.0702,5.0702,5.0702,5.0702,5.0702,5.0702,5.0702,5.0702,5.0702,5.0702,5.0702,5.0702,5.0702,5.0702,5.0702,5.0702,5.0702,5.0702,5.0702,5.0702,0.0,0.0,0.0,0.0,0.0,0.0,0.0,0.0,5.0702,0.0,0.0,0.0,5.0542,5.0542,5.0542,5.0521,5.0521,5.05,5.0435,5.0412,5.039,5.0325,5.0302,5.0302,5.0302,4.8831,4.8086,4.8774,4.7373,4.6698,4.7315,4.8191,4.8718,4.8815,4.9594,5.0081,5.0172,5.1006,5.1281,5.0936,5.1801,5.21,5.1759,5.258,5.2936,5.2865,5.3093,5.3162,5.3096,5.269,5.2498,5.2498,5.2498,5.2498,5.2498,5.2498,5.2498,5.2299,5.0687,5.009,4.9854,4.4132,4.4289,4.4438,4.4776,4.5074,4.5281,4.5376,4.6318,4.7642,4.9444,5.0387,5.089,5.089,5.089,5.089,5.089,5.089,5.0893,5.0899,5.0899,5.0863,5.0793,5.0793,5.0775,5.0701,5.0701,5.0683,5.0702,5.0702,5.0702,5.0702,5.0702,5.0702,5.0702,5.0702,5.0702,5.0702,5.0702,5.0702,5.0702,5.0702,5.0702,0.0,5.0702,5.0702,5.0702,5.0702,5.0702,5.0702,0.0,5.0702,5.0702,0.0,5.0702,5.0702,5.0702,0.0,0.0,0.0,0.0,0.0,0.0,5.0702,0.0,0.0,0.0,5.0702,5.0663,0.0,5.0663,5.0603,0.0,0.0,5.05,5.0435,5.0412,5.039,5.0325,5.0302,5.0302,4.8831,4.7857,4.7952,4.7073,4.6495,4.6546,4.7323,4.8138,4.8852,4.9645,5.0399,5.1125,5.1942,5.2304,5.2191,5.3061,5.3478,5.3448,5.4231,5.4433,5.4096,5.3758,5.3428,5.3096,5.269,5.2498,5.2498,5.2498,5.2498,5.2498,5.2498,5.2498,5.2299,5.0687,5.009,4.9854,4.3809,4.4102,4.4346,4.4484,4.4896,4.5201,4.5201,4.6646,4.8028,4.879,5.0059,5.0906,5.0906,5.0906,5.0906,5.0906,5.0906,5.089,5.0893,5.0893,5.0893,5.0858,5.0863,5.0846,5.0829,5.0739,5.0702,5.0702,5.0702,5.0702,5.0702,5.0702,5.0702,5.0702,5.0702,5.0702,5.0702,5.0702,5.0702,5.0702,5.0702,5.0702,0.0,5.0702,5.0702,5.0702,5.0702,5.0702,5.0702,0.0,5.0702,0.0,0.0,0.0,0.0,5.0702,0.0,5.0702,0.0,0.0,0.0,0.0,0.0,0.0,5.0702,0.0,5.0702,0.0,0.0,0.0,0.0,0.0,0.0,0.0,5.0521,5.05,5.0457,5.0412,5.0325,5.0302,4.8831,4.7417,4.6443,4.6023,4.5793,4.575,4.6533,4.7579,4.8881,4.9719,5.0742,5.2022,5.2878,5.328,5.3196,5.4031,5.4448,5.4448,5.4779,5.4822,5.4692,5.4262,5.3851,5.3428,5.3011,5.2735,5.2498,5.2498,5.2498,5.2498,5.2498,5.2498,5.2299,5.0687,5.009,4.9927,4.3548,4.3873,4.4162,4.4221,4.4701,4.5159,4.5322,4.6835,4.8031,4.8272,4.9618,5.0674,5.0887,5.0906,5.0906,5.0906,5.0906,5.0906,5.0906,5.0906,5.0906,5.0906,5.0893,5.0897,5.0899,5.0793,5.0739,5.0701,5.0702,5.0702,5.0702,5.0702,5.0702,5.0702,5.0702,5.0702,5.0702,5.0702,5.0702,5.0702,5.0702,5.0702,5.0702,5.0702,5.0702,5.0702,5.0702,5.0702,5.0702,5.0702,5.0702,0.0,5.0702,5.0702,5.0702,0.0,5.0702,5.0702,5.0701,0.0,0.0,0.0,0.0,0.0,0.0,0.0,0.0,0.0,0.0,0.0,0.0,0.0,5.0683,5.0623,0.0,5.0582,5.0521,5.0478,5.0412,5.0344,4.8831,4.715,4.5449,4.5297,4.5297,4.5297,4.6042,4.7242,4.8934,5.0021,5.1313,5.2913,5.3807,5.4218,5.4154,5.4743,5.5028,5.5028,5.4971,5.4971,5.5028,5.4528,5.4174,5.387,5.3468,5.3096,5.2831,5.2717,5.2645,5.2645,5.2526,5.2498,5.2299,5.0687,5.009,4.9999,4.341,4.3686,4.3851,4.3974,4.4457,4.5007,4.5586,4.6458,4.7336,4.8195,4.9135,5.0035,5.0828,5.0906,5.0906,5.0906,5.0906,5.0906,5.0906,5.0906,5.0906,5.0906,5.0906,5.0893,5.0899,5.0899,5.0829,5.0701,5.0701,5.0702,5.0702,5.0702,5.0702,5.0702,5.0702,5.0702,5.0702,5.0702,5.0702,5.0702,5.0702,5.0702,5.0702,0.0,5.0702,5.0702,5.0702,0.0,0.0,5.0702,5.0702,0.0,0.0,0.0,0.0,0.0,0.0,0.0,0.0,0.0,0.0,5.0702,0.0,0.0,0.0,0.0,5.0702,0.0,0.0,0.0,0.0,5.0702,5.0702,5.0702,5.0643,0.0,0.0,5.0542,5.0478,5.0412,4.8853,4.715,4.5449,4.5297,4.5297,4.5297,4.6042,4.7264,4.9003,5.0665,5.2278,5.3906,5.4745,5.5138,5.5056,5.5075,5.5094,5.5094,5.5094,5.5094,5.5094,5.4604,5.4411,5.4359,5.387,5.3683,5.3606,5.3244,5.3096,5.3054,5.2645,5.2498,5.2299,5.0687,5.009,5.009,4.3124,4.3426,4.3701,4.3851,4.4221,4.4726,4.5283,4.6296,4.7317,4.8202,4.9119,5.0016,5.0809,5.0906,5.0906,5.0906,5.0906,5.0906,5.0906,5.0906,5.0906,5.0906,5.0906,5.089,5.0893,5.0863,5.081,5.0775,5.0721,5.0702,5.0702,5.0702,5.0702,5.0702,5.0702,5.0702,5.0702,5.0702,5.0702,5.0702,0.0,5.0758,5.0808,0.0,5.0702,5.0702,5.0702,5.0702,0.0,5.0702,5.0702,5.0702,5.0702,5.0702,5.0702,5.0702,5.0702,0.0,0.0,0.0,5.0702,5.0701,0.0,0.0,0.0,0.0,0.0,0.0,0.0,0.0,0.0,5.0702,5.0702,5.0702,5.0663,5.0682,0.0,5.0603,5.0331,4.9674,4.8553,4.715,4.5449,4.5774,4.6099,4.6099,4.7417,0.0,5.0665,5.1792,5.3187,5.488,5.5205,5.5267,5.5176,5.5176,5.5176,5.5176,5.5121,5.5121,5.5176,5.4943,5.4685,5.4411,5.4225,5.3979,5.3683,5.3528,5.3348,5.3096,5.2944,5.2717,5.2299,5.0687,5.076,5.1828,4.2884,4.3196,4.3461,4.3786,4.4151,4.4572,4.5118,4.611,4.7178,4.8152,4.9068,4.995,5.0797,5.0893,5.0909,5.0906,5.0906,5.0906,5.0906,5.0906,5.0906,5.0906,5.0906,5.089,5.0893,5.0863,5.081,5.0756,5.0721,5.0702,5.0702,5.0702,5.0702,5.0702,5.0702,5.0702,5.0702,5.0702,5.0702,5.0702,5.0702,5.0758,0.0,0.0,5.074,5.0776,0.0,5.0702,5.0702,5.0702,5.0702,5.0702,5.0702,5.0702,5.0702,5.0702,5.072,5.0738,5.0775,5.0757,0.0,5.0739,5.072,0.0,5.0738,0.0,5.0702,0.0,0.0,0.0,0.0,5.0702,5.0702,5.0702,5.0702,5.0702,0.0,5.0643,5.0256,4.9333,4.8405,4.7401,4.6332,4.6139,4.6328,4.692,4.8296,4.9824,5.1525,5.2652,5.3913,5.5345,5.5403,5.5358,5.5275,5.5275,5.5275,5.5275,5.5241,5.5241,5.5267,5.5176,5.4971,5.4666,5.4666,5.4476,5.4171,5.4015,5.3796,5.3528,5.3244,5.2944,5.2526,5.1084,5.1538,5.3114,4.2673,4.2921,4.3178,4.3781,4.4181,4.4572,4.5096,4.5931,4.6915,4.8044,4.8964,4.9864,5.0803,5.0899,5.0897,5.089,5.089,5.089,5.0906,5.089,5.089,5.089,5.089,5.0893,5.0899,5.0899,5.0829,5.0701,5.0701,5.0702,5.0702,5.0702,5.0702,5.0702,5.0702,5.0702,5.0702,5.0702,5.0702,5.0683,5.0702,5.0702,5.0721,5.0721,5.0793,5.0887,5.074,5.0702,5.0702,5.0702,5.0702,5.0702,5.0683,5.0702,5.0701,5.0701,5.0757,5.081,5.0883,5.0846,5.0793,5.081,0.0,0.0,0.0,0.0,5.0702,0.0,0.0,0.0,0.0,0.0,5.0702,5.0702,5.0702,5.0702,5.0702,5.0643,5.0296,4.9451,4.8544,4.7965,4.7886,4.6447,4.6137,4.7742,4.8754,4.9977,5.1582,5.3244,5.4543,5.5365,5.5403,5.5403,5.5403,5.5403,5.5403,5.5403,5.5403,5.5403,5.5403,5.5275,5.5203,5.5203,5.5121,5.5094,5.5066,5.4604,5.4411,5.4326,5.3468,5.3115,5.2993,5.1882,5.2444,5.3874,4.1821,4.2462,4.3142,4.3615,4.4042,4.4457,4.4849,4.5805,4.6915,4.8044,4.8964,4.9847,5.0733,5.0829,5.0846,5.0897,5.0897,5.0913,5.089,5.0893,5.0897,5.0897,5.0844,5.0827,5.0829,5.0775,5.072,5.0701,5.0702,5.0702,5.0702,5.0702,5.0702,5.0702,5.0702,5.0702,5.0702,5.0702,5.0702,5.0702,5.081,5.0883,5.0926,0.0,5.094,5.094,5.0775,5.0702,5.0702,5.0702,5.0702,5.0702,5.0683,5.0702,5.0701,5.0775,5.0793,5.081,5.081,5.081,5.081,5.0863,5.081,5.0793,0.0,0.0,0.0,0.0,0.0,0.0,0.0,0.0,0.0,5.0702,5.0702,5.0702,5.0702,5.0702,5.0586,5.0356,4.9469,4.862,4.7965,4.8058,4.8302,4.8716,5.0684,5.204,5.2461,5.4123,5.5174,5.5403,5.5403,5.5403,5.5403,5.5403,5.5403,5.5403,5.5403,5.5403,5.5403,5.5358,5.5294,5.5183,5.5183,5.5149,5.5094,5.4962,5.4716,5.4326,5.3814,5.3594,5.359,5.3867,5.4237,5.4798,4.1383,4.2262,4.305,4.332,4.4054,4.4763,4.5268,4.6178,4.7308,4.8566,4.9488,5.0218,5.0699,5.0757,5.0793,5.0846,5.0846,5.0863,5.0861,5.0863,5.0846,5.0846,5.081,5.0793,5.0757,5.072,5.0702,5.0702,5.0702,5.0702,5.0702,5.0702,5.0702,5.0702,5.0702,5.0702,5.0702,5.0702,5.0757,5.0835,5.0887,5.0951,0.0,5.1008,5.1008,5.0984,5.0839,5.074,5.0702,5.0702,5.0702,5.0702,5.0702,5.072,5.0757,5.081,5.0844,5.0841,5.0841,5.0841,5.0861,5.0899,5.0863,5.0846,5.0899,5.0829,5.0738,0.0,0.0,0.0,0.0,0.0,0.0,5.0702,5.0702,5.0702,5.0702,5.0702,5.0702,5.0702,5.0201,4.9795,4.9618,4.9305,4.9545,5.0673,5.2026,5.2957,0.0,5.4658,5.5403,5.5403,5.5403,5.5403,5.5403,5.5403,5.5403,5.5403,5.5403,5.5403,5.5403,5.5403,5.5358,5.5294,5.5294,5.5267,5.5214,5.5168,5.4971,5.4735,5.4668,5.4724,5.4913,5.5721,5.5751,5.5558,4.123,4.2139,4.2864,4.3032,4.4156,4.5249,4.604,4.6878,4.7924,4.9162,0.0,5.0702,5.0702,5.0702,5.072,5.0793,5.0793,5.0793,5.0793,5.0793,5.0793,5.0793,5.0793,5.0757,5.0682,5.0702,5.0683,5.0702,5.0702,5.0702,5.0702,5.0702,5.0702,5.0702,5.0702,5.0702,5.0702,5.0702,5.0822,5.0972,5.0923,5.0959,5.1031,5.1042,5.1042,5.1008,5.0937,5.0841,5.0721,5.0721,5.0702,5.0702,5.072,5.0757,5.081,5.088,5.0893,5.0906,5.0906,5.0906,5.089,5.0897,5.0899,5.0899,5.0899,5.0846,5.0793,5.0793,5.0757,5.0702,0.0,0.0,0.0,5.0702,5.0702,0.0,0.0,0.0,5.0702,5.0702,5.0798,0.0,5.191,5.0438,5.0428,5.2752,5.2973,5.3326,0.0,0.0,5.5403,5.5403,5.5403,5.5403,5.5403,5.5403,5.5403,5.5403,5.5403,5.5403,5.5403,5.5403,5.5403,5.5403,5.5403,5.5403,5.5403,5.5275,5.526,5.5331,5.5662,5.6042,5.6478,5.7225,5.7045,5.6455,4.1338,4.1948,4.2458,4.2864,4.4069,4.5435,4.6703,4.7723,4.853,4.9025,5.0026,5.0702,5.0702,5.0702,5.0702,5.072,5.072,5.0738,5.0793,5.0757,5.072,5.072,5.0721,5.0721,5.0702,5.0702,5.0702,5.0702,5.0702,5.0702,5.0702,5.0702,5.0702,5.0702,5.0702,5.0702,5.0702,5.0702,0.0,5.0928,5.0953,5.1061,5.1187,5.1291,5.1258,5.115,5.1039,5.0918,5.0841,5.074,5.0702,5.072,5.0775,5.0829,5.088,5.0893,5.089,5.0906,5.0906,5.0906,5.089,5.089,5.0913,5.0899,5.0899,5.0846,5.0793,5.0793,5.0757,5.0701,5.0702,0.0,0.0,0.0,0.0,0.0,0.0,0.0,0.0,5.0702,5.1239,5.1949,5.2874,5.1966,5.1787,5.2916,5.3641,5.4077,5.4183,0.0,5.5396,0.0,5.5403,0.0,0.0,0.0,5.5403,5.5403,5.5403,5.5403,5.5403,5.5403,5.5403,5.5403,5.5403,5.5403,5.5403,5.5358,5.554,5.578,5.5794,5.6415,5.7378,5.7528,5.7877,5.8248,4.1117,4.207,4.2928,4.3249,4.4931,4.6524,0.0,4.8447,4.9372,4.9825,5.0354,5.0702,5.0702,5.0702,5.0702,5.0702,5.0702,5.0721,5.074,5.0721,5.0702,5.0702,5.0702,5.0702,5.0702,5.0702,5.0702,5.0702,5.0702,5.0702,5.0702,5.0702,5.0702,5.0702,5.0702,5.074,5.0793,0.0,0.0,5.1058,5.1027,5.1132,5.1302,5.1386,5.1362,5.1291,5.115,5.1039,5.0937,5.0757,5.0702,5.0701,5.0775,5.0846,5.0916,5.0909,5.0906,5.0906,5.0906,5.0906,5.0906,5.0906,5.0909,5.0893,5.0893,5.0877,5.0861,5.0863,5.0829,5.0775,5.0701,5.0702,0.0,0.0,0.0,0.0,0.0,0.0,5.0837,5.1279,5.1644,5.2373,5.3741,5.347,5.3503,5.4239,5.468,5.4882,5.4823,0.0,5.5402,0.0,0.0,0.0,5.5403,0.0,0.0,5.5403,5.5403,5.5403,5.5403,5.5403,5.5403,5.5403,5.5403,5.5403,5.5403,5.5403,5.5736,5.6302,5.6719,5.7491,5.8377,5.8831,5.909,5.9028,4.1449,4.2634,4.3716,4.4003,4.5881,4.7476,4.7716,4.8863,4.9929,5.044,5.0624,5.0702,5.0702,5.0702,5.0702,5.0702,5.0702,5.0702,5.0702,5.0702,5.0702,5.0702,5.0702,5.0702,5.0702,5.0702,5.0702,5.0702,5.0702,5.0702,5.0702,5.0702,5.0702,5.0702,5.0702,0.0,0.0,0.0,5.0883,5.115,5.1042,5.1159,5.1394,5.1394,5.1394,5.139,5.1252,5.1132,5.1008,5.0805,5.0739,5.072,5.0793,5.0863,5.0897,5.089,5.0906,5.0906,5.0906,5.0906,5.0906,5.0906,5.0906,5.0906,5.0906,5.0906,5.089,5.0897,5.0899,5.0846,5.072,5.0702,0.0,0.0,0.0,0.0,0.0,0.0,5.0991,5.1798,5.2088,5.282,5.4337,5.4687,5.4991,5.547,5.5527,5.5499,5.5434,5.5402,5.5402,0.0,0.0,5.5409,5.5409,0.0,5.5403,5.5403,5.5403,5.5403,5.5403,5.5403,5.5403,5.5403,5.5403,5.5403,5.5422,5.5575,5.6148,5.695,5.7829,5.8623,5.9388,6.0075,6.0038,5.9553,4.331,4.3961,4.4581,4.5048,0.0,4.7527,4.7826,4.8759,4.9558,4.9857,5.0355,5.0702,5.0702,5.0702,5.0702,5.0702,5.0702,5.0702,5.0702,5.0702,5.0702,5.0702,5.0702,5.0702,5.0702,5.0702,5.0702,5.0702,5.0702,5.0702,5.0702,5.0702,5.0702,5.0702,0.0,0.0,0.0,5.0721,5.0819,5.102,5.1008,5.1159,5.1394,5.1394,5.1394,5.139,5.1252,5.1195,5.1141,5.0959,5.0855,5.0793,5.0863,5.0877,5.089,5.0906,5.0906,5.0906,5.0906,5.0906,5.0906,5.0906,5.0906,5.0906,5.0906,5.0906,5.0906,5.089,5.0913,5.0846,5.072,5.0701,5.0702,0.0,0.0,0.0,0.0,0.0,5.0991,5.1798,5.2701,5.3586,5.4416,5.5268,5.5711,5.5618,5.5596,5.5551,5.548,5.548,5.5456,5.5383,5.5383,5.5383,5.5383,5.5409,5.5403,5.5403,5.5403,5.5403,5.5403,5.5403,5.5403,5.5403,5.5403,5.5403,5.546,5.6186,5.6988,5.7867,5.867,5.951,6.0274,6.037,6.0361,6.0237,0.0,0.0,0.0,0.0,0.0,0.0,0.0,4.8917,4.9327,4.9558,5.0057,5.0483,5.0683,5.0702,5.0702,5.0702,5.0702,5.0702,5.0702,5.0702,5.0702,5.0702,5.0702,5.0702,5.0702,5.0702,5.0702,0.0,5.0702,5.0702,5.0702,5.0702,5.0702,0.0,0.0,5.0702,5.0702,5.0702,5.0822,5.1008,5.1008,5.1159,5.1394,5.1394,5.1394,5.139,5.1333,5.1258,5.1195,5.1142,5.1037,5.0921,5.0897,5.0913,5.0906,5.0906,5.0906,5.0906,5.0906,5.0906,5.0906,5.0906,5.0906,5.0906,5.0906,5.0906,5.0906,5.0906,5.0913,5.0883,5.0829,5.0757,5.0701,0.0,0.0,0.0,0.0,0.0,0.0,5.3299,0.0,5.4362,5.5147,5.5555,5.5748,5.5662,5.5662,5.5643,5.563,5.558,5.5624,5.575,0.0,5.5508,5.5583,5.5456,5.539,5.5403,5.5403,5.5403,5.5403,5.5403,5.5403,5.5403,5.5403,5.567,5.6148,5.6473,5.739,5.8651,5.8975,5.9625,6.0389,6.0389,6.0389,6.0389,4.5344,0.0,4.6898,0.0,4.7882,4.855,4.8679,4.8906,4.9137,4.9315,4.9757,5.0202,5.0523,5.0624,5.0702,5.0702,5.0702,5.0702,5.0702,5.0702,5.0702,5.0702,5.0702,0.0,5.0702,5.0702,5.0702,5.0702,5.0702,0.0,0.0,0.0,0.0,0.0,5.0702,5.0702,5.0702,5.0702,5.0822,5.1008,5.1008,5.1159,5.1394,5.1394,5.1394,5.1394,5.1394,5.1333,5.1252,5.1289,5.12,5.1061,5.0975,5.0932,5.0906,5.0906,5.0906,5.0906,5.0906,5.0906,5.0906,5.0906,5.0906,5.0906,5.0906,5.0906,5.0906,5.0906,5.0893,5.0897,5.0899,5.0829,5.0757,5.0701,0.0,0.0,0.0,5.2125,0.0,5.4318,5.4534,5.4862,5.5626,5.5747,5.5728,5.5684,0.0,5.573,5.5672,5.5649,5.573,0.0,0.0,0.0,5.5668,5.5485,5.5402,5.5409,5.5403,5.5403,5.5403,5.5403,5.5403,5.5422,5.5651,5.6071,5.6625,5.7122,5.8039,5.9128,5.9376,5.9854,6.0389,6.0389,6.0389,6.0427,4.7176,4.747,4.7756,4.821,4.8401,4.8513,4.8513,4.8697,4.889,4.9182,4.956,4.991,5.0183,5.0504,5.0702,5.0702,5.0702,5.0702,5.0702,5.0702,5.0702,0.0,0.0,5.0702,5.0702,5.0702,5.0702,5.0702,0.0,0.0,5.0702,0.0,5.0702,5.0702,5.0702,5.0702,5.0702,5.0702,5.0822,5.1008,5.1008,5.1159,5.1394,5.1394,5.1394,5.1394,5.1394,5.1394,5.1386,5.1323,5.1288,5.1261,5.114,5.1022,5.0906,5.0906,5.0906,5.0906,5.0906,5.0906,5.0906,5.0906,5.0906,5.0906,5.0906,5.0906,5.0906,5.0906,5.0906,5.0909,5.0899,5.0899,5.0846,5.072,0.0,0.0,0.0,5.2645,0.0,5.4395,5.463,5.4956,5.5628,5.5808,5.5845,0.0,0.0,0.0,0.0,0.0,0.0,5.5618,5.5731,0.0,5.5596,5.548,5.5408,5.5408,5.539,5.5403,5.5403,5.5403,5.5403,5.5441,5.6243,5.6587,5.6721,5.8402,5.909,5.9205,6.0045,6.0389,6.0389,6.0389,6.0389,6.0504,4.7937,4.8035,4.8114,4.8267,4.8363,4.8401,4.8513,4.8532,4.8679,4.889,4.9363,4.9719,4.9917,5.0377,5.0702,0.0,5.0702,5.0702,0.0,5.0702,5.0702,5.0702,5.0702,5.0702,5.0702,5.0702,5.0702,5.0702,0.0,0.0,0.0,5.0702,5.0702,5.0702,5.0702,5.0702,5.0702,5.0702,5.0822,5.1008,5.1008,5.1159,5.1394,5.1394,5.1394,5.1394,5.1394,5.1394,5.1394,5.1375,5.1349,5.1281,5.125,5.1138,5.1022,5.0945,5.0906,5.0906,5.0906,5.0906,5.0906,5.0906,5.0906,5.0906,5.0906,5.0906,5.0906,5.0906,5.0906,5.089,5.0909,5.0897,5.1057,5.158,5.1836,0.0,5.3513,0.0,5.4395,5.5222,5.5362,5.5478,5.5686,5.5728,0.0,0.0,0.0,0.0,0.0,0.0,0.0,0.0,5.6097,0.0,5.5872,5.575,5.5585,5.5408,5.5402,5.5415,5.5422,5.5976,5.6224,5.6262,5.7122,5.7791,5.8345,5.888,5.9453,6.0007,6.0274,6.0389,6.0389,6.0389,6.0752,6.1249,4.8267,4.8306,4.8306,4.8306,4.8306,4.8306,4.8401,4.8457,4.855,4.8679,4.924,4.9626,4.9711,5.0313,0.0,5.0702,5.0702,5.0702,5.0702,5.0702,5.0702,5.0702,5.0702,5.0702,5.0702,5.0702,0.0,5.0702,5.0702,5.0702,5.0702,5.0702,5.0702,5.0702,5.0702,5.0856,5.1144,5.1144,5.1445,5.1923,5.1955,5.2105,5.2264,5.1991,5.1882,5.1843,5.1511,5.1394,5.1398,5.1394,5.1379,5.133,5.1312,5.1225,5.1108,5.1014,5.0945,5.0906,5.0906,5.0906,5.0906,5.0906,5.0906,5.0906,5.0906,5.0906,5.0906,5.0906,5.0906,5.1003,5.1331,5.1393,5.165,5.2464,5.2836,5.3359,5.4342,0.0,5.5166,0.0,0.0,0.0,0.0,5.5703,5.5728,0.0,0.0,0.0,0.0,0.0,0.0,5.6418,5.6261,0.0,5.6038,5.5872,5.5712,5.5561,5.5466,5.5599,5.5913,5.641,5.6804,5.7141,5.7982,5.8651,5.9128,5.9453,5.9911,6.0389,6.0389,6.0389,6.0427,6.0733,6.1172,6.1688,4.8394,4.8471,4.8453,0.0,4.8471,0.0,4.8471,4.8584,4.8678,4.8678,4.9281,4.9741,4.9769,5.0402,5.0836,5.0856,0.0,0.0,0.0,5.0702,5.0702,5.0702,5.0702,5.0702,5.0702,5.0702,5.0721,5.0779,5.0837,5.0856,5.0856,5.0856,5.0856,5.0856,5.0856,5.1298,5.1991,5.1991,5.255,5.3401,5.356,5.368,5.3724,5.3055,5.278,5.2683,5.1863,5.159,5.1574,5.157,5.1574,5.1576,5.1503,5.1437,5.1345,5.115,5.1022,5.0906,5.0906,5.0906,5.0906,5.0906,5.0906,5.0906,5.0906,5.0906,5.0925,5.0983,5.1003,5.1254,5.2124,5.2279,5.2553,5.337,5.4164,5.4669,5.4612,5.5306,5.5787,0.0,0.0,0.0,0.0,5.5703,5.5705,0.0,0.0,0.0,0.0,0.0,5.6261,5.6154,5.6252,5.6252,5.611,5.5939,5.5822,5.5806,5.5662,5.5979,5.6715,5.6805,5.7277,5.8039,5.8842,5.9205,5.9262,6.0064,6.0389,6.0408,6.0446,6.0465,6.058,6.1382,6.1726,6.2013,0.0,0.0,5.0207,5.0236,5.0215,5.0215,5.0215,5.0215,5.0254,5.0315,5.0745,5.1161,5.1479,5.1948,5.2337,5.2586,5.1433,5.0702,5.0702,5.0702,5.0702,5.0702,5.0702,5.0702,5.0702,5.0702,5.0991,5.1625,5.2279,5.2606,5.2606,5.2606,5.2606,5.2606,5.2606,5.2722,5.2895,5.2895,5.3089,5.3401,5.356,5.368,5.3783,5.3718,5.3698,5.3678,5.3463,5.3385,5.337,5.3388,5.3376,5.3378,5.3379,5.3315,5.299,5.1532,5.1022,5.0906,5.0906,5.0906,5.0906,5.0906,5.0906,5.0906,5.0906,5.0906,5.1099,5.1757,5.1892,5.2163,5.3033,5.3188,5.3478,5.4332,5.4587,5.4919,5.5557,5.577,5.5846,0.0,5.5766,5.5745,5.5684,5.5703,5.5789,0.0,0.0,0.0,0.0,5.6503,5.6503,5.6485,5.6503,5.6439,5.6261,5.6202,5.6065,5.5806,5.6387,5.6681,5.6822,5.8036,5.8719,5.8941,5.9729,6.0083,6.0102,6.0313,6.0389,6.0446,6.1077,6.1325,6.1421,6.228,6.3006,6.3637,5.0802,5.0787,5.079,5.0784,5.078,5.0798,5.0802,5.0802,5.0802,5.0864,5.1357,5.1807,5.2024,5.2565,5.2996,5.3182,5.2375,5.1837,5.1837,5.1837,5.1837,5.1837,5.1837,5.1837,5.1837,5.1837,5.2068,5.2491,5.2972,5.3203,5.3203,5.3203,5.3203,5.3203,5.3203,5.3414,5.3799,5.3799,5.4052,5.4476,5.4657,5.4793,5.483,5.4663,5.4596,5.4537,5.4147,5.399,5.3994,5.3993,5.4002,5.4004,5.4004,5.3957,5.3693,5.2638,5.1992,5.1486,5.1022,5.0906,5.0906,5.0906,5.0906,5.1003,5.1409,5.1486,5.1738,5.2608,5.2782,5.3053,5.3923,5.4097,5.4368,5.5219,5.5318,5.5457,5.5922,5.5962,0.0,5.5807,5.5787,5.5766,5.5703,5.5703,5.5768,5.5913,5.6015,0.0,5.6355,5.6523,5.6606,5.6606,5.6606,5.6553,5.6439,5.6742,5.6764,5.6536,5.7329,5.7834,5.8149,5.8952,5.9486,5.981,6.0261,6.0417,6.0389,6.0389,6.0618,6.0981,6.144,6.1841,6.2299,6.3178,6.379,6.4248,5.1169,5.1165,5.1142,5.1169,5.1165,5.1142,5.1169,5.1169,5.1169,5.1169,5.1817,5.234,5.2402,5.3066,5.3526,5.3568,5.3587,5.3472,5.3222,5.3203,5.3203,5.3203,5.3203,5.3203,5.3203,5.3337,5.3395,5.3395,5.353,5.3587,5.3587,5.3587,5.3587,5.3587,5.3587,5.3991,5.4684,5.4684,5.5068,5.5726,5.599,5.6097,5.6064,5.5646,5.5493,5.5396,5.4654,5.4381,5.4385,5.4398,5.4391,5.4394,5.4394,5.4355,5.4256,5.4047,5.3429,5.2605,5.1563,5.1293,5.1293,5.1312,5.1312,5.1486,5.2221,5.2395,5.2627,5.3517,5.3691,5.3962,5.4813,5.4987,5.52,5.5896,5.6012,5.5995,5.5998,0.0,5.5943,5.5826,5.5826,5.5787,5.5703,5.5703,5.5705,5.5726,5.5959,5.611,5.6122,5.6425,5.6665,5.6782,5.6665,5.6665,5.6782,5.7473,5.777,5.7631,5.837,5.9066,5.9708,5.963,5.9945,6.0525,6.0525,6.0472,6.0417,6.0551,6.0981,6.1631,6.1898,6.2433,6.3197,6.4057,6.4382,6.4477,5.2839,5.2858,5.2815,5.2839,5.2858,5.2815,5.2839,5.2839,5.2863,5.2909,5.3386,5.383,5.4151,5.4645,5.5054,5.5278,5.5299,5.4703,5.3299,5.3203,5.3203,5.3203,5.3203,5.3203,5.3203,5.3914,5.4299,5.4299,5.4972,5.5299,5.5299,5.5299,5.5299,5.5299,5.5299,5.5395,5.5511,5.5511,5.5588,5.5726,5.599,5.6097,5.6122,5.6329,5.6391,5.6372,5.6255,5.6196,5.6196,5.62,5.6202,5.6191,5.6191,5.6191,5.5994,5.5087,5.4796,5.4506,5.3401,5.3091,5.3111,5.3166,5.313,5.313,5.3265,5.3304,5.3556,5.4426,5.46,5.4851,5.5664,5.5818,5.5857,5.5993,5.6012,5.6012,5.5995,0.0,5.5959,5.5885,5.5885,5.5826,5.5724,5.5703,5.5748,5.5863,5.602,5.6146,5.6261,5.6472,5.6918,5.7582,5.6957,5.6938,5.7601,5.8451,5.8806,5.8686,5.9419,5.9766,5.9804,6.0269,6.057,6.068,6.0604,6.0552,6.0529,6.1218,6.1534,6.1745,6.3216,6.3866,6.4095,6.4898,6.5203,6.5222,5.3206,5.3206,5.3206,5.3206,5.3206,5.3206,5.3206,5.3206,5.3295,5.3526,5.3979,5.442,5.4819,5.5256,5.5573,5.5703,5.5703,5.5376,5.4607,5.4549,5.4549,5.4549,5.4549,5.4549,5.4549,5.5017,5.5229,5.5145,5.5511,5.5703,5.5703,5.5703,5.5703,5.5703,5.5703,5.5703,5.5703,5.5703,5.5703,5.5726,5.5913,5.6049,5.6122,5.6355,5.6503,5.6606,5.6606,5.6606,5.6606,5.6606,5.6605,5.6599,5.6601,5.6593,5.6503,5.5964,5.5113,5.4233,5.3768,5.3654,5.3657,5.3604,5.3575,5.3672,5.4097,5.4194,5.4445,5.5277,5.5451,5.5567,5.5935,5.6012,5.6012,5.6012,5.6012,0.0,0.0,5.6012,5.5977,5.5905,5.5905,5.5865,5.5724,5.5703,5.5748,5.5898,5.6015,5.6372,5.697,5.7161,5.7621,5.848,5.8148,5.8128,5.8499,5.9358,5.9778,5.9729,6.0458,6.0779,6.0714,6.0828,6.0839,6.0795,6.069,6.0853,6.1188,6.1551,6.2204,6.3083,6.3885,6.4458,6.4879,6.5261,6.5394,6.5394,5.3206,5.3206,5.3206,5.3206,5.3206,5.3206,5.3206,5.3272,5.3462,5.3796,5.4288,5.475,5.5107,5.5489,5.5703,5.5703,5.5703,5.5703,5.5703,5.5703,5.5703,5.5703,5.5703,5.5703,5.5703,5.5808,5.5789,5.5703,5.5703,5.5703,5.5703,5.5703,5.5703,5.5703,5.5703,5.5703,5.5703,5.5703,5.5703,5.5705,5.588,5.6005,5.611,5.6299,5.6472,5.6606,5.6606,5.6606,5.6606,5.6606,5.6598,5.6595,5.6601,5.6605,5.6586,5.6528,5.5449,5.4307,5.4404,5.4388,5.4353,5.4258,5.4204,5.4368,5.4987,5.5103,5.5258,5.5915,5.6031,5.6012,5.6012,5.6012,5.6012,5.6012,0.0,0.0,0.0,5.6012,5.5977,5.5905,5.5905,5.5865,5.5724,5.5703,5.5824,5.6116,5.6311,5.6827,5.7809,5.8013,5.8499,5.9378,5.9397,5.9397,5.9397,6.0276,6.0705,6.0705,6.1241,6.149,6.1481,6.1155,6.108,6.1215,6.1077,6.1403,6.2065,6.2249,6.3073,6.424,6.4401,6.4859,6.5394,6.5394,6.5394,6.5394,5.3206,5.3206,5.3206,5.3206,5.3206,5.3206,5.3206,5.3462,5.3758,5.3961,5.4566,5.5045,5.5243,5.5531,5.5703,5.5703,5.5703,5.5703,5.5703,5.5703,5.5703,5.5703,5.5703,5.5703,5.5703,5.5705,5.5705,5.5703,5.5703,5.5703,5.5703,5.5703,5.5703,5.5703,5.5703,5.5703,5.5703,5.5703,5.5703,5.5726,5.5975,5.6084,5.6122,5.6459,5.6582,5.6606,5.6606,5.6606,5.6606,5.6606,5.6598,5.6595,5.6601,5.6601,5.6588,5.6509,5.6399,5.6283,5.6302,5.6214,5.6113,5.6095,5.6045,5.6012,5.6089,5.5993,5.5954,5.6147,5.6089,5.6012,5.6012,5.6012,5.6012,5.6012,0.0,0.0,5.6012,5.6012,5.5977,5.5905,5.5905,5.5865,5.5724,5.5703,5.6051,5.686,5.716,5.7684,5.8577,5.8862,5.9397,6.0276,6.0295,6.0295,6.0295,6.1174,6.1603,6.1603,6.1534,6.149,6.1481,6.1155,6.1447,6.2201,6.207,6.2406,6.3137,6.389,6.423,6.4355,6.5042,6.5356,6.5394,6.5394,6.5394,6.5394,5.3206,5.3206,5.3206,5.3206,5.3206,5.3272,5.3502,5.3623,5.3906,5.4535,5.4838,5.5153,5.5508,5.564,5.5703,5.5703,5.5703,5.5703,5.5703,5.5703,5.5703,5.5703,5.5769,5.5789,5.5684,5.5769,5.5789,5.5703,5.5703,5.5703,5.5703,5.5703,5.5703,5.5703,5.5703,5.5703,5.5703,5.5703,5.5703,5.5705,5.5896,5.6035,5.6122,5.6336,5.6497,5.6606,5.6606,5.6606,5.6606,5.6606,5.6591,5.6602,5.66,5.6601,5.6581,5.6567,5.6566,5.6556,5.6569,5.6519,5.6484,5.6426,5.6407,5.636,5.6283,5.6209,5.6194,5.6256,5.6225,5.6186,5.6186,5.6147,5.6128,5.6128,0.0,5.6012,5.6012,5.6012,5.5977,5.5905,5.5905,5.5865,5.5724,5.6184,5.6714,5.7221,5.7848,5.8659,5.9704,6.0366,6.0861,6.1193,6.1213,6.1213,6.1213,6.1525,6.1701,6.1701,6.166,6.1628,6.1641,6.1965,6.2235,6.2458,6.2859,6.3399,6.4027,6.4346,6.4734,6.513,6.5408,6.5494,6.5465,6.5465,6.5425,6.5394,5.3206,5.3206,5.3206,5.3206,5.3272,5.3422,5.3643,5.3906,5.4307,5.4914,5.5126,5.5326,5.5662,5.5703,5.5703,5.5703,5.5703,5.5703,5.5703,5.5703,5.5703,5.5703,5.5789,5.5789,5.5684,5.5789,5.5789,5.5703,5.5703,5.5703,5.5703,5.5703,5.5703,5.5703,5.5703,5.5703,5.5703,5.5703,5.5703,5.5705,5.5879,5.602,5.6122,5.6327,5.6478,5.6606,5.6606,5.6606,5.6606,5.6606,5.6606,5.6591,5.6598,5.6601,5.6601,5.6601,5.6601,5.6612,5.6593,5.6601,5.6582,5.6523,5.6497,5.6479,5.6372,5.6324,5.6309,5.6345,5.6337,5.6306,5.6306,5.6267,5.6238,5.6222,5.6147,5.607,5.607,5.6033,5.5979,5.5905,5.5885,5.5923,5.609,5.6646,5.7313,5.809,5.875,5.9619,6.0759,6.1388,6.1701,6.1701,6.1701,6.1701,6.1701,6.1701,6.1701,6.1701,6.1974,6.211,6.2125,6.284,6.3219,6.3347,6.3784,6.4337,6.4936,6.491,6.521,6.5655,6.5627,6.5552,6.5494,6.5494,6.5454,6.5394,5.3206,5.3206,5.3206,5.3206,5.3484,5.372,5.372,5.4373,5.4933,5.4998,5.535,5.5618,5.5684,5.5703,5.5703,5.5703,5.5703,5.5703,5.5703,5.5703,5.5703,5.5703,5.5703,5.5703,5.5703,5.5703,5.5703,5.5703,5.5703,5.5703,5.5703,5.5703,5.5703,5.5703,5.5703,5.5703,5.5703,5.5703,5.5703,5.5726,5.599,5.6097,5.6142,5.6465,5.6606,5.6606,5.6606,5.6606,5.6606,5.6606,5.6606,5.661,5.6607,5.6599,5.6601,5.6601,5.6601,5.6601,5.6601,5.6601,5.6582,5.6523,5.6504,5.6507,5.65,5.6401,5.6342,5.6463,5.6387,5.6297,5.6297,5.6297,5.631,5.6291,5.6225,5.6205,5.6205,5.6093,5.5981,5.5924,5.5846,5.6113,5.6937,5.7033,5.7792,5.9667,5.9929,6.0514,6.1637,6.1701,6.1701,6.1701,6.1701,6.1701,6.1701,6.1701,6.1701,6.172,6.2598,6.3008,6.3028,6.3698,6.4407,6.5095,6.4908,6.5228,6.5897,6.582,6.5793,6.5793,6.5655,6.5552,6.5494,6.5494,6.5454,6.5394,5.3962,5.3962,5.3962,5.3962,5.4052,5.4193,5.4444,5.4727,5.5018,5.532,5.5485,5.5618,5.5684,5.5703,5.5703,5.5703,5.5703,5.5703,5.5703,5.5703,5.5703,5.5703,5.5789,5.5845,5.5845,5.5845,5.5789,5.5703,5.5703,5.5703,5.5703,5.5703,5.5703,5.5703,5.5703,5.5703,5.5703,5.5703,5.5748,5.5864,5.6035,5.6158,5.6261,5.6503,5.6606,5.6606,5.6606,5.6606,5.6606,5.6606,5.6606,5.6591,5.6598,5.6601,5.6601,5.6601,5.6601,5.6601,5.6601,5.6601,5.6601,5.6582,5.6562,5.6561,5.6567,5.6536,5.6515,5.6562,5.6539,5.6512,5.6512,5.6473,5.6445,5.6441,5.6327,5.6246,5.6201,5.6133,5.6252,5.6753,5.6848,5.7174,5.7969,5.8607,5.9276,6.002,6.0779,6.1329,6.1676,6.1701,6.1701,6.1701,6.1701,6.1701,6.1701,6.1701,6.2013,6.2618,6.2872,6.3321,6.3945,6.4749,6.516,6.5263,6.5673,6.5915,6.6041,6.5909,6.5872,6.5872,6.5827,6.5774,6.572,6.572,6.5646,6.5523,5.4315,5.4315,5.4315,5.4315,5.4712,5.5082,5.5329,5.5836,5.6255,5.652,5.6633,5.6678,5.6722,5.6722,5.6722,5.6722,5.6722,5.6722,5.6722,5.6722,5.6788,5.6887,5.6953,5.6659,5.5915,5.5943,5.5946,5.5863,5.5808,5.5769,5.5769,5.5726,5.5703,5.5703,5.5703,5.5703,5.5703,5.5703,5.5769,5.5913,5.6063,5.6181,5.6316,5.6528,5.6606,5.6606,5.6606,5.6606,5.6606,5.6606,5.6606,5.6591,5.6593,5.6598,5.66,5.6601,5.6601,5.6601,5.6601,5.6601,5.6601,5.6601,5.6601,5.6601,5.6601,5.6601,5.6601,5.6601,5.6601,5.6601,5.6601,5.6562,5.6543,5.6543,5.6448,5.6478,5.6756,5.6708,5.695,5.7744,5.785,5.8172,5.8994,5.9575,6.0109,6.0663,6.1335,6.1701,6.1701,6.1701,6.1701,6.1701,6.1701,6.1876,6.2208,6.2208,6.2481,6.3008,6.3691,6.4297,6.4843,6.5682,6.5978,6.5825,6.6159,6.6217,6.6088,6.5962,6.5897,6.5897,6.5897,6.5846,6.5793,6.5793,6.572,6.5608,5.4623,5.4623,5.4623,5.4623,5.5536,5.631,5.6349,5.7359,5.8136,5.8208,5.8254,5.83,5.83,5.83,5.83,5.83,5.83,5.83,5.83,5.83,5.8413,5.8644,5.8686,5.7892,5.6184,5.6276,5.633,5.631,5.6195,5.613,5.6112,5.6,5.5934,5.5934,5.5934,5.5934,5.5934,5.5934,5.602,5.6162,5.6276,5.6414,5.6566,5.6743,5.6782,5.6704,5.6704,5.6665,5.6606,5.6606,5.6606,5.6606,5.6606,5.6598,5.6593,5.66,5.6601,5.6601,5.6601,5.6601,5.6601,5.6601,5.6601,5.6601,5.6601,5.6601,5.6601,5.6601,5.6601,5.6601,5.6601,5.6601,5.6621,5.6699,5.666,5.6893,5.7706,5.77,5.7949,5.8803,5.8868,5.9186,6.0048,6.0139,6.0538,6.1422,6.1628,6.1701,6.1701,6.1701,6.1701,6.1701,6.1779,6.2208,6.2989,6.3145,6.3223,6.3243,6.4843,6.5643,6.5722,6.6463,6.6727,6.6605,6.6386,6.6217,6.6108,6.5962,6.5897,6.5897,6.5897,6.5872,6.5793,6.5793,6.5747,6.5627,5.713,5.7194,5.7248,5.7213,5.7447,5.7666,5.7685,5.7958,5.8165,5.8208,5.8254,5.83,5.83,5.83,5.83,5.83,5.83,5.83,5.83,5.83,5.8325,5.8392,5.8587,5.8512,5.8101,5.8234,5.815,5.7833,5.7891,5.7873,5.7769,5.7745,5.7742,5.7742,5.7742,5.7742,5.7742,5.7742,5.7873,5.8115,5.8123,5.8286,5.8504,5.8534,5.8128,5.7543,5.7543,5.7133,5.6606,5.6606,5.6606,5.6606,5.6606,5.661,5.6595,5.6598,5.6595,5.6601,5.6601,5.6601,5.6601,5.6601,5.6597,5.6598,5.6598,5.661,5.6597,5.6597,5.66,5.6601,5.6601,5.6601,5.6816,5.7519,5.7608,5.7871,5.8602,5.8655,5.8896,5.9717,5.9852,6.0215,6.1091,6.1272,6.1393,6.149,6.1628,6.1701,6.1701,6.1701,6.1701,6.1701,6.2364,6.2813,6.3008,6.4355,6.5038,6.5038,6.5429,6.5936,6.6541,6.6717,6.679,6.6733,6.6426,6.6264,6.6234,6.5994,6.5897,6.5897,6.5897,6.5897,6.5872,6.5872,6.5872,6.5827,5.8017,5.8067,5.8092,5.8067,5.8374,5.8692,5.8717,5.9086,5.9403,5.9446,5.9469,5.9492,5.9492,5.9492,5.9492,5.9492,5.9492,5.9492,5.9492,5.9492,5.9565,5.9668,5.9817,5.9931,6.0044,6.0164,5.9737,5.8672,5.8614,5.8554,5.8489,5.837,5.83,5.83,5.8371,5.8393,5.8393,5.847,5.8599,5.8799,5.8799,5.8916,5.9104,5.9104,5.8812,5.8421,5.8421,5.8148,5.7797,5.7797,5.7523,5.7172,5.7172,5.6918,5.6606,5.6598,5.6593,5.66,5.6601,5.6599,5.669,5.712,5.7207,5.7074,5.6684,5.6595,5.6602,5.6602,5.692,5.7222,5.7226,5.7558,5.7988,5.8457,5.8521,5.8792,5.9566,5.9644,5.9927,6.0768,6.089,6.1088,6.1556,6.166,6.1666,6.1595,6.1666,6.1701,6.1701,6.1701,6.1896,6.2306,6.2755,6.3399,6.4238,6.5136,6.58,6.617,6.617,6.6385,6.6795,6.6795,6.6795,6.679,6.6546,6.6392,6.6279,6.6067,6.5962,6.5897,6.5897,6.5897,6.5897,6.5897,6.5897,6.5897,5.8539,5.8539,5.8563,5.8539,5.9095,5.958,5.961,6.0248,6.0753,6.08,6.08,6.08,6.08,6.08,6.08,6.08,6.08,6.08,6.08,6.08,6.0922,6.1162,6.1192,6.1292,6.151,6.1628,6.0968,5.9463,5.9268,5.9173,5.9114,5.8896,5.8815,5.8796,5.8895,5.8964,5.8964,5.9085,5.9215,5.9337,5.9337,5.9423,5.9534,5.9534,5.9456,5.9319,5.9319,5.9222,5.9104,5.9104,5.8616,5.8011,5.8011,5.7562,5.704,5.7034,5.704,5.7024,5.7031,5.7044,5.7196,5.7948,5.8065,5.7855,5.7172,5.7035,5.7035,5.7035,5.7606,5.8105,5.8123,5.8711,5.9258,5.9374,5.9419,5.969,6.0505,6.0622,6.0895,6.1603,6.1701,6.1701,6.1701,6.1701,6.1701,6.1701,6.1701,6.1701,6.1701,6.1837,6.2247,6.2989,6.3282,6.414,6.5585,6.5741,6.6131,6.6795,6.6795,6.6795,6.6795,6.6795,6.6795,6.6795,6.6661,6.6521,6.6344,6.6167,6.6041,6.5933,6.5923,6.5897,6.5897,6.5897,6.5897,6.5897,6.0284,6.0359,6.0407,6.0359,6.0503,6.0604,6.0627,6.0723,6.08,6.08,6.08,6.08,6.08,6.08,6.08,6.08,6.08,6.08,6.08,6.08,6.0856,6.1001,6.1132,6.1292,6.151,6.1628,6.1451,6.091,6.105,6.1028,6.0856,6.0813,6.0817,6.0817,6.0828,6.0828,6.0828,6.0856,6.0973,6.114,6.114,6.1229,6.1349,6.1349,6.0881,6.0217,6.0217,5.9749,5.9104,5.9104,5.9026,5.8929,5.8909,5.8851,5.8777,5.8836,5.8808,5.8763,5.8827,5.8805,5.8792,5.8987,5.8963,5.8905,5.8792,5.8753,5.8753,5.8753,5.8866,5.8951,5.9019,5.9116,5.9432,6.0112,6.0233,6.0549,6.1408,6.1525,6.1564,6.1701,6.1701,6.1701,6.1701,6.1701,6.1701,6.1701,6.1701,6.1701,6.1701,6.2403,6.2872,6.3008,6.4453,6.5351,6.5604,6.6288,6.6697,6.6795,6.6795,6.6795,6.6795,6.6795,6.6795,6.6795,6.6661,6.6585,6.6532,6.6221,6.6088,6.6065,6.5958,6.5897,6.5897,6.5897,6.5897,6.5897,6.0729,6.0753,6.08,6.0757,6.0777,6.08,6.08,6.08,6.08,6.08,6.08,6.08,6.08,6.08,6.08,6.08,6.08,6.08,6.08,6.0877,6.0983,6.112,6.1285,6.1432,6.1621,6.1666,6.1634,6.1489,6.15,6.1452,6.1379,6.1246,6.1206,6.1186,6.1324,6.1379,6.1359,6.1442,6.1534,6.1602,6.1602,6.166,6.1701,6.1701,6.1466,6.1134,6.1134,6.0881,6.0549,6.0549,6.0237,5.9827,5.9827,5.9495,5.9104,5.9143,5.9117,5.9107,5.9185,5.9143,5.9211,5.9749,5.9841,5.9944,6.0432,6.0549,6.0276,5.93,5.9491,5.9837,5.9856,6.0272,6.0701,6.1061,6.1124,6.126,6.1642,6.1701,6.1701,6.1701,6.1701,6.1701,6.1701,6.1701,6.1701,6.1701,6.2149,6.2423,6.2423,6.3243,6.3945,6.4433,6.5194,6.5819,6.6268,6.6619,6.6795,6.6795,6.6795,6.6795,6.6795,6.6795,6.6795,6.6795,6.6746,6.6661,6.6585,6.6318,6.6167,6.6088,6.5938,6.5897,6.5897,6.5897,6.5897,6.5897]},{"header":{"parameterUnit":"m.s-1","parameterCategory":1,"la1":30.6,"la2":28.766,"lo1":-90.7593,"lo2":-88.6598,"dy":0.0162,"dx":0.0183,"nx":116,"ny":114,"refTime":"2024-03-22T06:00:00:Z","depth":0,"parameterNumber":3,"parameterNumberName":"V-component_of_WINDS"},"data":[0.0,0.0,0.0,0.0,0.0,0.0,0.0,0.0,0.0,0.0,0.0,0.0,0.0,0.0,0.0,0.0,0.0,0.0,0.0,0.0,0.0,0.0,0.0,0.0,0.0,0.0,0.0,0.0,0.0,0.0,0.0,0.0,0.0,0.0,0.0,0.0,0.0,0.0,0.0,0.0,0.0,0.0,0.0,0.0,0.0,0.0,0.0,0.0,0.0,0.0,0.0,0.0,0.0,0.0,0.0,0.0,0.0,0.0,0.0,0.0,0.0,0.0,0.0,0.0,0.0,0.0,0.0,0.0,0.0,0.0,0.0,0.0,0.0,0.0,0.0,0.0,0.0,0.0,0.0,0.0,0.0,0.0,0.0,0.0,0.0,0.0,0.0,0.0,0.0,0.0,0.0,0.0,0.0,0.0,0.0,0.0,0.0,0.0,0.0,0.0,0.0,0.0,0.0,0.0,0.0,0.0,0.0,0.0,0.0,0.0,0.0,0.0,0.0,0.0,0.0,0.0,0.0,0.0,0.0,0.0,0.0,0.0,0.0,0.0,0.0,0.0,0.0,0.0,0.0,0.0,0.0,0.0,0.0,0.0,0.0,0.0,0.0,0.0,0.0,0.0,0.0,0.0,0.0,0.0,0.0,0.0,0.0,0.0,0.0,0.0,0.0,0.0,0.0,0.0,0.0,0.0,0.0,0.0,0.0,0.0,0.0,0.0,0.0,0.0,0.0,0.0,0.0,0.0,0.0,0.0,0.0,0.0,0.0,0.0,0.0,0.0,0.0,0.0,0.0,0.0,0.0,0.0,0.0,0.0,0.0,0.0,0.0,0.0,0.0,0.0,0.0,0.0,0.0,0.0,0.0,0.0,0.0,0.0,0.0,0.0,0.0,0.0,0.0,0.0,0.0,0.0,0.0,0.0,0.0,0.0,0.0,0.0,0.0,0.0,0.0,0.0,0.0,0.0,0.0,0.0,0.0,0.0,0.0,0.0,0.0,0.0,0.0,0.0,0.0,0.0,0.0,0.0,0.0,0.0,0.0,0.0,0.0,0.0,0.0,0.0,0.0,0.0,0.0,0.0,0.0,0.0,0.0,0.0,0.0,0.0,0.0,0.0,0.0,0.0,0.0,0.0,0.0,0.0,0.0,0.0,0.0,0.0,0.0,0.0,0.0,0.0,0.0,0.0,0.0,0.0,0.0,0.0,0.0,0.0,0.0,0.0,0.0,0.0,0.0,0.0,0.0,0.0,0.0,0.0,0.0,0.0,0.0,0.0,0.0,0.0,0.0,0.0,0.0,0.0,0.0,0.0,0.0,0.0,0.0,0.0,0.0,0.0,0.0,0.0,0.0,0.0,0.0,0.0,0.0,0.0,0.0,0.0,0.0,0.0,0.0,0.0,0.0,0.0,0.0,0.0,0.0,0.0,0.0,0.0,0.0,0.0,0.0,0.0,0.0,0.0,0.0,0.0,0.0,0.0,0.0,0.0,0.0,0.0,0.0,0.0,0.0,0.0,0.0,0.0,0.0,0.0,0.0,0.0,0.0,0.0,0.0,0.0,0.0,0.0,0.0,0.0,0.0,0.0,0.0,0.0,0.0,0.0,0.0,0.0,0.0,0.0,0.0,0.0,0.0,0.0,0.0,0.0,0.0,0.0,0.0,0.0,0.0,0.0,0.0,0.0,0.0,0.0,0.0,0.0,0.0,0.0,0.0,0.0,0.0,0.0,0.0,0.0,0.0,0.0,0.0,0.0,0.0,0.0,0.0,0.0,0.0,0.0,0.0,0.0,0.0,0.0,0.0,0.0,0.0,0.0,0.0,0.0,0.0,0.0,0.0,0.0,0.0,0.0,0.0,0.0,0.0,0.0,0.0,0.0,0.0,0.0,0.0,0.0,0.0,0.0,0.0,0.0,0.0,0.0,0.0,0.0,0.0,0.0,0.0,0.0,0.0,0.0,0.0,0.0,0.0,0.0,0.0,0.0,0.0,0.0,0.0,0.0,0.0,0.0,0.0,0.0,0.0,0.0,0.0,0.0,0.0,0.0,0.0,0.0,0.0,0.0,0.0,0.0,0.0,0.0,0.0,0.0,0.0,0.0,0.0,0.0,0.0,0.0,0.0,0.0,0.0,0.0,0.0,0.0,0.0,0.0,0.0,0.0,0.0,0.0,0.0,0.0,0.0,0.0,0.0,0.0,0.0,0.0,0.0,0.0,0.0,0.0,0.0,0.0,0.0,0.0,0.0,0.0,0.0,0.0,0.0,0.0,0.0,0.0,0.0,0.0,0.0,0.0,0.0,0.0,0.0,0.0,0.0,0.0,0.0,0.0,0.0,0.0,0.0,0.0,0.0,0.0,0.0,0.0,0.0,0.0,0.0,0.0,0.0,0.0,0.0,0.0,0.0,0.0,0.0,0.0,0.0,0.0,0.0,0.0,0.0,0.0,0.0,0.0,0.0,0.0,0.0,0.0,0.0,0.0,0.0,0.0,0.0,0.0,0.0,0.0,0.0,0.0,0.0,0.0,0.0,0.0,0.0,0.0,0.0,0.0,0.0,0.0,0.0,0.0,0.0,0.0,0.0,0.0,0.0,0.0,0.0,0.0,0.0,0.0,0.0,0.0,0.0,0.0,0.0,0.0,0.0,0.0,0.0,0.0,0.0,0.0,0.0,0.0,0.0,0.0,0.0,0.0,0.0,0.0,0.0,0.0,0.0,0.0,0.0,0.0,0.0,0.0,0.0,0.0,0.0,0.0,0.0,0.0,0.0,0.0,0.0,0.0,0.0,0.0,0.0,0.0,0.0,0.0,0.0,0.0,0.0,0.0,0.0,0.0,0.0,0.0,0.0,0.0,0.0,0.0,0.0,0.0,0.0,0.0,0.0,0.0,0.0,0.0,0.0,0.0,0.0,0.0,0.0,0.0,0.0,0.0,0.0,0.0,0.0,0.0,0.0,0.0,0.0,0.0,0.0,0.0,0.0,0.0,0.0,0.0,0.0,0.0,0.0,0.0,0.0,0.0,0.0,0.0,0.0,0.0,0.0,0.0,0.0,0.0,0.0,0.0,0.0,0.0,0.0,0.0,0.0,0.0,0.0,0.0,0.0,0.0,0.0,0.0,0.0,0.0,0.0,0.0,0.0,0.0,0.0,0.0,0.0,0.0,0.0,0.0,0.0,0.0,0.0,0.0,0.0,0.0,0.0,0.0,0.0,0.0,0.0,0.0,0.0,0.0,0.0,0.0,0.0,0.0,0.0,0.0,0.0,0.0,0.0,0.0,0.0,0.0,0.0,0.0,0.0,0.0,0.0,0.0,0.0,0.0,0.0,0.0,0.0,0.0,0.0,0.0,0.0,0.0,0.0,0.0,0.0,0.0,0.0,0.0,0.0,0.0,0.0,0.0,0.0,0.0,0.0,0.0,0.0,0.0,0.0,0.0,0.0,0.0,0.0,0.0,0.0,0.0,0.0,0.0,0.0,0.0,0.0,0.0,0.0,0.0,0.0,0.0,0.0,0.0,0.0,0.0,0.0,0.0,0.0,0.0,0.0,0.0,0.0,0.0,0.0,0.0,0.0,0.0,0.0,0.0,0.0,0.0,0.0,0.0,0.0,0.0,0.0,0.0,0.0,0.0,0.0,0.0,0.0,0.0,0.0,0.0,0.0,0.0,0.0,0.0,0.0,0.0,0.0,0.0,0.0,0.0,0.0,0.0,0.0,0.0,0.0,0.0,0.0,0.0,0.0,0.0,0.0,0.0,0.0,0.0,0.0,0.0,0.0,0.0,0.0,0.0,0.0,0.0,0.0,0.0,0.0,0.0,0.0,0.0,0.0,0.0,0.0,0.0,0.0,0.0,0.0,0.0,0.0,0.0,0.0,0.0,0.0,0.0,0.0,0.0,0.0,0.0,0.0,0.0,0.0,0.0,0.0,0.0,0.0,0.0,0.0,0.0,0.0,0.0,0.0,0.0,0.0,0.0,0.0,0.0,0.0,0.0,0.0,0.0,0.0,0.0,0.0,0.0,0.0,0.0,0.0,0.0,0.0,0.0,0.0,0.0,0.0,0.0,0.0,0.0,0.0,0.0,0.0,0.0,0.0,0.0,0.0,0.0,0.0,0.0,0.0,0.0,0.0,0.0,0.0,0.0,0.0,0.0,0.0,0.0,0.0,0.0,0.0,0.0,0.0,0.0,0.0,0.0,0.0,0.0,0.0,0.0,0.0,0.0,0.0,0.0,0.0,0.0,0.0,0.0,0.0,0.0,0.0,0.0,0.0,0.0,0.0,0.0,0.0,0.0,0.0,0.0,0.0,0.0,0.0,0.0,0.0,0.0,0.0,0.0,0.0,0.0,0.0,0.0,0.0,0.0,0.0,0.0,0.0,0.0,0.0,0.0,0.0,0.0,0.0,0.0,0.0,0.0,0.0,0.0,0.0,0.0,0.0,0.0,0.0,0.0,0.0,0.0,0.0,0.0,0.0,0.0,0.0,0.0,0.0,0.0,0.0,0.0,0.0,0.0,0.0,0.0,0.0,0.0,0.0,0.0,0.0,0.0,0.0,0.0,0.0,0.0,0.0,0.0,0.0,0.0,0.0,0.0,0.0,0.0,0.0,0.0,0.0,0.0,0.0,0.0,0.0,0.0,0.0,0.0,0.0,0.0,0.0,0.0,0.0,0.0,0.0,0.0,0.0,0.0,0.0,0.0,0.0,0.0,0.0,0.0,0.0,0.0,0.0,0.0,0.0,0.0,0.0,0.0,0.0,0.0,0.0,0.0,0.0,0.0,0.0,0.0,0.0,0.0,0.0,0.0,0.0,0.0,0.0,0.0,0.0,0.0,0.0,0.0,0.0,0.0,0.0,0.0,0.0,0.0,0.0,0.0,0.0,0.0,0.0,0.0,0.0,0.0,0.0,0.0,0.0,0.0,0.0,0.0,0.0,0.0,0.0,0.0,0.0,0.0,0.0,0.0,0.0,0.0,0.0,0.0,0.0,0.0,0.0,0.0,0.0,0.0,0.0,0.0,0.0,0.0,0.0,0.0,0.0,0.0,0.0,0.0,0.0,0.0,0.0,0.0,0.0,0.0,0.0,0.0,0.0,0.0,0.0,0.0,0.0,0.0,0.0,0.0,0.0,0.0,0.0,0.0,0.0,0.0,0.0,0.0,0.0,0.0,0.0,0.0,0.0,0.0,0.0,0.0,0.0,0.0,0.0,0.0,0.0,0.0,0.0,0.0,0.0,0.0,0.0,0.0,0.0,0.0,0.0,0.0,0.0,0.0,0.0,0.0,0.0,0.0,0.0,0.0,0.0,0.0,0.0,0.0,0.0,0.0,0.0,0.0,0.0,0.0,0.0,0.0,0.0,0.0,0.0,0.0,0.0,0.0,0.0,0.0,0.0,0.0,0.0,0.0,0.0,0.0,0.0,0.0,0.0,0.0,0.0,0.0,0.0,0.0,0.0,0.0,0.0,0.0,0.0,0.0,0.0,0.0,0.0,0.0,0.0,0.0,0.0,0.0,0.0,0.0,0.0,0.0,0.0,0.0,0.0,0.0,0.0,0.0,0.0,0.0,0.0,0.0,0.0,0.0,0.0,0.0,0.0,0.0,0.0,0.0,0.0,0.0,0.0,0.0,0.0,0.0,0.0,0.0,0.0,0.0,0.0,0.0,0.0,0.0,0.0,0.0,0.0,0.0,0.0,0.0,0.0,0.0,0.0,0.0,0.0,0.0,0.0,0.0,0.0,0.0,0.0,0.0,0.0,0.0,0.0,0.0,0.0,0.0,0.0,0.0,0.0,0.0,0.0,0.0,0.0,0.0,0.0,0.0,0.0,0.0,0.0,0.0,0.0,0.0,0.0,0.0,0.0,0.0,0.0,0.0,0.0,0.0,0.0,0.0,0.0,0.0,0.0,0.0,0.0,0.0,0.0,0.0,0.0,0.0,0.0,0.0,0.0,0.0,0.0,0.0,0.0,0.0,0.0,0.0,0.0,0.0,0.0,0.0,0.0,0.0,0.0,0.0,0.0,0.0,0.0,0.0,0.0,0.0,0.0,0.0,0.0,0.0,0.0,0.0,0.0,0.0,0.0,0.0,0.0,0.0,0.0,0.0,-2.4735,-2.4152,0.0,0.0,0.0,0.0,0.0,0.0,0.0,0.0,0.0,0.0,0.0,0.0,0.0,0.0,0.0,0.0,0.0,0.0,0.0,0.0,0.0,0.0,0.0,-2.2185,-2.2097,-2.2097,-2.2008,0.0,0.0,0.0,0.0,0.0,0.0,0.0,-2.1741,-2.1741,-2.1741,-2.1741,-2.1741,-2.1553,-2.1365,-2.0085,-1.9546,-1.9463,0.0,0.0,0.0,0.0,0.0,0.0,0.0,0.0,0.0,0.0,0.0,0.0,0.0,0.0,0.0,0.0,0.0,0.0,0.0,0.0,0.0,0.0,0.0,0.0,0.0,0.0,0.0,0.0,0.0,0.0,0.0,0.0,0.0,0.0,0.0,0.0,0.0,0.0,0.0,0.0,0.0,0.0,0.0,0.0,0.0,0.0,0.0,0.0,0.0,0.0,0.0,0.0,0.0,0.0,0.0,0.0,0.0,0.0,0.0,0.0,0.0,0.0,0.0,0.0,0.0,0.0,0.0,0.0,0.0,0.0,0.0,-2.5304,0.0,0.0,0.0,0.0,0.0,0.0,0.0,0.0,0.0,0.0,0.0,0.0,0.0,0.0,0.0,0.0,0.0,0.0,0.0,0.0,0.0,-2.2185,-2.2264,-2.2185,-2.2097,-2.2008,-2.2008,-2.1919,-2.1731,-2.1741,0.0,0.0,-2.1741,-2.1741,-2.1741,-2.1741,-2.1741,-2.1741,-2.1741,-2.1454,-2.1087,-2.0645,-2.0382,-2.0292,-1.9471,0.0,0.0,0.0,0.0,0.0,0.0,0.0,0.0,0.0,0.0,0.0,0.0,0.0,0.0,0.0,0.0,0.0,0.0,0.0,0.0,0.0,0.0,0.0,0.0,0.0,0.0,0.0,0.0,0.0,0.0,0.0,0.0,0.0,0.0,0.0,0.0,0.0,0.0,0.0,0.0,0.0,0.0,0.0,0.0,0.0,0.0,0.0,0.0,0.0,0.0,0.0,0.0,0.0,0.0,0.0,0.0,0.0,0.0,0.0,0.0,0.0,0.0,0.0,-2.8484,-2.8484,-2.8391,-2.7934,-2.784,-2.8121,-2.7295,-2.6839,-2.6542,-2.5771,0.0,0.0,0.0,0.0,0.0,0.0,0.0,0.0,0.0,0.0,0.0,0.0,0.0,0.0,0.0,0.0,0.0,0.0,0.0,-2.2008,-2.183,-2.2008,-2.2008,-2.1731,-2.1731,-2.1741,-2.1741,-2.1741,-2.1741,-2.1741,-2.1741,-2.1741,-2.1741,-2.1741,-2.1741,-2.1741,-2.1741,-2.1642,-2.1642,-2.1087,-2.0736,-2.0292,-2.0201,-2.011,-2.011,0.0,0.0,0.0,0.0,0.0,0.0,0.0,0.0,0.0,0.0,0.0,0.0,0.0,0.0,0.0,0.0,0.0,0.0,0.0,0.0,0.0,0.0,0.0,0.0,0.0,0.0,0.0,0.0,0.0,0.0,0.0,0.0,0.0,0.0,0.0,0.0,0.0,0.0,0.0,0.0,0.0,-2.4152,-2.4152,0.0,0.0,0.0,0.0,0.0,0.0,0.0,0.0,0.0,0.0,0.0,0.0,0.0,-2.7725,-2.7913,-2.8958,-2.9532,-2.9532,-3.0633,-3.0925,-3.0476,-3.0023,-2.9658,-2.929,-2.8746,0.0,-2.7094,-2.6542,0.0,0.0,0.0,0.0,0.0,0.0,0.0,0.0,0.0,0.0,0.0,0.0,0.0,0.0,0.0,0.0,0.0,0.0,0.0,0.0,0.0,-2.2176,-2.2176,-2.2087,-2.2087,-2.1998,-2.1741,-2.1741,-2.1741,-2.1741,-2.1741,-2.1741,-2.1741,-2.1741,-2.1741,-2.1741,-2.1741,-2.1741,-2.1741,-2.1463,-2.1275,-2.1105,-2.1105,-2.0464,-1.9471,-1.9279,0.0,0.0,0.0,0.0,0.0,0.0,0.0,0.0,0.0,0.0,0.0,0.0,0.0,0.0,0.0,0.0,0.0,0.0,0.0,0.0,0.0,0.0,0.0,0.0,0.0,0.0,0.0,0.0,0.0,0.0,0.0,0.0,0.0,0.0,0.0,0.0,0.0,0.0,0.0,-2.362,-2.3474,-2.3474,-2.3327,-2.3112,0.0,0.0,0.0,0.0,0.0,0.0,0.0,0.0,0.0,-2.8019,-2.803,-2.84,-2.9133,-2.9683,-2.9968,-2.9968,-3.0513,-3.0697,-3.0426,-2.998,-2.9805,-2.9805,-2.9012,-2.8556,-2.8377,-2.7462,-2.6924,-2.6542,0.0,0.0,0.0,0.0,-2.6167,-2.6552,0.0,0.0,0.0,0.0,0.0,0.0,0.0,0.0,0.0,0.0,0.0,0.0,-2.2176,-2.2264,-2.2264,-2.2264,-2.2264,-2.2087,-2.1741,-2.1741,-2.1741,-2.1741,-2.1741,-2.1741,-2.1741,-2.1741,-2.1741,-2.1741,-2.1741,-2.1741,-2.1741,-2.1741,-2.1642,-2.1553,-2.1553,-2.0736,-1.9554,-1.9288,-1.9196,-1.9196,0.0,0.0,0.0,0.0,0.0,0.0,0.0,0.0,0.0,0.0,0.0,0.0,0.0,0.0,0.0,0.0,0.0,0.0,0.0,0.0,0.0,0.0,0.0,0.0,0.0,0.0,0.0,0.0,0.0,0.0,0.0,0.0,0.0,0.0,0.0,0.0,0.0,-2.3048,-2.2857,-2.2857,-2.2765,-2.2879,0.0,0.0,0.0,0.0,0.0,0.0,-2.6515,-2.6614,-2.7283,-2.8632,-2.8729,-2.918,-3.0086,-3.0086,-3.0086,-3.0086,-3.0086,-3.0086,-3.0086,-2.9652,-2.9567,-2.9905,-2.897,-2.8798,-2.9114,-2.8138,-2.7604,-2.7325,-2.6681,-2.6398,-2.6398,-2.6398,-2.6492,-2.6775,0.0,0.0,0.0,0.0,0.0,0.0,0.0,0.0,0.0,0.0,0.0,-2.2008,-2.1741,-2.1919,-2.2008,-2.1741,-2.1741,-2.1741,-2.1741,-2.1741,-2.1741,-2.1741,-2.1741,-2.1741,-2.1741,-2.1741,-2.1741,-2.1741,-2.1741,-2.1741,-2.1741,-2.1741,-2.1454,-2.1087,-2.1087,-2.1275,-2.1463,-2.0564,-2.0201,-2.0201,-1.9737,0.0,0.0,0.0,0.0,0.0,0.0,0.0,0.0,0.0,0.0,0.0,0.0,0.0,0.0,0.0,0.0,0.0,0.0,0.0,0.0,0.0,0.0,0.0,0.0,0.0,0.0,0.0,0.0,0.0,0.0,0.0,0.0,0.0,0.0,0.0,0.0,0.0,0.0,-2.2857,-2.2602,0.0,0.0,0.0,0.0,-2.4946,-2.4282,-2.4974,-2.7392,-2.7499,-2.833,-2.9978,-2.999,-3.0001,-3.0086,-3.0086,-3.0086,-3.0086,-3.0086,-3.0086,-3.0086,-2.9652,-2.9397,-2.9397,-2.8884,-2.8626,-2.8626,-2.815,-2.7525,-2.6793,-2.6378,-2.6208,-2.6208,-2.6208,-2.6668,-2.7292,0.0,0.0,0.0,0.0,0.0,0.0,0.0,0.0,-2.1919,-2.1919,-2.2008,-2.2097,-2.2176,-2.2097,-2.2097,-2.2008,-2.1919,-2.1919,-2.1731,-2.1741,-2.1741,-2.1741,-2.1741,-2.1741,-2.1741,-2.1741,-2.1741,-2.1741,-2.1741,-2.1741,-2.1741,-2.1741,-2.1642,-2.1463,-2.1463,-2.1553,-2.1642,-2.0744,-2.0292,-2.0292,-2.011,-2.0011,0.0,0.0,0.0,0.0,0.0,0.0,0.0,0.0,0.0,0.0,0.0,0.0,0.0,0.0,0.0,0.0,0.0,0.0,0.0,0.0,0.0,0.0,0.0,0.0,0.0,0.0,0.0,0.0,0.0,0.0,0.0,0.0,0.0,0.0,0.0,0.0,0.0,-2.2806,-2.3092,0.0,-2.4283,-2.4064,-2.4478,-2.6058,-2.6069,-2.6655,-2.8092,-2.8186,-2.8443,-2.9063,-2.9076,-2.9076,-2.9076,-2.9076,-2.9076,-2.9076,-2.9076,-2.9076,-2.9076,-2.8913,-2.8819,-2.8819,-2.8656,-2.8726,-2.9108,-2.8702,-2.826,-2.7897,-2.7821,-2.7733,-2.7733,-2.7733,-2.7919,-2.8105,0.0,0.0,0.0,0.0,0.0,0.0,0.0,-2.183,-2.2008,-2.2008,-2.2008,-2.2008,-2.2176,-2.1998,-2.2008,-2.2008,-2.2008,-2.2008,-2.183,-2.183,-2.183,-2.183,-2.1741,-2.1741,-2.1741,-2.1741,-2.1741,-2.1741,-2.1741,-2.1741,-2.1741,-2.1741,-2.1741,-2.1741,-2.1741,-2.1741,-2.1651,-2.1015,-2.0645,-2.0555,-2.0555,-2.0555,-2.0555,0.0,0.0,0.0,0.0,0.0,0.0,0.0,0.0,0.0,0.0,0.0,0.0,0.0,0.0,0.0,0.0,0.0,0.0,0.0,0.0,0.0,0.0,0.0,0.0,0.0,0.0,0.0,0.0,0.0,0.0,0.0,0.0,0.0,0.0,-2.3036,-2.3135,-2.3135,-2.3637,-2.4317,-2.5009,-2.5084,-2.5663,-2.7244,-2.7255,-2.7603,-2.8431,-2.851,-2.851,-2.851,-2.851,-2.851,-2.851,-2.851,-2.851,-2.851,-2.8736,-2.8816,-2.8816,-2.904,-2.9118,-2.9118,-2.9118,-2.9341,-2.9639,-2.9406,-2.9272,-2.9166,-2.8833,-2.8738,-2.8738,-2.8738,-2.8738,-2.8738,0.0,0.0,0.0,0.0,0.0,0.0,-2.1741,-2.1741,-2.1741,-2.1731,-2.1741,-2.1741,-2.1731,-2.1741,-2.1741,-2.1741,-2.1919,-2.2097,-2.2097,-2.2097,-2.2097,-2.2097,-2.183,-2.1741,-2.1741,-2.1741,-2.1741,-2.1741,-2.1741,-2.1741,-2.1741,-2.1741,-2.1741,-2.1741,-2.1741,-2.1741,-2.1741,-2.1741,-2.1454,-2.0997,-2.0997,-2.0997,-2.0997,0.0,0.0,0.0,0.0,0.0,0.0,0.0,0.0,0.0,0.0,0.0,0.0,0.0,0.0,0.0,0.0,0.0,0.0,0.0,0.0,0.0,0.0,0.0,0.0,0.0,0.0,0.0,0.0,0.0,0.0,0.0,0.0,0.0,-2.38,-2.38,-2.38,-2.3887,-2.4231,-2.5009,-2.6102,-2.5841,-2.6412,-2.8339,-2.7684,-2.7603,-2.8431,-2.851,-2.851,-2.851,-2.851,-2.851,-2.851,-2.851,-2.851,-2.851,-2.9118,-2.9419,-2.9419,-3.0024,-3.0317,-3.0317,-3.0317,-3.0317,-3.033,-3.033,-3.033,-3.0241,-2.9409,-2.9073,-2.9073,-2.9073,-2.9073,-2.9073,0.0,0.0,0.0,0.0,0.0,0.0,-2.1741,-2.1741,-2.1741,-2.1919,-2.183,-2.1731,-2.2008,-2.183,-2.1741,-2.1741,-2.1741,-2.183,-2.183,-2.183,-2.183,-2.183,-2.1741,-2.1741,-2.1741,-2.1741,-2.1741,-2.1741,-2.1741,-2.1741,-2.1741,-2.1741,-2.1741,-2.1741,-2.1741,-2.1741,-2.1741,-2.1741,-2.1642,-2.1553,-2.1553,-2.1553,-2.1553,0.0,0.0,0.0,0.0,0.0,0.0,0.0,0.0,0.0,0.0,0.0,0.0,0.0,0.0,0.0,0.0,0.0,0.0,0.0,0.0,0.0,0.0,0.0,0.0,0.0,0.0,0.0,0.0,0.0,0.0,0.0,-2.4509,-2.4413,-2.3887,-2.4241,-2.4669,-2.4988,-2.5589,-2.6362,-2.7371,-2.729,-2.7615,-2.8431,-2.8259,-2.8259,-2.851,-2.851,-2.851,-2.851,-2.851,-2.851,-2.851,-2.851,-2.8736,-2.9118,-2.9341,-2.9651,-3.0088,-3.0241,-3.0317,-3.0317,-3.0317,-3.0545,-3.0921,-3.0921,-3.1233,-3.1556,-3.038,-2.9909,-2.9909,-2.9909,-2.9909,-2.9909,0.0,0.0,0.0,0.0,0.0,0.0,-2.1741,-2.1741,-2.1741,-2.1919,-2.183,-2.1741,-2.1919,-2.182,-2.1741,-2.1741,-2.183,-2.183,-2.183,-2.183,-2.183,-2.1741,-2.1741,-2.1741,-2.1741,-2.1741,-2.1741,-2.1741,-2.1741,-2.1741,-2.1741,-2.1741,-2.1741,-2.1741,-2.1741,-2.1741,-2.1741,-2.1741,-2.1741,-2.1741,-2.2008,-2.2008,-2.1731,-2.1998,-2.2176,-2.2176,-2.2511,-2.2599,-2.2687,-2.3038,0.0,0.0,0.0,0.0,0.0,0.0,0.0,0.0,0.0,0.0,0.0,0.0,0.0,0.0,0.0,0.0,0.0,0.0,0.0,0.0,0.0,0.0,0.0,0.0,-2.5126,-2.52,-2.4988,-2.5263,-2.5695,-2.5924,-2.661,-2.729,-2.7881,-2.8042,-2.8283,-2.851,-2.851,-2.851,-2.851,-2.851,-2.851,-2.851,-2.851,-2.851,-2.851,-2.851,-2.8816,-2.9419,-2.9639,-3.0088,-3.0696,-3.0934,-3.1097,-3.1097,-3.1097,-3.132,-3.1616,-3.1616,-3.1863,0.0,0.0,0.0,0.0,0.0,-3.1097,-3.1097,0.0,0.0,0.0,0.0,0.0,0.0,-2.1741,-2.1731,-2.1741,-2.1741,-2.1741,-2.1731,-2.1741,-2.1741,-2.1741,-2.1741,-2.1919,-2.2097,-2.2097,-2.2097,-2.1919,-2.1731,-2.1741,-2.1741,-2.1741,-2.1741,-2.1741,-2.1741,-2.1741,-2.1741,-2.1741,-2.1741,-2.1741,-2.1741,-2.1741,-2.1741,-2.1741,-2.1741,-2.1731,-2.1909,-2.253,-2.2441,-2.1909,-2.2618,-2.2882,-2.2969,-2.3551,-2.38,-2.379,-2.3887,0.0,0.0,0.0,0.0,0.0,0.0,0.0,0.0,0.0,0.0,0.0,0.0,0.0,0.0,0.0,0.0,0.0,0.0,0.0,0.0,0.0,0.0,0.0,0.0,-2.5549,-2.6052,-2.6445,-2.661,-2.6693,-2.6693,-2.7383,-2.7893,-2.7962,-2.8271,-2.851,-2.851,-2.851,-2.851,-2.851,-2.851,0.0,0.0,0.0,-2.851,-2.859,-2.859,-2.8961,-2.9639,-3.0177,-3.0696,-3.1307,-3.1936,-3.2182,-3.2182,-3.2182,-3.2182,-3.2182,-3.2182,-3.2182,-3.2182,-3.2182,-3.2182,-3.2182,-3.2182,-3.2182,-3.2182,0.0,0.0,0.0,0.0,0.0,0.0,-2.2008,-2.2176,-2.2087,-2.1731,-2.1919,-2.1919,-2.1741,-2.1741,-2.1741,-2.1741,-2.1919,-2.2097,-2.2097,-2.1919,-2.1731,-2.1741,-2.1741,-2.1741,-2.1741,-2.1741,-2.1741,-2.1741,-2.1741,-2.1741,-2.1741,-2.1741,-2.1741,-2.1741,-2.1741,-2.1741,-2.1741,-2.1741,-2.1998,-2.2627,-2.2715,-2.2715,-2.2618,-2.3377,-2.3637,-2.3627,-2.3714,-2.38,-2.3887,-2.4509,-2.4327,-2.3887,-2.4509,-2.4241,0.0,0.0,0.0,0.0,0.0,0.0,0.0,0.0,0.0,0.0,0.0,0.0,0.0,0.0,0.0,0.0,0.0,0.0,0.0,-2.5728,-2.6124,-2.6445,-2.6528,-2.7126,-2.7626,-2.7626,-2.78,-2.8042,-2.8351,-2.8431,-2.851,-2.851,-2.851,-2.851,-2.851,-2.851,-2.851,-2.851,-2.851,-2.8736,-2.9184,-2.9263,-2.9793,-3.0846,0.0,0.0,-3.2009,-3.2169,-3.2182,-3.2182,-3.2182,-3.2182,-3.2182,-3.2182,-3.2182,-3.2182,-3.2182,-3.2182,-3.2182,-3.2182,-3.2182,-3.2182,0.0,0.0,0.0,0.0,0.0,0.0,-2.2097,-2.2185,-2.2185,-2.1919,-2.2008,-2.2008,-2.1919,-2.1998,-2.1998,-2.1919,-2.2008,-2.2097,-2.2097,-2.183,-2.1741,-2.1741,-2.1741,-2.1741,-2.1741,-2.1741,-2.1741,-2.1741,-2.1741,-2.1741,-2.1741,-2.1741,-2.1741,-2.1741,-2.1741,-2.1741,-2.1741,-2.1741,-2.2097,-2.2803,-2.3135,-2.3474,-2.3917,-2.4251,-2.4327,-2.4413,-2.4754,-2.485,-2.4935,-2.5295,-2.52,-2.4935,-2.5285,-2.5115,-2.4935,0.0,0.0,0.0,0.0,0.0,0.0,0.0,0.0,0.0,0.0,0.0,0.0,0.0,0.0,-2.5895,-2.5895,0.0,-2.5895,-2.5895,-2.6207,-2.6528,-2.6528,-2.729,-2.7893,-2.7893,-2.8042,-2.8271,-2.851,-2.851,-2.851,-2.851,-2.851,-2.851,-2.851,-2.851,-2.851,-2.851,-2.851,-2.879,-2.9365,-2.9398,-3.0009,-3.1124,-3.1215,-3.1542,-3.2182,-3.2182,-3.2182,-3.2182,-3.2182,-3.2182,-3.2182,-3.2182,-3.2182,-3.2182,-3.2182,-3.2182,-3.2182,-3.2182,-3.2182,-3.2182,0.0,0.0,0.0,0.0,0.0,0.0,-2.2274,-2.2274,-2.2274,-2.2185,-2.2185,-2.2185,-2.2185,-2.2264,-2.2353,-2.2274,-2.2185,-2.2097,-2.2185,-2.183,-2.1741,-2.1741,-2.1741,-2.1741,-2.1741,-2.1741,-2.1741,-2.1741,-2.1741,-2.1741,-2.1741,-2.1741,-2.1741,-2.1741,-2.1741,-2.1741,-2.1741,-2.1741,-2.2176,-2.3047,-2.3541,-2.4327,-2.5115,-2.5115,-2.5115,-2.5211,-2.5728,-2.5895,-2.5895,-2.5895,-2.5895,-2.5895,-2.5895,-2.5895,-2.5895,-2.5895,-2.5895,0.0,0.0,0.0,0.0,0.0,0.0,0.0,0.0,-2.5895,-2.5895,-2.5895,-2.5895,-2.5895,-2.5895,-2.5895,-2.5895,-2.5979,-2.629,-2.6528,-2.6775,-2.7464,-2.7973,-2.8042,-2.8271,-2.851,-2.851,-2.851,-2.851,-2.851,-2.851,-2.851,-2.851,-2.851,-2.8558,-2.8655,-2.8558,-2.8843,-2.9455,-2.9534,-3.0098,-3.1151,-3.1307,-3.1703,-3.2182,-3.2182,-3.2182,-3.2182,-3.2182,-3.2182,-3.2182,-3.2182,-3.2182,-3.2182,-3.2182,-3.2182,-3.2182,-3.2182,-3.2182,-3.2182,0.0,0.0,0.0,0.0,0.0,0.0,0.0,0.0,-2.2872,-2.2441,-2.253,-2.2618,-2.2353,-2.2353,-2.253,-2.2706,-2.2362,-2.2185,-2.2353,-2.1909,-2.1741,-2.1741,-2.1741,-2.1741,-2.1741,-2.1741,-2.1741,-2.1741,-2.1741,-2.1741,-2.1741,-2.1741,-2.1741,-2.1741,-2.1741,-2.1741,-2.1741,-2.1741,-2.2511,-2.3714,-2.38,-2.4584,-2.5812,-2.5812,-2.5812,-2.5812,-2.5895,-2.5895,-2.5895,-2.5895,-2.5895,-2.5895,-2.5895,-2.5895,-2.5895,-2.5895,-2.5895,-2.5895,-2.5895,-2.5895,-2.5895,-2.5895,-2.5895,-2.5895,0.0,-2.5895,-2.5895,-2.5895,-2.5895,-2.5895,-2.5895,-2.5895,-2.6063,-2.6362,-2.6445,-2.6775,-2.7638,-2.78,-2.8042,-2.8351,-2.851,-2.851,-2.851,-2.851,-2.851,-2.851,-2.851,-2.851,-2.851,-2.851,-2.8727,-2.9196,-2.8751,-2.8991,-3.0066,-3.0148,-3.0508,-3.1176,-3.1817,-3.2096,-3.2182,-3.2182,-3.2182,-3.2182,-3.2182,-3.2182,-3.2182,-3.2182,-3.2182,-3.2182,-3.2182,-3.2182,-3.2182,-3.2182,-3.2182,-3.2182,0.0,0.0,0.0,0.0,0.0,0.0,0.0,0.0,-2.2882,-2.2618,-2.2706,-2.2803,-2.2618,-2.2618,-2.2706,-2.2969,-2.253,-2.2353,-2.2618,-2.2087,-2.1741,-2.1919,-2.1741,-2.1741,-2.1741,-2.1741,-2.1741,-2.1741,-2.1741,-2.1741,-2.1741,-2.1741,-2.1741,-2.1741,-2.1741,-2.1741,-2.1741,-2.1741,-2.2255,-2.3212,-2.3627,-2.4413,-2.538,-2.5728,-2.5895,-2.5895,-2.5895,-2.5895,0.0,-2.5895,-2.5895,-2.5895,-2.5895,-2.5895,-2.5895,-2.5895,-2.5895,-2.5895,-2.5895,-2.5895,-2.5895,-2.5895,-2.5895,-2.5895,-2.5895,-2.5895,-2.5895,-2.5895,-2.6052,-2.6207,-2.6207,-2.6207,-2.629,-2.6445,-2.6693,-2.694,-2.7033,-2.7777,-2.8203,-2.8203,-2.8351,-2.851,-2.851,-2.851,-2.851,-2.851,-2.851,-2.851,-2.851,-2.851,-2.8607,-2.8835,-2.8631,-2.8911,-2.9687,-3.007,-3.056,-3.1189,-3.1877,-3.2182,-3.2182,-3.2182,-3.2182,-3.2182,-3.2182,-3.2182,-3.2255,-3.2444,-3.2372,-3.2255,-3.2444,-3.2503,-3.2444,-3.2241,-3.2182,-3.2182,0.0,0.0,0.0,0.0,0.0,0.0,0.0,0.0,0.0,0.0,-2.2882,-2.2882,-2.2882,-2.2882,-2.2969,-2.3057,-2.2706,-2.253,-2.2706,-2.2176,-2.1909,-2.2097,-2.1919,-2.183,-2.183,-2.1741,-2.1741,-2.183,-2.1741,-2.1731,-2.1909,-2.183,-2.183,-2.1909,-2.1909,-2.182,-2.183,-2.183,-2.2176,-2.2794,-2.3299,-2.3983,-2.468,-2.5115,-2.5464,-2.5644,-2.5812,-2.5895,-2.5895,-2.5895,-2.5895,-2.5895,-2.5895,-2.5895,-2.5895,-2.5895,-2.5895,-2.5895,-2.6063,-2.6052,-2.6135,-2.6218,-2.6218,-2.6218,-2.6052,-2.6135,-2.6218,-2.6052,-2.6373,-2.6693,-2.6528,-2.6528,-2.6528,-2.6528,-2.6775,-2.7021,-2.6869,-2.7603,-2.8099,-2.8042,-2.8203,-2.8351,-2.851,-2.851,-2.851,-2.851,-2.851,-2.851,-2.851,-2.851,-2.857,-2.8727,-2.8595,-2.8763,-2.9292,-2.9993,-3.0522,-3.0932,-3.1755,-3.2182,-3.2182,-3.2182,-3.2182,-3.2182,-3.2314,-3.23,-3.2372,-3.2704,-3.2717,-3.2516,-3.2775,-3.2846,-3.2846,-3.2588,-3.2516,-3.2516,0.0,0.0,0.0,0.0,0.0,0.0,0.0,0.0,0.0,0.0,0.0,-2.3057,-2.3057,-2.3057,-2.3047,-2.3135,-2.2882,-2.2706,-2.2441,-2.2353,-2.2264,-2.2097,-2.2097,-2.2097,-2.2097,-2.183,-2.183,-2.2097,-2.183,-2.1909,-2.2344,-2.2185,-2.2185,-2.2353,-2.2353,-2.2264,-2.2097,-2.2097,-2.2362,-2.2803,-2.2794,-2.3212,-2.38,-2.3887,-2.4327,-2.5031,-2.5644,-2.5895,-2.5895,-2.5895,-2.5895,-2.5895,-2.5895,-2.5895,-2.5895,-2.5895,-2.5895,-2.5979,-2.6362,-2.6445,-2.661,-2.7021,-2.7185,-2.7021,-2.661,-2.6846,-2.7021,-2.661,-2.6857,-2.7021,-2.661,-2.6528,-2.6528,-2.6528,-2.6528,-2.6857,-2.7719,-2.7534,-2.751,-2.8339,-2.8122,-2.8042,-2.8431,-2.851,-2.851,-2.851,-2.851,-2.851,-2.851,-2.851,-2.8751,-2.9256,-2.8775,-2.8763,-2.9292,-2.9993,-3.033,-3.0343,-3.1569,-3.2182,-3.2182,-3.2182,-3.2182,-3.2255,-3.2574,-3.2704,-3.2704,-3.3129,-3.3269,-3.3269,-3.3269,-3.3269,-3.3269,-3.3269,-3.3269,-3.3269,0.0,0.0,0.0,0.0,0.0,0.0,0.0,0.0,0.0,0.0,0.0,0.0,0.0,0.0,0.0,0.0,-2.2882,-2.2794,-2.2882,-2.2441,-2.2274,-2.2539,-2.2274,-2.2185,-2.2264,-2.2097,-2.2087,-2.2264,-2.2087,-2.2097,-2.2441,-2.2353,-2.2353,-2.2441,-2.2441,-2.2353,-2.2264,-2.2264,-2.2274,-2.2362,-2.2794,-2.3047,-2.3222,-2.3627,-2.4241,-2.4946,0.0,-2.5549,-2.5895,-2.5895,-2.5895,-2.5895,-2.5895,-2.5895,-2.5895,-2.5895,-2.6052,-2.6373,-2.6445,-2.6693,-2.7021,-2.7185,-2.7185,-2.7185,-2.7021,-2.7103,-2.7185,-2.7021,-2.7103,-2.7174,-2.7021,-2.694,-2.694,-2.694,-2.7196,-2.7545,-2.7893,-2.803,-2.8179,-2.851,-2.8351,-2.8351,-2.851,-2.851,-2.851,-2.851,-2.851,-2.851,-2.851,-2.851,-2.8595,-2.8775,-2.8607,-2.8595,-2.8775,-2.9349,-2.9871,-3.033,-3.1556,-3.2314,-3.2503,-3.2503,-3.2646,-3.2931,-3.3058,-3.3129,-3.3129,-3.3479,-3.3479,-3.3339,-3.3563,-3.3632,-3.3632,-3.3632,-3.377,-3.3977,0.0,0.0,0.0,0.0,0.0,0.0,0.0,0.0,0.0,0.0,0.0,0.0,0.0,0.0,0.0,0.0,0.0,-2.2969,-2.2969,-2.2618,-2.253,-2.2803,-2.2539,-2.2451,-2.253,-2.2353,-2.2353,-2.253,-2.2353,-2.2353,-2.2618,-2.2618,-2.2618,-2.2618,-2.2618,-2.2608,-2.253,-2.253,-2.2353,-2.2097,-2.253,-2.2618,-2.2441,-2.2862,-2.3551,0.0,-2.4176,-2.4775,-2.5549,-2.5812,-2.5895,-2.5895,-2.5895,-2.5979,-2.6135,-2.6135,-2.6456,-2.6775,-2.6951,-2.7196,-2.7441,-2.7603,-2.7684,-2.7603,-2.7441,-2.7603,-2.7603,-2.7441,-2.7452,-2.736,-2.7267,-2.7185,-2.7103,-2.6787,-2.729,-2.7626,-2.7626,-2.7857,-2.8179,-2.8431,-2.8351,-2.8351,-2.851,-2.851,-2.851,-2.851,-2.851,-2.851,-2.851,-2.851,-2.851,-2.851,-2.851,-2.851,-2.851,-2.9118,-2.9716,-3.0393,-3.1542,-3.2214,-3.2489,-3.2775,-3.3058,-3.3339,-3.3409,-3.3479,-3.3479,-3.3839,-3.3908,-3.3701,-3.3908,-3.3991,-3.3991,-3.3991,-3.4196,-3.4346,0.0,0.0,0.0,0.0,0.0,0.0,0.0,0.0,0.0,0.0,0.0,0.0,0.0,0.0,0.0,0.0,0.0,0.0,-2.2803,-2.2969,-2.2969,-2.2794,-2.2803,-2.2803,-2.2803,-2.253,-2.253,-2.2803,-2.253,-2.2618,-2.3135,-2.2882,-2.2882,-2.3135,-2.3135,-2.2969,-2.2794,-2.2803,-2.2539,-2.2097,-2.2097,-2.1919,-2.1741,-2.1741,-2.2176,-2.2803,-2.2803,-2.3657,-2.4946,-2.5644,-2.5895,-2.5979,-2.5979,-2.6218,-2.6528,-2.6528,-2.6857,-2.7348,-2.78,-2.7893,-2.8042,-2.8431,-2.851,-2.8431,-2.8042,-2.8203,-2.8363,-2.7962,-2.7881,-2.7708,-2.7267,-2.7185,-2.694,-2.6063,-2.6704,-2.7267,-2.7267,-2.7267,-2.7592,-2.8431,-2.8203,-2.8042,-2.8431,-2.851,-2.851,-2.851,-2.851,-2.851,-2.851,-2.851,-2.851,-2.851,-2.851,-2.851,-2.851,-2.9118,-2.9793,-3.0532,-3.1341,-3.1882,-3.2128,-3.2846,-3.3269,-3.3339,-3.3618,-3.377,-3.3839,-3.4264,-3.4414,-3.4414,-3.4414,-3.4414,-3.4414,-3.4443,-3.4457,-3.4472,0.0,0.0,0.0,0.0,0.0,0.0,0.0,0.0,0.0,0.0,0.0,0.0,0.0,0.0,0.0,0.0,0.0,0.0,-2.3057,-2.2969,-2.2882,-2.3057,-2.2882,-2.2882,-2.3057,-2.2794,-2.2794,-2.3057,-2.2794,-2.2882,-2.3135,-2.3047,-2.3047,-2.3135,-2.3135,-2.3057,-2.2969,-2.2882,-2.2627,-2.2353,-2.2185,-2.1919,-2.1741,-2.1741,-2.2176,-2.2803,-2.2803,-2.3387,-2.4231,-2.5253,-2.6185,-2.6857,-2.6857,-2.694,-2.7021,-2.7021,-2.736,-2.7719,-2.7893,-2.8122,-2.8351,-2.851,-2.851,-2.851,-2.8351,-2.8431,-2.8363,-2.7962,-2.7626,-2.7278,-2.6764,-2.694,-2.7103,-2.6857,-2.7603,-2.8179,-2.8179,-2.8179,-2.8259,-2.851,-2.8431,-2.8351,-2.851,-2.851,-2.851,-2.851,-2.851,-2.851,-2.851,-2.851,-2.851,-2.851,-2.851,-2.851,-2.851,-2.9118,-2.9561,-2.9935,-3.0607,-3.1206,-3.1663,-3.1882,-3.2448,-3.3241,-3.3311,-3.3673,-3.4264,-3.4346,-3.4414,-3.4414,-3.4414,-3.4414,-3.4472,-3.4951,-3.5125,-3.5183,0.0,0.0,0.0,0.0,0.0,0.0,0.0,0.0,0.0,0.0,0.0,0.0,0.0,0.0,0.0,0.0,0.0,0.0,0.0,-2.2969,-2.2969,-2.3135,-2.2969,-2.2969,-2.3135,-2.2969,-2.2969,-2.3135,-2.2969,-2.2969,-2.3135,-2.3135,-2.3135,-2.3135,-2.3135,-2.3135,-2.3057,-2.2882,-2.2618,0.0,0.0,-2.1919,-2.1741,-2.1741,-2.2008,-2.2353,-2.2353,-2.2862,-2.379,-2.4734,-2.5841,-2.694,-2.7103,-2.736,-2.7534,-2.7534,-2.7788,-2.8203,-2.8203,-2.8351,-2.851,-2.851,-2.851,-2.851,-2.851,-2.8351,-2.8203,-2.7973,-2.7371,-2.6775,-2.6528,-2.6857,-2.7103,-2.694,-2.7684,-2.8283,-2.8283,-2.8283,-2.8271,-2.851,-2.851,-2.851,-2.851,-2.851,-2.851,-2.851,-2.851,-2.851,-2.851,-2.851,-2.851,-2.851,-2.851,-2.851,-2.851,-2.8816,-2.9118,-2.9419,-3.0165,-3.0758,-3.1281,-3.1576,-3.2074,-3.272,0.0,-3.3297,-3.3395,-3.3756,-3.3894,-3.3894,-3.3894,-3.4286,-3.4878,-3.5227,-3.5546,-3.5865,0.0,0.0,0.0,0.0,0.0,0.0,0.0,0.0,0.0,0.0,0.0,0.0,0.0,0.0,0.0,0.0,0.0,0.0,0.0,0.0,-2.3135,-2.3135,-2.3135,-2.3135,-2.3135,-2.296,-2.296,-2.3135,-2.296,-2.296,-2.3135,-2.3135,-2.3135,-2.3135,-2.3135,-2.3135,-2.3057,-2.2882,-2.2618,-2.2353,-2.2185,-2.1919,-2.1741,0.0,-2.1741,-2.1741,-2.1741,-2.2413,-2.3444,-2.4145,-2.5337,-2.6599,-2.701,-2.7522,-2.7962,-2.7962,-2.8203,-2.851,-2.851,-2.851,-2.851,-2.851,-2.851,-2.851,-2.851,-2.8191,-2.7973,-2.78,-2.7115,-2.6528,-2.6445,-2.6857,-2.7103,-2.6693,-2.7371,-2.7962,-2.7962,-2.7962,-2.8122,-2.8431,-2.851,-2.851,-2.851,-2.851,-2.851,-2.851,-2.851,-2.851,-2.851,-2.851,-2.851,-2.851,-2.851,-2.851,-2.851,-2.851,-2.8657,-2.9131,-2.9806,-3.0393,-3.0758,-3.1502,-3.1869,-3.2001,-3.2648,-3.2577,-3.2146,-3.2791,-3.3073,-3.3087,-3.3157,-3.3974,-3.5078,-3.5406,-3.5811,-3.6375,0.0,0.0,0.0,0.0,0.0,0.0,0.0,0.0,0.0,0.0,-2.3135,-2.3135,0.0,0.0,0.0,0.0,0.0,0.0,0.0,0.0,0.0,-2.3135,-2.3135,-2.3135,-2.3135,-2.2325,-2.2325,-2.3135,-2.2325,-2.2325,-2.3135,-2.3135,-2.3135,-2.3135,-2.3135,-2.3135,-2.3057,-2.2882,-2.2618,-2.2353,-2.2185,-2.1919,-2.1741,-2.1741,0.0,0.0,-2.1741,-2.2264,-2.296,-2.3444,-2.4967,-2.6741,-2.6812,-2.758,-2.8431,-2.8431,-2.8431,-2.851,-2.851,-2.851,-2.851,-2.851,-2.851,-2.851,-2.851,-2.8431,-2.8191,-2.7441,-2.7185,-2.6857,-2.6135,-2.6704,-2.7185,-2.7103,-2.7846,-2.8431,-2.8431,-2.8431,-2.8431,-2.851,-2.851,-2.851,-2.851,-2.851,-2.851,-2.851,-2.851,-2.851,-2.851,-2.851,-2.851,-2.851,-2.851,-2.851,-2.851,-2.851,-2.8657,-2.9131,-2.9197,-2.9521,-2.9998,-3.0152,-3.0495,-3.1119,-3.1254,0.0,-3.2074,-3.2218,-3.229,-3.2345,-3.2763,-3.3096,-3.3537,-3.5246,-3.5921,-3.6254,0.0,0.0,0.0,0.0,0.0,0.0,0.0,-2.3135,-2.3135,-2.3135,-2.3135,-2.3135,-2.3135,-2.3135,-2.3135,0.0,0.0,0.0,0.0,0.0,0.0,-2.2413,-2.2413,-2.2148,-2.1596,-2.1141,-2.1141,-2.1596,0.0,-2.1961,-2.2413,-2.2862,-2.3135,-2.3135,-2.3135,-2.3135,-2.3057,-2.2882,-2.2618,-2.2372,-2.241,-2.2224,-2.2071,-2.2199,0.0,0.0,-2.2116,-2.2224,-2.2546,-2.2489,-2.3607,-2.5126,-2.5891,-2.6494,-2.6999,-2.708,-2.708,-2.708,-2.708,-2.7418,-2.7846,-2.7846,-2.8179,-2.851,-2.851,-2.8351,-2.803,-2.7615,-2.7196,-2.6693,-2.629,-2.6775,-2.7185,-2.7185,-2.7926,-2.851,-2.851,-2.851,-2.851,-2.851,-2.851,-2.851,-2.851,-2.851,-2.851,-2.851,-2.851,-2.851,-2.851,-2.851,-2.851,-2.851,-2.851,-2.851,-2.851,-2.8578,-2.8816,-2.9131,-2.9197,-2.9443,-2.9792,-2.9792,-2.9998,-3.0343,-3.0758,-3.0908,-3.0934,-3.1355,-3.1489,-3.1542,-3.2053,-3.2707,-3.3552,-3.4835,-3.5512,-3.588,0.0,0.0,0.0,0.0,0.0,0.0,0.0,-2.3135,-2.3135,-2.3135,-2.3135,-2.3135,-2.3135,-2.3135,-2.3135,0.0,0.0,0.0,0.0,0.0,0.0,0.0,0.0,0.0,-2.0232,0.0,0.0,-2.0232,-2.0782,0.0,0.0,0.0,0.0,0.0,-2.3047,-2.3135,-2.3057,-2.3066,-2.284,0.0,0.0,-2.2823,-2.2585,0.0,0.0,0.0,0.0,-2.2401,-2.2272,-2.197,-2.241,-2.327,-2.4382,-2.5147,-2.5568,-2.5652,-2.5735,-2.5819,-2.5819,-2.6329,-2.6928,-2.6928,-2.7592,-2.8179,-2.8007,-2.7857,-2.7719,-2.7626,-2.7033,-2.6528,-2.661,-2.694,-2.7267,-2.7348,-2.7938,-2.8431,-2.851,-2.851,-2.851,-2.851,-2.851,-2.851,-2.851,-2.851,-2.851,-2.851,-2.851,-2.851,-2.851,-2.851,-2.851,-2.851,-2.851,-2.851,-2.851,-2.8724,-2.8882,-2.9131,-2.9275,-2.9521,-2.9792,-2.9792,-2.9792,-2.9869,-3.0406,-3.0343,-2.9856,-3.0419,-3.0761,-3.0853,-3.141,-3.2371,-3.3605,-3.4365,-3.4929,-3.5467,0.0,0.0,0.0,0.0,0.0,0.0,0.0,-2.3135,-2.3135,-2.3135,-2.3135,-2.3135,-2.3135,-2.3135,-2.3135,0.0,0.0,0.0,0.0,0.0,0.0,0.0,0.0,0.0,0.0,0.0,0.0,-2.0232,-1.9422,0.0,0.0,0.0,0.0,0.0,0.0,-2.3135,-2.3164,-2.3564,0.0,0.0,0.0,0.0,0.0,0.0,0.0,0.0,0.0,-2.2648,-2.2318,-2.2282,-2.2034,-2.1909,-2.2264,-2.379,-2.5484,-2.5495,-2.5663,-2.5819,-2.5819,-2.5819,-2.5913,-2.5913,-2.667,-2.7092,-2.6246,-2.667,-2.7103,-2.6693,-2.6528,-2.661,-2.7103,-2.7185,-2.736,-2.78,-2.7881,-2.8042,-2.8431,-2.851,-2.851,-2.851,-2.851,-2.851,-2.851,-2.851,-2.851,-2.851,-2.851,-2.851,-2.851,-2.851,-2.851,-2.851,-2.851,-2.851,-2.851,-2.8724,-2.8882,-2.9131,-2.9275,-2.9521,-2.9792,-2.9792,-2.9792,-2.9792,-2.9856,-2.9856,0.0,-2.9856,-3.0159,-3.0662,-3.1191,-3.1801,-3.2523,-3.3931,-3.4594,-3.4868,0.0,0.0,0.0,0.0,0.0,0.0,-2.3047,-2.3135,-2.3135,-2.3135,-2.3135,-2.3135,-2.3135,-2.3135,-2.3135,-2.3135,0.0,0.0,0.0,0.0,0.0,0.0,0.0,0.0,0.0,0.0,-1.8056,-1.8419,-1.8696,0.0,0.0,0.0,0.0,0.0,0.0,-2.2971,-2.3466,-2.3328,0.0,0.0,0.0,0.0,0.0,0.0,0.0,0.0,0.0,0.0,-2.2667,-2.241,-2.2061,-2.1741,-2.183,-2.2599,-2.3541,-2.381,-2.3897,-2.3983,-2.4145,-2.4573,-2.4988,-2.4988,-2.5663,-2.6246,-2.5746,-2.5997,-2.6246,-2.5924,-2.5768,-2.5779,-2.5946,-2.603,-2.603,-2.6207,-2.6445,-2.6682,-2.6835,-2.6905,-2.6905,-2.6905,-2.6905,-2.6905,-2.6905,-2.6905,-2.6905,-2.6905,-2.6905,-2.6905,-2.6905,-2.7914,-2.851,-2.851,-2.851,-2.851,-2.851,-2.8816,-2.904,-2.9131,-2.9456,-2.9702,-2.9792,-2.9792,-2.9792,-2.9792,-2.9792,-2.9792,0.0,-2.9792,-3.0118,-3.067,-3.1185,-3.182,-3.2541,-3.3436,-3.3894,-3.4121,0.0,0.0,0.0,0.0,0.0,-2.1971,-2.2413,-2.2501,-2.2677,-2.296,-2.3047,-2.3135,-2.3135,-2.3135,-2.296,-2.2687,-2.2687,0.0,0.0,0.0,0.0,0.0,0.0,0.0,0.0,0.0,-1.7567,-1.7472,-1.8214,-1.859,0.0,0.0,-2.039,-2.1042,0.0,0.0,0.0,0.0,0.0,0.0,0.0,0.0,0.0,0.0,0.0,0.0,0.0,0.0,0.0,0.0,0.0,-2.1741,-2.1741,-2.183,-2.2097,-2.2451,-2.2627,-2.2706,-2.2969,-2.3474,-2.3993,-2.4069,-2.4734,-2.5147,-2.4819,-2.4978,-2.5147,-2.5062,-2.4914,-2.4925,-2.5263,-2.5274,-2.5285,-2.5359,-2.5516,-2.5663,-2.5819,-2.5819,-2.5819,-2.5819,-2.5819,-2.5819,-2.5819,-2.5819,-2.5819,-2.5819,-2.5819,-2.5819,-2.5819,-2.6999,-2.7834,-2.8099,-2.8099,-2.8259,-2.8578,-2.8895,-2.9131,-2.9197,-2.9624,-2.9792,-2.9792,-2.9792,-2.9792,-2.9792,-2.9792,-2.9792,0.0,-2.9967,-3.0357,-3.0896,-3.1424,-3.2142,-3.2853,-3.3259,-3.3569,-3.381,0.0,0.0,0.0,0.0,0.0,0.0,-2.0863,-2.1212,-2.1667,-2.2706,-2.2969,-2.3135,-2.3135,-2.3135,-2.2687,-2.1784,-2.1695,0.0,0.0,0.0,0.0,0.0,0.0,0.0,0.0,0.0,-1.8138,-1.7808,-1.813,-1.813,-1.7816,-1.9194,-1.9642,-1.9439,0.0,0.0,0.0,0.0,0.0,0.0,0.0,0.0,0.0,0.0,0.0,0.0,0.0,0.0,0.0,0.0,0.0,0.0,0.0,-2.1741,-2.1741,-2.2008,-2.2264,-2.2441,-2.2706,-2.2794,-2.2891,-2.3047,-2.3637,-2.3887,-2.3047,-2.3387,-2.38,-2.38,-2.3963,-2.4392,-2.5316,-2.5348,-2.5359,-2.5746,-2.5432,-2.5359,-2.5746,-2.5819,-2.5819,-2.5819,-2.5819,-2.5819,-2.5819,-2.5819,-2.5819,-2.5819,-2.5819,-2.5819,-2.5819,-2.583,-2.6246,-2.7185,-2.7185,-2.7742,-2.8803,-2.8973,-2.9197,-2.9419,-2.9702,-2.9792,-2.9792,-2.9792,-2.9792,-2.9792,-2.9792,-2.9792,0.0,-3.0382,-3.0922,-3.1436,-3.1989,-3.2723,-3.3386,-3.3398,-3.3738,-3.4076,0.0,0.0,0.0,0.0,0.0,0.0,0.0,-2.0034,-2.0223,-2.0709,-2.0889,-2.0881,-2.0881,-2.0881,-2.0791,-2.052,-2.1248,0.0,0.0,0.0,0.0,0.0,0.0,0.0,0.0,-1.8416,-1.8255,-1.8145,-1.8255,-1.8247,-1.8152,-1.8543,-1.9071,-1.9657,-2.0663,-2.1357,0.0,0.0,0.0,0.0,0.0,0.0,-2.2097,0.0,0.0,0.0,0.0,0.0,0.0,0.0,0.0,0.0,0.0,0.0,0.0,-2.183,-2.2008,-2.2274,-2.2441,-2.253,-2.253,-2.2608,-2.2775,-2.2862,-2.2451,-2.2608,-2.2775,-2.2696,-2.2775,-2.3125,-2.3551,-2.356,-2.3657,-2.3897,-2.382,-2.382,-2.3897,-2.3973,-2.3973,-2.3973,-2.3973,-2.3973,-2.3973,-2.3973,-2.3973,-2.3973,-2.3973,-2.3973,-2.3973,-2.3973,-2.4648,-2.6163,-2.6246,-2.6494,-2.6999,-2.7232,-2.7383,-2.7626,-2.8462,-2.8882,-2.8961,-2.9546,-2.9792,-2.9792,-2.9792,-2.9792,-2.9829,-3.0382,-3.0922,-3.1449,-3.2001,-3.2807,-3.3641,-3.3641,-3.3894,-3.4314,0.0,0.0,0.0,0.0,0.0,0.0,0.0,-1.8772,-1.9047,-1.9513,-1.9695,-1.9786,-1.9786,-1.9786,-1.9604,-1.9239,-2.0095,0.0,0.0,0.0,0.0,0.0,0.0,0.0,-1.8972,-1.8774,-1.8613,-1.8482,-1.8613,-1.8606,-1.8489,-1.8613,-1.8966,-1.9468,-2.0263,-2.0752,0.0,0.0,0.0,0.0,0.0,0.0,-2.0987,0.0,0.0,0.0,0.0,0.0,0.0,0.0,0.0,0.0,0.0,0.0,0.0,0.0,-2.183,-2.2008,-2.2264,-2.2264,-2.2353,-2.2353,-2.2353,-2.2264,-2.2097,-2.2087,-2.2087,-2.2008,-2.2097,-2.2353,-2.2618,-2.2706,-2.2891,-2.3057,-2.3135,-2.3135,-2.3135,-2.3135,-2.3135,-2.3135,-2.3135,-2.3135,-2.3135,-2.3135,-2.3135,-2.3135,-2.3135,-2.3135,-2.3135,-2.3135,-2.3647,-2.4734,-2.5158,-2.5663,-2.634,-2.64,-2.6648,-2.6894,-2.7637,-2.7971,-2.7971,-2.8554,-2.8803,-2.8791,-2.9131,-2.9411,0.0,-3.0523,-3.1223,-3.175,-3.2315,-3.2997,-3.3713,-3.3713,-3.3979,-3.4397,0.0,0.0,0.0,0.0,0.0,0.0,0.0,-1.7412,-1.7863,-1.8772,-1.9131,-1.9314,-1.9314,-1.9314,-1.8864,-1.7978,0.0,0.0,0.0,0.0,0.0,0.0,0.0,0.0,-1.9279,-1.9279,-1.9125,-1.8825,-1.9125,-1.9118,-1.8833,-1.9133,-1.9175,-1.8974,-2.0181,-2.0688,0.0,0.0,0.0,0.0,-1.9569,-1.996,0.0,0.0,0.0,0.0,0.0,0.0,0.0,0.0,0.0,0.0,0.0,0.0,0.0,0.0,0.0,0.0,0.0,-2.2008,-2.2097,-2.2264,-2.2176,-2.2097,-2.2097,-2.1919,0.0,-2.1741,-2.1919,-2.2185,-2.2353,-2.2618,-2.2794,-2.3047,-2.3135,-2.3135,-2.3135,-2.3135,-2.3135,-2.3135,-2.3135,-2.3135,-2.3135,-2.3135,-2.3135,-2.3135,-2.3135,-2.3135,-2.3135,-2.3135,-2.3135,-2.3135,-2.3993,-2.4988,-2.6318,-2.6318,-2.6565,-2.6905,-2.6987,-2.6987,-2.6987,-2.7069,-2.7069,0.0,-2.8051,-2.8751,-2.9374,-3.0741,-3.163,-3.2277,-3.2855,-3.3313,-3.3713,-3.3713,-3.3979,-3.4397,0.0,0.0,0.0,0.0,0.0,0.0,0.0,0.0,0.0,0.0,-1.6951,-1.6951,-1.6951,-1.6951,-1.6956,0.0,0.0,0.0,0.0,0.0,0.0,0.0,0.0,0.0,-1.9279,-1.9279,-1.9242,-1.9162,-1.9242,-1.9235,-1.9162,-1.9242,-1.9279,-1.9175,-1.9583,-1.948,0.0,0.0,0.0,0.0,-1.8213,-1.8067,0.0,0.0,0.0,0.0,-1.9453,-1.9733,0.0,0.0,0.0,0.0,0.0,0.0,0.0,0.0,-1.9521,-1.9621,-2.0529,0.0,-2.183,-2.182,-2.183,-2.182,0.0,-2.1741,-2.1741,-2.1741,-2.1731,-2.1909,-2.2353,-2.2441,-2.2618,-2.3047,-2.3135,-2.3135,-2.3135,-2.3135,-2.3135,-2.3135,-2.3135,-2.3135,-2.3135,-2.3135,-2.3135,-2.3135,-2.3135,-2.3135,-2.3135,-2.3135,-2.3135,-2.3135,-2.3309,-2.3734,-2.4423,-2.4594,-2.4861,-2.5115,-2.5746,-2.6069,-2.6152,-2.6823,-2.7069,-2.7151,-2.7313,-2.8174,-2.9374,-3.007,-3.1119,-3.2277,-3.2855,-3.3313,-3.3713,-3.3713,-3.3979,-3.4397,0.0,0.0,0.0,0.0,0.0,0.0,0.0,0.0,0.0,0.0,0.0,-1.6082,-1.6217,-1.6238,0.0,0.0,0.0,0.0,0.0,0.0,0.0,0.0,0.0,-1.9279,-1.9279,-1.9279,-1.9279,-1.9071,-1.9071,-1.9071,-1.9071,-1.9071,-1.9175,-1.9279,-1.9279,-1.9175,0.0,0.0,0.0,-1.7811,-1.7707,0.0,0.0,0.0,0.0,0.0,-1.7852,-1.8168,0.0,-1.821,-1.8427,-1.8788,0.0,0.0,0.0,0.0,-1.8788,-1.888,-1.943,-2.0348,-2.1087,-2.1087,-2.1087,-2.0907,-2.0447,-2.0357,-2.0357,-2.0357,-2.0357,-2.0619,-2.1606,-2.1347,-2.1526,-2.2872,-2.2325,-2.1961,-2.2413,-2.2872,-2.3135,-2.3135,-2.3135,-2.3135,-2.3135,-2.3135,-2.3135,-2.3135,-2.3135,-2.3135,-2.3135,-2.3135,-2.3135,-2.3135,-2.3309,-2.358,-2.3841,-2.3937,-2.4196,-2.454,-2.4935,-2.5179,-2.5179,-2.5673,-2.5924,-2.5935,-2.6563,-2.7447,-2.8457,-2.9394,-3.0343,-3.1291,-3.168,-3.2326,-3.3018,-3.2932,-3.3543,-3.4397,0.0,0.0,0.0,0.0,0.0,0.0,0.0,0.0,0.0,0.0,0.0,0.0,0.0,0.0,0.0,0.0,0.0,0.0,0.0,0.0,0.0,0.0,-1.9071,-1.9168,-1.9279,-1.9168,-1.9071,-1.8869,-1.8869,-1.8869,-1.8869,-1.8869,-1.8966,-1.9168,-1.9168,-1.9071,-1.8862,-1.8715,-1.8226,-1.7572,-1.7524,0.0,0.0,0.0,0.0,0.0,0.0,0.0,0.0,-1.7044,-1.7598,-1.8326,-1.8326,0.0,0.0,0.0,0.0,0.0,-1.8511,-1.9155,-1.9886,-2.0068,-2.0068,-1.9886,-1.8972,-1.8788,-1.8788,-1.8788,-1.8788,-1.9247,-2.0503,-2.0068,-2.0249,-2.2325,-2.123,-2.0503,-2.1329,-2.2138,-2.2687,-2.2687,-2.2775,-2.2872,-2.2687,-2.2775,-2.2784,-2.2687,-2.2775,-2.2872,-2.2872,-2.3047,-2.3135,-2.3135,-2.3493,-2.3754,-2.3841,-2.3841,-2.41,-2.454,-2.454,-2.454,-2.454,-2.454,-2.454,-2.456,0.0,0.0,-2.7382,-2.8566,-2.9521,-3.017,-3.017,-3.0968,-3.204,-3.1789,-3.2661,-3.3869,0.0,0.0,0.0,0.0,0.0,0.0,0.0,0.0,0.0,0.0,0.0,0.0,0.0,0.0,0.0,0.0,0.0,0.0,0.0,0.0,0.0,-1.8122,-1.8429,-1.8646,-1.8974,-1.8639,-1.8527,-1.8527,-1.8527,-1.8527,-1.8527,-1.8527,-1.8527,-1.8527,-1.8527,-1.8534,-1.8415,-1.7957,-1.7723,-1.7551,-1.7083,0.0,0.0,0.0,0.0,0.0,0.0,0.0,0.0,-1.6015,-1.6109,-1.6292,-1.6292,0.0,0.0,0.0,0.0,0.0,-1.7326,-1.7598,-1.7971,-1.8788,-1.9063,-1.8972,-1.888,-1.8788,-1.8788,-1.8788,-1.8972,-1.9247,-1.9621,-1.9803,-1.9977,-2.0593,-2.0413,-2.0232,-2.0413,-2.0503,-2.0692,-2.0692,-2.1418,-2.1596,-2.0692,-2.1418,-2.1596,-2.0692,-2.1418,-2.1872,-2.1872,-2.2687,-2.3135,-2.3135,-2.3135,-2.3406,-2.3841,-2.4186,-2.4454,-2.454,-2.454,-2.454,-2.454,-2.454,-2.454,-2.4571,0.0,-2.6158,-2.7393,-2.7964,-2.8992,-3.017,-3.017,-3.0429,-3.0765,-3.0765,-3.1122,-3.184,0.0,0.0,0.0,0.0,0.0,0.0,0.0,0.0,0.0,0.0,0.0,0.0,0.0,0.0,0.0,0.0,0.0,0.0,0.0,0.0,-1.7806,-1.8016,-1.801,-1.822,-1.8646,-1.8527,-1.8325,-1.822,-1.822,-1.822,-1.822,-1.8318,-1.8422,-1.8422,-1.8422,-1.8318,-1.8199,-1.7805,-1.7374,-1.7096,0.0,0.0,0.0,0.0,0.0,0.0,0.0,0.0,0.0,0.0,-1.5832,-1.5832,-1.5832,0.0,0.0,0.0,0.0,0.0,-1.6386,-1.648,-1.6574,-1.7037,-1.7591,-1.7878,-1.7311,-1.7217,-1.7217,-1.7217,-1.7404,-1.7777,-1.8503,-1.8519,-1.8434,-1.8603,-1.9505,-2.0051,-1.9513,-1.9869,-2.0232,-2.0232,-2.0602,-2.0692,-2.0232,-2.0593,-2.0692,-2.0232,-2.0602,-2.0872,-2.0872,-2.132,-2.1774,-2.2325,-2.2413,-2.2862,-2.3667,-2.411,-2.4368,-2.454,-2.454,-2.454,-2.454,-2.454,-2.4674,-2.4933,0.0,-2.6104,-2.6998,-2.7477,-2.8064,-2.862,-2.862,-2.9073,-2.9784,-3.0485,-3.0754,-3.0944,0.0,0.0,0.0,0.0,0.0,0.0,0.0,0.0,0.0,0.0,0.0,0.0,0.0,0.0,0.0,0.0,0.0,0.0,0.0,-1.7582,-1.7694,-1.7911,-1.7694,-1.7793,-1.8325,-1.8213,-1.8108,-1.7911,-1.7911,-1.7911,-1.7911,-1.8115,-1.8213,-1.8213,-1.8213,-1.8073,-1.7789,-1.749,-1.7083,-1.658,0.0,0.0,0.0,0.0,0.0,0.0,0.0,0.0,0.0,0.0,0.0,0.0,0.0,0.0,0.0,-1.5832,-1.5832,-1.5832,-1.5832,-1.5832,-1.5832,-1.5832,-1.6393,-1.6763,-1.6015,-1.5832,-1.5832,-1.5927,-1.6123,-1.6588,-1.7591,-1.7419,-1.716,-1.7239,-1.8511,-1.9239,-1.8511,-1.9055,-1.9505,-1.9505,-1.9687,-1.9786,-1.9505,-1.9687,-1.9778,-1.9505,-1.9786,-1.9869,-1.9869,-2.0051,-2.0512,-2.1329,-2.1498,-2.1952,-2.2775,-2.3484,-2.4013,-2.4454,-2.4454,-2.454,-2.454,-2.454,-2.4799,-2.5254,-2.5689,-2.6144,-2.661,-2.7076,-2.7262,-2.7262,-2.7262,-2.7893,-2.8806,-2.967,-2.9943,-2.9863,0.0,0.0,0.0,0.0,0.0,0.0,0.0,0.0,0.0,0.0,0.0,0.0,0.0,0.0,0.0,0.0,0.0,0.0,0.0,-1.7582,-1.7582,-1.7582,-1.7582,-1.7687,-1.8016,-1.7799,-1.7687,-1.7582,-1.7582,-1.7582,-1.7582,-1.7687,-1.7687,-1.7687,-1.7687,-1.7539,-1.7264,-1.6867,-1.6573,-1.6279,-1.5979,0.0,0.0,0.0,0.0,0.0,0.0,0.0,0.0,0.0,0.0,0.0,0.0,0.0,-1.5832,-1.5832,-1.5832,-1.5832,-1.5832,-1.5832,-1.5832,-1.5832,-1.5825,-1.592,-1.5825,-1.5832,-1.5832,-1.6123,-1.64,-1.6683,-1.6972,-1.7153,-1.7232,-1.7326,-1.7419,-1.7512,-1.7419,-1.7512,-1.7512,-1.7512,-1.8334,-1.8511,-1.7606,-1.8334,-1.8511,-1.7606,-1.8334,-1.888,-1.888,-1.9695,-2.0232,-2.0322,-2.0322,-2.0503,-2.0773,-2.1943,-2.3115,-2.4196,-2.4368,-2.454,-2.454,-2.454,-2.4799,-2.5254,-2.5689,-2.6144,-2.661,-2.7076,-2.7262,-2.7262,-2.7262,-2.7347,-2.7441,-2.7715,-2.7809,-2.7998,0.0,0.0,0.0,0.0,0.0,0.0,0.0,0.0,0.0,0.0,0.0,-1.7582,-1.7582,0.0,0.0,0.0,0.0,0.0,0.0,-1.7582,-1.7582,-1.7582,-1.7582,-1.7687,-1.7799,-1.7687,-1.7582,-1.7582,-1.7582,-1.7582,-1.7582,-1.7582,-1.7582,-1.7575,-1.7395,-1.7248,-1.7217,-1.664,-1.6373,-1.6246,-1.5945,-1.5832,0.0,0.0,0.0,0.0,0.0,0.0,0.0,0.0,-1.5832,-1.5832,-1.5832,-1.5832,-1.5832,-1.5832,-1.5832,-1.5832,-1.5832,-1.5832,-1.5832,-1.5832,-1.5832,-1.5832,-1.5832,-1.5832,-1.5832,-1.5927,-1.6123,-1.6501,-1.6885,-1.7153,-1.7326,-1.7326,-1.7326,-1.7326,-1.7326,-1.7326,-1.7326,-1.7326,-1.7598,-1.7692,-1.7326,-1.7598,-1.7692,-1.7326,-1.7699,-1.7878,-1.7878,-1.8241,-1.8696,-1.933,-1.933,-1.9695,-2.0322,-2.1676,-2.2668,-2.3115,-2.4013,-2.454,-2.4464,-2.484,-2.5213,-2.5658,-2.6113,-2.6568,-2.7013,-2.7189,-2.7262,-2.7262,-2.7262,-2.7262,-2.7357,-2.7357,-2.7441,-2.7441,0.0,0.0,0.0,0.0,0.0,0.0,0.0,0.0,-1.7582,0.0,0.0,0.0,0.0,-1.7582,0.0,0.0,0.0,0.0,-1.7582,-1.7582,-1.7582,-1.7582,-1.7582,-1.7582,-1.7582,-1.7582,-1.7582,-1.7582,-1.7582,-1.7582,-1.7582,-1.7488,-1.7442,-1.7435,-1.7141,-1.6961,-1.6847,-1.6446,-1.6219,-1.6112,-1.5912,-1.5832,0.0,0.0,0.0,0.0,0.0,0.0,0.0,0.0,-1.535,-1.535,-1.573,-1.5832,-1.5832,-1.5832,-1.5832,-1.5832,-1.5832,-1.5832,-1.5832,-1.5832,-1.5832,-1.5832,-1.5832,-1.5832,-1.5927,-1.5927,-1.6218,-1.6602,-1.6972,-1.7239,-1.7326,-1.7326,-1.7326,-1.7326,-1.7326,-1.7326,-1.7326,-1.7326,-1.7326,-1.7326,-1.7326,-1.7326,-1.7326,-1.7326,-1.7326,-1.7326,-1.7326,-1.7326,-1.7598,-1.8334,-1.8334,-1.8603,-1.9239,-2.0674,-2.14,-2.1498,-2.2969,-2.4032,-2.4767,-2.5088,-2.5544,-2.6113,-2.6434,-2.6837,-2.7262,-2.7262,-2.7262,-2.7262,-2.7262,-2.7262,-2.7262,-2.7262,-2.7262,-2.7262,0.0,0.0,0.0,0.0,0.0,0.0,0.0,0.0,-1.7582,-1.7582,-1.7582,0.0,0.0,0.0,0.0,0.0,0.0,0.0,-1.7582,-1.7582,-1.7582,-1.7582,-1.7582,-1.7575,-1.7575,-1.7575,-1.7575,-1.7582,-1.7582,-1.7582,-1.7569,-1.7281,-1.7148,-1.7134,-1.6834,-1.6547,-1.6273,-1.6273,-1.6099,-1.5832,-1.5832,-1.5832,-1.5832,0.0,0.0,0.0,0.0,0.0,0.0,0.0,-1.4292,-1.449,-1.5445,-1.5737,-1.5737,-1.5737,-1.5825,-1.5825,-1.5832,-1.5832,-1.5832,-1.5832,-1.5832,-1.5832,-1.5832,-1.6028,-1.6224,-1.6224,-1.6602,-1.7066,-1.7239,-1.7326,-1.7326,-1.7326,-1.7326,-1.7326,-1.7326,-1.7326,-1.7326,-1.7326,-1.7326,-1.7326,-1.7326,-1.7326,-1.7326,-1.7326,-1.7326,-1.7326,-1.7326,-1.7326,-1.7326,-1.7326,-1.7326,-1.7326,-1.7326,-1.8503,-1.9239,-1.9538,-2.1077,-2.3009,-2.5145,-2.5155,-2.573,-2.6568,-2.6579,-2.6837,-2.7262,-2.7262,-2.7262,-2.7262,-2.7262,-2.7262,-2.7262,-2.7262,-2.7262,-2.7262,0.0,0.0,0.0,0.0,0.0,0.0,0.0,0.0,-1.7582,-1.7582,-1.7582,0.0,0.0,0.0,0.0,0.0,0.0,0.0,-1.7582,-1.7582,-1.7495,-1.7288,-1.7281,-1.7181,-1.6967,-1.6967,-1.7168,-1.7582,-1.7582,-1.7475,-1.7275,-1.7188,-1.7041,-1.6827,-1.6533,-1.6353,-1.6259,-1.6052,-1.5912,-1.5832,-1.5832,-1.5832,-1.5832,0.0,0.0,0.0,0.0,0.0,0.0,0.0,0.0,0.0,-1.3505,-1.3601,-1.3794,-1.4484,-1.4777,-1.4873,-1.5635,-1.5832,-1.5832,-1.5832,-1.5832,-1.5832,-1.5832,-1.5832,-1.5933,-1.613,-1.6501,-1.6777,-1.7066,-1.7239,-1.7326,-1.7326,-1.7326,-1.7326,-1.7326,-1.7326,-1.7326,-1.7326,-1.7326,-1.7326,-1.7326,-1.7326,-1.7326,-1.7326,-1.7326,-1.7326,-1.7326,-1.7326,-1.7326,-1.7326,-1.7326,-1.7326,-1.7326,-1.8746,-1.9512,-1.9621,-2.1284,-2.2455,-2.3148,-2.3718,-2.4504,-2.553,-2.5849,-2.6451,-2.7262,-2.7262,-2.7262,-2.7262,-2.7262,-2.7262,-2.7262,-2.7262,-2.7262,-2.7262,0.0,0.0,0.0,0.0,0.0,0.0,-1.7179,-1.7378,-1.7582,-1.7582,-1.7582,-1.7582,0.0,0.0,0.0,-1.7582,-1.7475,0.0,-1.7408,-1.7301,-1.7154,-1.6981,-1.6974,-1.6894,-1.6707,-1.6707,-1.6881,-1.7235,-1.7235,-1.7148,-1.6974,-1.6854,-1.6707,-1.652,-1.6226,-1.5899,-1.5499,-1.5325,-1.4962,-1.4567,-1.4567,-1.4567,-1.4567,0.0,0.0,0.0,0.0,0.0,0.0,0.0,0.0,0.0,-1.2436,-1.2533,-1.2727,-1.3908,-1.4196,-1.4286,-1.4962,-1.554,-1.573,-1.5255,-1.554,-1.5832,-1.5832,-1.5832,-1.5927,-1.6407,-1.6595,-1.6683,-1.7059,-1.7239,-1.7326,-1.7326,-1.7326,-1.7326,-1.7326,-1.7326,-1.7326,-1.7326,-1.7326,-1.7326,-1.7326,-1.7326,-1.7326,-1.7326,-1.7326,-1.7326,-1.7326,-1.7326,-1.7391,-1.7516,-1.7523,-1.7582,-1.7713,-1.8659,-1.9143,-1.9247,-2.0442,-2.1088,-2.119,-2.2688,-2.3864,-2.4727,-2.5383,-2.6284,-2.7262,-2.7262,-2.7262,-2.7262,-2.7262,-2.7262,-2.7262,-2.7262,-2.7262,-2.7262,0.0,0.0,-1.6624,-1.6624,0.0,0.0,-1.7073,-1.7378,-1.7582,-1.7582,-1.7582,-1.7582,0.0,0.0,0.0,-1.7549,-1.7301,-1.7141,-1.7114,-1.6854,-1.6693,-1.6667,-1.664,-1.6627,-1.6627,-1.6627,-1.6627,-1.6627,-1.668,-1.6693,-1.666,-1.6393,-1.6259,-1.6219,-1.5856,-1.5159,-1.4298,-1.4202,-1.3613,-1.2727,-1.2727,-1.2727,-1.2727,-1.2727,0.0,0.0,0.0,0.0,0.0,0.0,0.0,0.0,-1.1755,-1.1945,-1.2242,-1.3613,-1.3794,-1.3686,-1.4094,-1.4867,-1.5255,-1.4388,-1.4867,-1.554,-1.5635,-1.5642,-1.5927,-1.6784,-1.6784,-1.677,-1.7239,-1.7326,-1.7326,-1.7326,-1.7232,-1.7138,-1.7138,-1.7037,-1.7044,-1.7044,-1.7138,-1.7138,-1.7138,-1.7232,-1.734,-1.7369,-1.7377,-1.7384,-1.7413,-1.7421,-1.7552,-1.7852,-1.786,-1.7999,-1.8299,-1.8328,-1.8456,-1.8669,-1.9074,-1.9333,-1.9651,-2.2085,-2.3447,-2.3998,-2.5197,-2.6284,-2.7156,-2.7262,-2.7262,-2.7262,-2.7262,-2.7262,-2.7262,-2.7262,-2.7262,-2.7262,0.0,0.0,-1.6318,-1.6105,0.0,0.0,-1.6537,-1.6961,-1.7279,-1.7279,-1.7483,-1.7582,-1.7582,-1.7582,0.0,-1.7261,-1.7188,-1.7048,-1.6814,-1.674,-1.6607,-1.638,-1.6139,-1.6019,-1.6019,-1.6019,-1.6019,-1.6019,-1.648,-1.6587,-1.6359,-1.6299,-1.6146,-1.5823,-1.4994,-1.449,-1.4196,-1.3414,-1.2926,-1.2727,-1.2727,-1.2727,-1.2727,-1.2727,-1.2047,0.0,0.0,0.0,0.0,0.0,0.0,0.0,-0.9509,-0.9509,-0.9801,-1.117,-1.1463,-1.1653,-1.2732,-1.3216,-1.3307,-1.3119,-1.3216,-1.3601,-1.4388,-1.4586,-1.5064,-1.64,-1.6683,-1.677,-1.7239,-1.7326,-1.7326,-1.7326,-1.6655,-1.6082,-1.6082,-1.5412,-1.4937,-1.4937,-1.5602,-1.6082,-1.6082,-1.685,-1.7435,-1.7691,-1.7706,-1.7823,-1.8079,-1.8094,-1.8123,-1.8196,-1.8196,-1.8233,-1.8299,-1.8555,-1.8686,-1.8795,-1.9316,-1.9575,-1.9678,-2.0696,-2.1736,-2.292,-2.4903,-2.579,-2.6081,-2.6965,-2.7262,-2.7262,-2.7262,-2.7262,-2.7262,-2.7262,-2.7262,-2.7262,0.0,0.0,0.0,0.0,0.0,0.0,0.0,0.0,-1.68,-1.6935,-1.7166,-1.7384,-1.7384,-1.7462,0.0,0.0,-1.6894,-1.666,-1.6506,-1.6366,-1.6219,-1.6066,-1.5912,-1.5832,-1.5832,-1.5832,-1.5832,-1.5832,-1.6139,-1.6213,-1.6059,-1.6059,-1.5979,-1.573,-1.4777,-1.4004,-1.3511,-1.2436,-1.1663,-1.1179,-1.1179,-1.1179,-1.1179,-1.1082,-1.0493,-0.9801,-0.9706,0.0,0.0,0.0,0.0,0.0,0.0,0.0,-0.9063,-1.0462,-1.086,-1.1048,-1.1741,-1.2309,-1.2779,-1.2759,-1.2727,-1.2829,-1.3414,-1.3511,-1.38,-1.4752,-1.533,-1.571,-1.5697,-1.5697,-1.5697,-1.5792,-1.5412,-1.5127,-1.5127,-1.4651,-1.4316,-1.4449,-1.4952,-1.5286,-1.5322,-1.6323,-1.7078,-1.7239,-1.775,-1.8123,-1.8291,-1.8299,-1.8372,-1.8525,-1.8533,-1.8613,-1.8767,-1.8935,-1.9023,-1.9023,-1.9398,-1.9576,-1.968,-2.0308,-2.1224,-2.2526,-2.371,-2.4501,-2.4992,-2.5577,-2.5771,-2.5771,-2.637,-2.6572,-2.6572,-2.7061,-2.7262,-2.7262,0.0,0.0,0.0,0.0,0.0,0.0,0.0,0.0,0.0,-1.6599,-1.6955,-1.7047,-1.7002,-1.7094,-1.7005,0.0,0.0,0.0,-1.6199,-1.5965,-1.5832,-1.5832,-1.5832,-1.5832,-1.5832,-1.5737,-1.5737,-1.5737,-1.5737,-1.5737,-1.5737,-1.5737,-1.573,-1.554,-1.4484,-1.3414,-1.2339,-1.137,-1.04,-0.9628,-0.9628,-0.9628,-0.9529,-0.9331,-0.9031,-0.8726,-0.8531,-0.835,-0.8396,-0.833,0.0,0.0,0.0,0.0,-0.901,-1.014,-1.0551,-1.0625,-1.0676,-1.1543,-1.2399,-1.2263,-1.2206,-1.2294,-1.2446,-1.2436,-1.2533,-1.2732,-1.3698,-1.4268,-1.3878,-1.3878,-1.3974,-1.4172,-1.4076,-1.3998,-1.4039,-1.3955,-1.386,-1.412,-1.4249,-1.443,-1.4636,-1.5676,-1.6413,-1.6666,-1.7575,-1.8209,-1.8467,-1.8467,-1.8591,-1.8869,-1.8877,-1.9001,-1.9272,-1.9279,-1.9279,-1.9279,-1.9279,-1.948,-1.968,-2.0205,-2.1019,-2.2131,-2.2426,-2.302,-2.38,-2.3989,-2.4088,-2.4196,-2.5089,-2.5392,-2.5489,-2.637,-2.686,-2.7061,0.0,0.0,0.0,0.0,0.0,0.0,0.0,0.0,0.0,0.0,-1.663,-1.6641,-1.6406,-1.6445,-1.6324,-1.6124,-1.5829,-1.568,-1.5905,0.0,0.0,-1.5832,-1.5832,-1.5832,-1.5832,-1.5635,-1.554,-1.554,-1.554,-1.554,-1.554,-1.5737,-1.535,-1.449,-1.3414,-1.2344,-1.1365,-1.0306,-0.9723,-0.9628,-0.9628,-0.9628,-0.9529,-0.9331,-0.9031,-0.8726,-0.8531,-0.8324,-0.8343,-0.8265,-0.8453,0.0,0.0,0.0,-0.8591,-0.9014,-0.9119,-0.922,-0.9507,-0.9812,-1.0178,-1.0294,-1.0247,-1.0501,-1.1212,-1.1365,-1.1365,-1.1468,-1.2436,-1.3403,-1.3488,-1.3776,-1.3878,-1.3974,-1.3397,-1.2997,-1.3116,-1.2458,-1.1947,-1.2157,-1.2991,-1.3614,-1.3642,-1.4558,-1.5669,-1.6959,-1.7183,-1.7811,-1.9133,-1.9147,-1.9169,-1.9213,-1.9213,-1.9228,-1.9279,-1.9279,-1.9279,-1.9279,-1.9279,-1.948,-1.968,-1.9983,-2.0403,-2.0822,-2.203,-2.2627,-2.282,-2.3701,-2.4088,-2.4088,-2.4285,-2.4285,-2.4285,-2.4482,-2.5089,-2.5887,0.0,0.0,0.0,0.0,0.0,0.0,0.0,0.0,0.0,0.0,0.0,-1.6318,-1.6154,-1.608,-1.5929,-1.5718,-1.5447,-1.5306,-1.5369,-1.5363,-1.5452,-1.5635,-1.5635,-1.5635,-1.5832,-1.5635,-1.554,-1.554,-1.4771,-1.4478,-1.458,-1.4082,-1.3992,-1.4202,-1.2635,-1.1658,-1.117,-1.0015,-0.9628,-0.9628,-0.9628,-0.9529,-0.9331,-0.9031,-0.8829,-0.8542,-0.8438,-0.8313,-0.8296,-0.8462,-0.856,-0.8625,-0.871,0.0,0.0,0.0,-0.9068,-0.9262,-0.9591,-0.9711,-0.9723,-1.0059,-1.0042,-1.0121,-1.0543,-1.0536,-1.0458,-1.0458,-1.087,-1.1179,-1.1468,-1.176,-1.1996,-1.2324,-1.2152,-1.2134,-1.2258,-1.1987,-1.1761,-1.1973,-1.2411,-1.277,-1.2785,-1.3846,-1.4733,-1.5475,-1.665,-1.7651,-1.8318,-1.8959,-1.9279,-1.9279,-1.9279,-1.9279,-1.9279,-1.9279,-1.9279,-1.9279,-1.9279,-1.9376,-1.948,-1.9776,-2.0094,-2.0522,-2.1326,-2.1623,-2.1623,-2.2114,-2.2308,-2.2426,-2.3138,-2.3388,-2.3338,-2.4044,-2.4588,-2.4894,0.0,0.0,0.0,0.0,0.0,0.0,0.0,0.0,0.0,0.0,0.0,-1.6088,-1.5749,0.0,0.0,0.0,-1.5005,-1.4885,-1.4987,-1.5083,-1.5178,-1.5356,-1.5356,-1.5452,-1.5642,-1.5452,-1.5159,-1.4867,-1.3896,-1.3414,-1.3414,-1.2436,-1.2533,-1.3414,-1.1853,-1.1077,-1.0788,-0.9916,-0.9529,-0.9529,-0.9529,-0.9331,-0.9031,-0.8829,-0.8652,-0.851,-0.833,-0.8319,-0.8418,-0.8635,-0.8737,-0.8788,-0.8903,-0.894,0.0,0.0,0.0,-0.9354,-0.9772,-0.9754,-0.9757,-1.0027,-1.0229,-1.0217,-1.0172,-1.0054,-0.9953,-0.9953,-0.9851,-0.9862,-0.9962,-1.0319,-1.0536,-1.0887,-1.1258,-1.1666,-1.1765,-1.1793,-1.1978,-1.2191,-1.2214,-1.2276,-1.2422,-1.3197,-1.3846,-1.4169,-1.5767,-1.6942,-1.7582,-1.8429,-1.8959,-1.9272,-1.9279,-1.9279,-1.9279,-1.9279,-1.9279,-1.9279,-1.9279,-1.9279,-1.9279,-1.9576,-1.9887,-2.0308,-2.0617,-2.0822,-2.0925,-2.0925,-2.0972,-2.1076,-2.2146,-2.239,-2.2299,-2.3382,-2.3741,-2.38,0.0,0.0,0.0,0.0,0.0,0.0,0.0,0.0,0.0,0.0,0.0,-1.5698,-1.5185,-1.5113,-1.4996,-1.4762,-1.4502,-1.449,-1.4688,-1.4987,-1.5083,-1.5083,-1.5083,0.0,-1.5178,-1.4885,-1.4196,-1.3216,-1.3119,-1.2732,-1.2052,-1.1268,-1.1072,-1.1365,-1.1268,-1.0596,-0.9727,-0.9628,-0.943,-0.9232,-0.9232,-0.9031,-0.8825,-0.8531,-0.8528,-0.8663,-0.8367,-0.8448,-0.8689,-0.8706,-0.8808,-0.8927,-0.8937,-0.894,-0.894,0.0,0.0,0.0,-0.9368,-0.9578,-0.9862,-1.0019,-1.0198,-1.0375,-1.0201,-1.0152,-1.0148,-1.0148,-1.014,-1.0136,-1.024,-1.051,-1.0602,-1.0408,-1.1169,-1.1775,-1.1672,-1.1912,-1.2195,-1.2398,-1.2422,-1.2427,-1.2441,-1.2436,-1.298,-1.4056,-1.4272,-1.5345,-1.7477,-1.7687,-1.8213,-1.9272,-1.9279,-1.9279,-1.9279,-1.9279,-1.9279,-1.9279,-1.9279,-1.9279,-1.9279,-1.9576,-1.968,-1.9783,-2.0308,-2.0617,-2.0925,-2.0925,-2.1123,-2.1425,-2.1441,-2.1433,-2.1425,-2.1546,-2.2039,-2.2627,0.0,0.0,0.0,0.0,0.0,0.0,0.0,0.0,0.0,0.0,0.0,0.0,0.0,-1.5107,-1.489,-1.4443,-1.4394,-1.4298,-1.44,-1.4496,-1.4688,-1.4885,-1.4196,-1.3902,-1.41,-1.3221,-1.2538,-1.215,-1.1268,-1.0779,-1.0685,-0.9706,-0.9513,-0.9912,-1.0109,-0.9916,-0.9628,-0.943,-0.9335,-0.9137,-0.9031,-0.8829,-0.8542,-0.8546,-0.8523,-0.8501,-0.8486,-0.8621,-0.8726,-0.8825,-0.8893,-0.894,-0.894,-0.894,-0.894,-0.894,-0.894,-0.894,-0.9268,-0.9489,-0.9691,-1.0069,-1.0272,-1.0365,-1.0517,-1.0416,-1.0335,-1.0335,-1.0245,-1.016,-1.016,-1.0422,-1.0625,-1.0644,-1.1138,-1.1566,-1.1873,-1.2008,-1.2144,-1.2323,-1.2441,-1.2441,-1.2441,-1.2441,-1.2545,-1.298,-1.3732,-1.4595,-1.5339,-1.6836,-1.7793,-1.822,-1.8959,-1.9279,-1.9279,-1.9279,-1.9279,-1.9279,-1.9279,-1.9279,-1.9279,-1.9376,-1.9583,-1.9687,-2.0121,-2.0422,-2.0728,-2.093,-2.1133,-2.1478,-2.1921,-2.1846,-2.1481,-2.1695,-2.1619,-2.1522,0.0,0.0,0.0,-1.3505,0.0,-1.1869,-1.1869,-1.1869,-1.22,-1.3403,0.0,0.0,0.0,0.0,-1.397,-1.3756,-1.41,-1.4298,-1.4298,-1.4298,-1.4202,-1.4004,-1.3318,-1.2926,-1.2732,-1.1928,-1.1339,-1.0979,-1.0061,-0.9569,-0.941,-0.8726,-0.863,-0.9031,-0.9229,-0.9426,-0.943,-0.9232,-0.9133,-0.8939,-0.8788,-0.8578,-0.8258,-0.8568,-0.8546,-0.8374,-0.8621,-0.8743,-0.8801,-0.8903,-0.894,-0.894,-0.894,-0.894,-0.894,-0.894,-0.894,-0.8937,-0.9158,-0.9268,-0.9489,-0.9926,-1.0147,-1.0366,-1.0582,-1.0494,-1.0521,-1.0521,-1.0424,-1.0339,-1.0339,-1.0551,-1.0678,-1.0745,-1.113,-1.1428,-1.166,-1.1896,-1.2114,-1.2223,-1.2327,-1.2441,-1.2441,-1.2441,-1.2441,-1.2441,-1.3088,-1.3738,-1.4169,-1.5666,-1.6617,-1.7041,-1.8108,-1.8743,-1.8743,-1.9063,-1.9279,-1.9279,-1.9279,-1.9279,-1.9279,-1.9279,-1.9435,-1.9762,-1.9978,-2.0279,-2.0597,-2.1023,-2.1271,-2.1612,-2.2285,-2.2024,-2.1435,-2.1878,-2.1513,-2.1019,-1.5095,-1.4355,-1.3362,-1.2207,-1.1194,-1.0664,-1.0664,-1.0668,-1.1109,-1.22,0.0,0.0,0.0,0.0,0.0,-1.2586,-1.3613,-1.4196,-1.4196,-1.4196,-1.3709,-1.2727,-1.263,-1.2145,-1.117,-1.1274,-1.068,-0.9509,-0.9686,-0.9284,-0.8432,-0.8432,-0.8531,-0.8825,-0.8825,-0.8931,-0.9145,-0.9137,-0.8832,-0.8446,-0.861,-0.8379,-0.8079,-0.8377,-0.8489,-0.8509,-0.8662,-0.8811,-0.894,-0.894,-0.894,-0.894,-0.894,-0.894,-0.894,-0.894,-0.894,-0.894,0.0,0.0,0.0,-0.9379,-0.9816,-1.0257,-1.0257,-1.0472,-1.0692,-1.0692,-1.0692,-1.0692,-1.0692,-1.0692,-1.0635,-1.0469,-1.1016,-1.1459,-1.1126,-1.1564,-1.2001,-1.2005,-1.2219,-1.2436,-1.2441,-1.2441,-1.2441,-1.2441,-1.2441,-1.2871,-1.4056,-1.4169,-1.4696,-1.5861,-1.7041,-1.7582,-1.7582,-1.8743,-1.9279,-1.9279,-1.9279,-1.9279,-1.9294,-1.9294,-1.9469,-1.9777,-1.9784,-2.0104,-2.0643,-2.1294,-2.1526,-2.162,-2.2285,-2.2057,-2.1518,-2.185,-2.152,-2.0925,-1.4823,-1.3485,-1.2294,-1.1879,-1.0363,-0.9305,-0.9305,-0.9297,-0.9809,0.0,0.0,0.0,-1.1842,-1.1653,-1.163,-1.171,-1.1948,-1.2052,-1.2052,-1.2052,-1.195,-1.1658,-1.0877,-1.0288,-1.0096,-0.9363,-0.8774,-0.8432,-0.8475,-0.8375,-0.8137,-0.8137,-0.8237,-0.8528,-0.8528,-0.8596,-0.8805,-0.8685,-0.8531,-0.8446,-0.8407,-0.8347,-0.8238,-0.8533,-0.8648,-0.8665,0.0,-0.8903,-0.894,-0.894,-0.894,-0.894,-0.894,-0.894,-0.894,-0.894,-0.894,-0.894,-0.894,0.0,0.0,0.0,0.0,0.0,-0.9926,-1.0147,-1.0363,-1.0363,-1.0582,-1.0692,-1.0692,-1.0692,-1.0676,-1.0627,-1.0769,-1.1021,-1.1126,-1.1236,-1.1455,-1.2005,-1.2114,-1.2219,-1.2327,-1.2441,-1.2441,0.0,-1.2441,-1.2545,-1.2871,-1.3738,-1.4696,-1.5861,-1.7041,-1.7582,-1.7582,-1.8743,-1.9279,-1.9279,-1.9279,-1.9396,-1.963,-1.963,-1.9806,-2.012,-2.0355,-2.0567,-2.0678,-2.1098,-2.145,-2.1752,-2.2084,-2.1937,-2.1518,-2.1626,-2.1309,-2.0925,-1.4045,-1.2635,-1.1462,-1.1053,-0.9661,-0.8635,-0.8699,-0.8784,-0.9081,0.0,0.0,0.0,-1.0432,-1.0672,-1.0901,-1.0901,-1.1199,-1.1325,-1.1325,-1.1325,-1.1225,-1.0728,-1.0129,-0.9629,-0.9127,-0.8589,-0.8289,-0.8225,-0.8289,-0.8286,-0.8225,-0.8225,-0.8323,-0.8424,-0.8424,-0.8477,-0.866,-0.8463,-0.8424,-0.8438,-0.8495,-0.8418,-0.8391,-0.8689,-0.8767,-0.873,0.0,0.0,-0.894,-0.894,-0.894,-0.894,-0.894,-0.894,-0.894,-0.894,-0.894,-0.894,-0.894,-0.894,-0.8937,-0.9158,0.0,0.0,-0.9706,-1.0036,-1.0366,-1.0472,-1.0582,-1.0692,-1.0692,-1.0692,-1.0692,-1.0692,-1.0692,-1.0802,-1.0911,-1.1021,-1.1236,-1.1564,-1.1715,-1.1806,-1.1996,-1.2036,-1.213,-1.2214,-1.2332,-1.2441,-1.2441,-1.3088,-1.3727,-1.4471,-1.5547,-1.6405,-1.6935,-1.8003,-1.8855,-1.9279,-1.9411,-1.9579,-1.9769,-1.9901,-2.0135,-2.045,-2.064,-2.0801,-2.0925,-2.1151,-2.1269,-2.1554,-2.1888,-2.178,-2.1284,-2.1364,-2.1077,-2.0701,0.0,-1.2013,-1.1052,-0.9948,-0.9076,-0.8506,-0.8638,-0.8689,-0.8652,0.0,-0.8589,-0.8439,-0.832,-0.9228,-0.9855,-0.9855,-1.0659,-1.1165,-1.1165,-1.1165,-1.0854,-0.9928,-0.9931,-0.9518,-0.8482,-0.8615,-0.8618,-0.8482,-0.8618,-0.8615,-0.8482,-0.8482,-0.8482,-0.8482,-0.8482,-0.8489,-0.8506,-0.8506,-0.8516,-0.8543,-0.8662,-0.8628,-0.8537,-0.8828,-0.8855,-0.8754,-0.8889,-0.894,-0.894,-0.894,-0.894,-0.894,-0.894,-0.894,-0.894,-0.894,-0.894,-0.894,-0.894,-0.894,-0.894,-0.894,-0.9161,0.0,-0.9596,-0.9926,-1.0257,-1.0472,-1.0582,-1.0582,-1.0692,-1.0692,-1.0692,-1.0692,-1.0692,-1.0692,-1.0692,-1.0911,-1.1017,-1.1126,-1.1186,-1.1357,-1.152,-1.1581,-1.1759,-1.1959,-1.2209,-1.2332,-1.2441,-1.2441,-1.2441,-1.2441,-1.3516,-1.4696,-1.5648,-1.6861,-1.7945,-1.8905,-1.9333,-1.9506,-1.9657,-1.9939,-2.0354,-2.0779,-2.0779,-2.094,-2.1211,-2.1211,-2.1211,-2.1211,-2.1774,-2.1677,-2.1115,-2.1114,-2.088,-2.0536,-1.3318,-1.2083,-1.0941,-0.9859,-0.8914,-0.8323,-0.835,-0.8348,-0.8402,-0.8429,-0.82,-0.8036,-0.8008,-0.8205,-0.8227,-0.8227,-0.8335,-0.8479,-0.8685,-0.8685,-0.8685,-0.8793,-0.8793,-0.8689,-0.8482,-0.8513,-0.8513,-0.8482,-0.8513,-0.8513,-0.8482,-0.8482,-0.8482,-0.8482,-0.8482,-0.855,-0.8665,-0.8665,-0.8737,-0.8842,-0.8747,-0.8693,-0.8686,-0.8869,-0.892,-0.8899,-0.8927,-0.894,-0.894,-0.894,-0.894,-0.894,-0.894,-0.894,-0.894,-0.894,-0.894,-0.894,-0.894,-0.894,-0.894,-0.894,-0.8937,0.0,-0.9047,-0.9379,-0.9599,-0.9596,-0.9816,-1.0033,-1.0366,-1.0366,-1.0472,-1.0692,-1.0692,-1.0692,-1.0692,-1.0802,-1.0911,-1.1017,-1.1082,-1.1091,-1.134,-1.127,-1.1234,-1.1438,-1.1806,-1.2223,-1.2436,-1.2441,-1.2441,-1.2441,-1.3516,-1.4272,-1.4487,-1.5868,-1.6627,-1.6844,-1.7004,-1.7811,-1.9054,-1.8996,-1.9765,-2.1115,-2.1115,-2.1152,-2.1211,-2.1211,-2.1211,-2.1211,-2.1325,-2.1232,-2.1115,-2.0786,-2.0665,-2.0536,-1.3318,-1.2047,-1.0877,-0.9801,-0.8796,-0.818,-0.8258,-0.8186,-0.812,-0.8265,-0.8075,-0.7934,-0.7826,-0.7874,-0.7941,-0.7941,-0.7883,-0.7846,-0.7951,-0.7951,-0.8059,-0.8275,-0.838,-0.8487,-0.8487,-0.8602,-0.871,-0.871,-0.871,-0.871,-0.871,-0.871,-0.871,-0.871,-0.871,-0.8754,-0.8825,-0.8825,-0.8869,-0.893,-0.8855,-0.8825,-0.8832,-0.891,-0.894,-0.894,-0.894,-0.894,-0.894,-0.894,-0.894,-0.894,-0.894,-0.894,-0.894,-0.894,-0.894,-0.894,-0.894,-0.894,0.0,-0.894,0.0,0.0,0.0,-0.9268,-0.9489,-0.9599,-0.9706,-0.9816,-1.0036,-1.0036,-1.0147,-1.0472,-1.0472,-1.0582,-1.0692,-1.0692,-1.0802,-1.0907,-1.0675,-1.0653,-1.0852,-1.0706,-1.0819,-1.1125,-1.1429,-1.1751,-1.2075,-1.2167,-1.2219,-1.2441,-1.3093,-1.38,-1.4336,-1.5127,-1.5806,-1.6354,-1.6612,-1.7144,-1.797,-1.8689,-1.9537,-2.027,-2.0974,-2.1211,-2.1211,-2.1211,-2.1211,-2.1211,-2.1211,-2.1222,-2.1121,-2.0626,-2.0453,-2.0345,-1.3414,-1.2339,-1.1268,-1.0096,-0.9019,-0.8378,-0.8509,-0.8139,-0.7852,-0.8031,-0.7965,-0.7712,-0.7493,-0.7712,-0.7823,-0.7823,-0.7823,-0.7823,-0.7934,-0.7934,-0.7934,-0.8045,-0.8266,-0.8484,-0.8484,-0.8712,-0.8826,-0.894,-0.894,-0.894,-0.894,-0.894,-0.894,-0.894,-0.894,-0.894,-0.894,-0.894,-0.894,-0.894,-0.894,-0.894,-0.894,-0.894,-0.894,-0.894,-0.894,-0.894,-0.894,-0.894,-0.894,-0.894,-0.894,-0.894,-0.894,0.0,0.0,0.0,0.0,0.0,0.0,0.0,0.0,-0.894,0.0,0.0,0.0,-0.9596,-0.9596,-0.9596,-0.9706,-0.9706,-0.9816,-1.0147,-1.0257,-1.0366,-1.0582,-1.0692,-1.0692,-1.0692,-1.0379,-1.0221,-1.0367,-1.0286,-1.0353,-1.0815,-1.1015,-1.1248,-1.1607,-1.1792,-1.2023,-1.2393,-1.2599,-1.3262,-1.4246,-1.4488,-1.4939,-1.5948,-1.6201,-1.6437,-1.6795,-1.8281,-1.9087,-1.9325,-2.0622,-2.1211,-2.1211,-2.1211,-2.1211,-2.1211,-2.1211,-2.1211,-2.113,-2.0479,-2.0237,-2.0142,-1.3703,-1.3119,-1.2533,-1.1268,-1.0096,-0.9418,-0.9438,-0.8271,-0.7333,-0.7169,-0.7194,-0.7265,-0.7265,-0.7265,-0.7265,-0.7265,-0.7265,-0.7379,-0.7607,-0.7607,-0.7715,-0.8045,-0.8045,-0.8156,-0.8484,-0.8484,-0.8709,-0.894,-0.894,-0.894,-0.894,-0.894,-0.894,-0.894,-0.894,-0.894,-0.894,-0.894,-0.894,-0.894,-0.894,-0.894,0.0,-0.894,-0.894,-0.894,-0.894,-0.894,-0.894,0.0,-0.894,-0.894,0.0,-0.894,-0.894,-0.894,0.0,0.0,0.0,0.0,0.0,0.0,-0.894,0.0,0.0,0.0,-0.894,-0.9047,0.0,-0.9047,-0.9379,0.0,0.0,-0.9816,-1.0147,-1.0257,-1.0366,-1.0582,-1.0692,-1.0692,-1.0379,-1.0172,-1.0193,-1.0006,-1.0095,-1.0319,-1.06,-1.0893,-1.1278,-1.1576,-1.1867,-1.2274,-1.247,-1.2799,-1.3255,-1.3476,-1.3582,-1.3698,-1.4025,-1.4713,-1.5768,-1.7079,-1.8267,-1.9325,-2.0622,-2.1211,-2.1211,-2.1211,-2.1211,-2.1211,-2.1211,-2.1211,-2.113,-2.0479,-2.0237,-2.0142,-1.4765,-1.38,-1.2926,-1.2441,-1.0779,-0.9608,-0.9608,-0.8435,-0.7392,-0.7183,-0.7147,-0.7154,-0.7154,-0.7154,-0.7154,-0.7154,-0.7154,-0.7265,-0.7379,-0.7379,-0.7379,-0.7487,-0.7715,-0.7826,-0.7937,-0.8377,-0.8598,-0.8712,-0.8826,-0.894,-0.894,-0.894,-0.894,-0.894,-0.894,-0.894,-0.894,-0.894,-0.894,-0.894,-0.894,-0.894,0.0,-0.894,-0.894,-0.894,-0.894,-0.894,-0.894,0.0,-0.894,0.0,0.0,0.0,0.0,-0.8712,0.0,-0.8712,0.0,0.0,0.0,0.0,0.0,0.0,-0.894,0.0,-0.894,0.0,0.0,0.0,0.0,0.0,0.0,0.0,-0.9706,-0.9816,-1.0036,-1.0257,-1.0582,-1.0692,-1.0379,-1.0079,-0.9872,-0.9782,-0.9734,-0.9933,-1.0103,-1.0439,-1.1061,-1.125,-1.1598,-1.213,-1.233,-1.2669,-1.3017,-1.3221,-1.3323,-1.3323,-1.3531,-1.3923,-1.4272,-1.5688,-1.6979,-1.8267,-1.9557,-2.0507,-2.1211,-2.1211,-2.1211,-2.1211,-2.1211,-2.1211,-2.113,-2.0479,-2.0237,-2.0172,-1.5635,-1.4573,-1.3607,-1.3414,-1.156,-0.9805,-0.9118,-0.8153,-0.75,-0.7214,-0.7194,-0.7122,-0.7152,-0.7154,-0.7154,-0.7154,-0.7154,-0.7154,-0.7154,-0.7154,-0.7154,-0.7154,-0.7379,-0.7493,-0.7607,-0.8045,-0.8377,-0.8484,-0.8712,-0.8826,-0.894,-0.894,-0.894,-0.894,-0.894,-0.894,-0.894,-0.894,-0.894,-0.894,-0.894,-0.894,-0.894,-0.894,-0.894,-0.894,-0.894,-0.894,-0.894,-0.894,-0.894,0.0,-0.894,-0.894,-0.8826,0.0,-0.8598,-0.8598,-0.8484,0.0,0.0,0.0,0.0,0.0,0.0,0.0,0.0,0.0,0.0,0.0,0.0,0.0,-0.8937,-0.9268,0.0,-0.9489,-0.9706,-0.9926,-1.0257,-1.0586,-1.0379,-1.0022,-0.9661,-0.9628,-0.9628,-0.9628,-0.9786,-1.0149,-1.0736,-1.0975,-1.1376,-1.2094,-1.2299,-1.2517,-1.2876,-1.3016,-1.3084,-1.3084,-1.3324,-1.3324,-1.3084,-1.4738,-1.5919,-1.6856,-1.815,-1.9325,-2.0148,-2.05,-2.0737,-2.0737,-2.1089,-2.1211,-2.113,-2.0479,-2.0237,-2.0201,-1.6015,-1.5363,-1.4885,-1.4394,-1.2538,-1.0391,-0.8038,-0.7566,-0.7392,-0.7203,-0.7124,-0.7032,-0.7143,-0.7154,-0.7154,-0.7154,-0.7154,-0.7154,-0.7154,-0.7154,-0.7154,-0.7154,-0.7154,-0.7379,-0.7607,-0.7607,-0.7937,-0.8484,-0.8484,-0.8598,-0.894,-0.894,-0.894,-0.894,-0.894,-0.894,-0.894,-0.894,-0.894,-0.894,-0.894,-0.894,-0.894,0.0,-0.894,-0.894,-0.894,0.0,0.0,-0.894,-0.894,0.0,0.0,0.0,0.0,0.0,0.0,0.0,0.0,0.0,0.0,-0.8598,0.0,0.0,0.0,0.0,-0.894,0.0,0.0,0.0,0.0,-0.894,-0.894,-0.894,-0.9158,0.0,0.0,-0.9596,-0.9926,-1.0257,-1.0273,-1.0022,-0.9661,-0.9628,-0.9628,-0.9628,-0.9786,-1.0046,-1.0416,-1.0769,-1.1351,-1.1951,-1.2137,-1.235,-1.2711,-1.2715,-1.2719,-1.2719,-1.2719,-1.2719,-1.2719,-1.4376,-1.509,-1.5203,-1.6856,-1.7443,-1.7677,-1.8855,-1.9325,-1.9441,-2.0737,-2.1211,-2.113,-2.0479,-2.0237,-2.0237,-1.6662,-1.5913,-1.5261,-1.4885,-1.3414,-1.1463,-0.9213,-0.8059,-0.7389,-0.7419,-0.7231,-0.7029,-0.7141,-0.7154,-0.7154,-0.7154,-0.7154,-0.7154,-0.7154,-0.7154,-0.7154,-0.7154,-0.7154,-0.7265,-0.7379,-0.7715,-0.7934,-0.8156,-0.8602,-0.8826,-0.894,-0.894,-0.894,-0.894,-0.894,-0.894,-0.894,-0.894,-0.894,-0.894,0.0,-0.838,-0.782,0.0,-0.894,-0.894,-0.894,-0.894,0.0,-0.894,-0.894,-0.894,-0.894,-0.894,-0.8826,-0.8712,-0.8598,0.0,0.0,0.0,-0.8598,-0.8484,0.0,0.0,0.0,0.0,0.0,0.0,0.0,0.0,0.0,-0.894,-0.894,-0.894,-0.9047,-0.9051,0.0,-0.9379,-0.9556,-0.9768,-0.9989,-1.0022,-0.9661,-0.973,-0.9799,-0.9799,-1.0079,0.0,-1.0769,-1.1009,-1.1305,-1.179,-1.186,-1.2126,-1.2359,-1.2359,-1.2359,-1.2359,-1.2599,-1.2599,-1.2359,-1.3191,-1.4143,-1.509,-1.5677,-1.6503,-1.7443,-1.791,-1.85,-1.9325,-1.9795,-2.05,-2.113,-2.0479,-2.0508,-2.094,-1.7217,-1.6473,-1.5818,-1.5077,-1.3709,-1.2047,-0.9899,-0.8754,-0.8001,-0.7734,-0.7443,-0.7354,-0.7365,-0.7379,-0.7268,-0.7154,-0.7154,-0.7154,-0.7154,-0.7154,-0.7154,-0.7154,-0.7154,-0.7265,-0.7379,-0.7715,-0.7934,-0.8152,-0.8602,-0.8826,-0.894,-0.894,-0.894,-0.894,-0.894,-0.894,-0.894,-0.894,-0.894,-0.894,-0.894,-0.838,0.0,0.0,-0.8605,-0.8269,0.0,-0.894,-0.894,-0.894,-0.894,-0.894,-0.894,-0.8826,-0.8712,-0.8598,-0.8374,-0.8263,-0.8156,-0.8266,0.0,-0.8377,-0.8374,0.0,-0.8263,0.0,-0.8598,0.0,0.0,0.0,0.0,-0.894,-0.894,-0.894,-0.894,-0.894,0.0,-0.9158,-0.9428,-0.9366,-0.9738,-0.9967,-0.9637,-0.9702,-0.9847,-0.9973,-1.0266,-1.059,-1.0952,-1.1191,-1.1459,-1.1764,-1.1776,-1.1893,-1.2001,-1.2001,-1.2001,-1.2001,-1.2247,-1.2247,-1.2126,-1.2359,-1.3071,-1.4138,-1.4138,-1.4852,-1.579,-1.6385,-1.7091,-1.791,-1.8855,-1.9795,-2.0558,-2.0381,-2.0823,-2.1459,-1.7785,-1.7124,-1.6466,-1.4968,-1.3613,-1.2047,-0.9998,-0.9554,-0.9013,-0.8148,-0.7974,-0.7786,-0.7593,-0.7607,-0.7493,-0.7265,-0.7265,-0.7265,-0.7154,-0.7265,-0.7265,-0.7265,-0.7265,-0.7379,-0.7607,-0.7607,-0.7937,-0.8484,-0.8484,-0.8598,-0.894,-0.894,-0.894,-0.894,-0.894,-0.894,-0.894,-0.894,-0.894,-0.8937,-0.8826,-0.8826,-0.8716,-0.8716,-0.8045,-0.7152,-0.8491,-0.894,-0.894,-0.894,-0.894,-0.894,-0.8937,-0.8712,-0.8484,-0.8484,-0.8266,-0.7934,-0.7718,-0.7826,-0.8045,-0.7934,0.0,0.0,0.0,0.0,-0.8826,0.0,0.0,0.0,0.0,0.0,-0.894,-0.894,-0.894,-0.894,-0.894,-0.9158,-0.9322,-0.9165,-0.9436,-0.965,-0.9743,-0.9661,-0.9807,-1.0148,-1.0363,-1.0623,-1.0964,-1.1317,-1.1593,-1.1768,-1.1776,-1.1776,-1.1776,-1.1776,-1.1776,-1.1776,-1.1776,-1.1776,-1.1776,-1.2001,-1.2238,-1.2238,-1.2599,-1.2719,-1.284,-1.4376,-1.509,-1.5322,-1.815,-1.9332,-1.955,-2.0437,-2.1189,-2.1767,-1.9613,-1.8133,-1.656,-1.5445,-1.3992,-1.2538,-1.0974,-1.005,-0.9013,-0.8148,-0.7974,-0.7895,-0.7922,-0.7937,-0.7826,-0.7493,-0.7493,-0.7382,-0.7265,-0.7379,-0.7493,-0.7493,-0.7712,-0.7823,-0.7937,-0.8156,-0.8374,-0.8484,-0.8712,-0.8826,-0.894,-0.894,-0.894,-0.894,-0.894,-0.894,-0.894,-0.894,-0.894,-0.8826,-0.7934,-0.7038,-0.6253,0.0,-0.6142,-0.6142,-0.8156,-0.894,-0.894,-0.894,-0.894,-0.8826,-0.8709,-0.8598,-0.8484,-0.8156,-0.8045,-0.7934,-0.7934,-0.7934,-0.7934,-0.7715,-0.7934,-0.8045,0.0,0.0,0.0,0.0,0.0,0.0,0.0,0.0,0.0,-0.894,-0.894,-0.894,-0.894,-0.894,-0.9034,-0.8992,-0.928,-0.9561,-0.965,-0.9778,-1.0047,-1.0355,-1.0773,-1.1062,-1.1151,-1.1504,-1.1727,-1.1776,-1.1776,-1.1776,-1.1776,-1.1776,-1.1776,-1.1776,-1.1776,-1.1776,-1.1776,-1.1893,-1.2005,-1.2234,-1.2234,-1.2479,-1.2719,-1.3195,-1.4023,-1.5322,-1.6968,-1.8979,-2.111,-2.1627,-2.1913,-2.214,-2.052,-1.8596,-1.685,-1.6089,-1.4954,-1.3579,-1.1707,-1.0874,-0.984,-0.8454,-0.8281,-0.8291,-0.8257,-0.8266,-0.8045,-0.7826,-0.7826,-0.7715,-0.7601,-0.7715,-0.7826,-0.7826,-0.7934,-0.8045,-0.8266,-0.8374,-0.8598,-0.8712,-0.8826,-0.894,-0.894,-0.894,-0.894,-0.894,-0.894,-0.894,-0.894,-0.894,-0.8266,-0.7371,-0.7152,-0.6369,0.0,-0.5361,-0.5361,-0.5584,-0.7485,-0.8491,-0.894,-0.894,-0.894,-0.8826,-0.8598,-0.8374,-0.8266,-0.7934,-0.7712,-0.7598,-0.7598,-0.7598,-0.7601,-0.7607,-0.7715,-0.7826,-0.7607,-0.7937,-0.8263,0.0,0.0,0.0,0.0,0.0,0.0,-0.894,-0.894,-0.894,-0.894,-0.894,-0.894,-0.894,-0.9078,-0.9341,-0.9645,-0.9919,-1.0305,-1.054,-1.094,-1.1256,0.0,-1.1618,-1.1776,-1.1776,-1.1776,-1.1776,-1.1776,-1.1776,-1.1776,-1.1776,-1.1776,-1.1776,-1.1776,-1.1776,-1.1893,-1.2005,-1.2005,-1.2126,-1.2367,-1.2483,-1.3071,-1.4028,-1.5547,-1.7649,-1.9987,-2.0281,-2.1261,-2.2447,-2.0782,-1.8872,-1.7318,-1.6734,-1.5963,-1.4702,-1.2229,-1.1797,-1.0954,-0.9223,0.0,-0.8826,-0.8598,-0.8598,-0.8374,-0.8045,-0.8045,-0.8045,-0.8045,-0.8045,-0.8045,-0.8045,-0.8045,-0.8266,-0.8595,-0.8598,-0.8709,-0.894,-0.894,-0.894,-0.894,-0.894,-0.894,-0.894,-0.894,-0.894,-0.894,-0.894,-0.7595,-0.5695,-0.6591,-0.6144,-0.5139,-0.5027,-0.5027,-0.5361,-0.648,-0.7598,-0.8716,-0.883,-0.8826,-0.8826,-0.8488,-0.8266,-0.7934,-0.7604,-0.7379,-0.7154,-0.7154,-0.7154,-0.7265,-0.7493,-0.7607,-0.7607,-0.7607,-0.7826,-0.8045,-0.8045,-0.8266,-0.8598,0.0,0.0,0.0,-0.894,-0.894,0.0,0.0,0.0,-0.894,-0.894,-0.8957,0.0,-0.9504,-1.0033,-1.0374,-1.0613,-1.0898,-1.1213,0.0,0.0,-1.1776,-1.1776,-1.1776,-1.1776,-1.1776,-1.1776,-1.1776,-1.1776,-1.1776,-1.1776,-1.1776,-1.1776,-1.1776,-1.1776,-1.1776,-1.1776,-1.1776,-1.2001,-1.2251,-1.2647,-1.4266,-1.607,-1.7807,-1.7906,-1.9642,-2.2096,-2.061,-1.9338,-1.8241,-1.7318,-1.6258,-1.4763,-1.2623,-1.212,-1.1539,-1.0309,-0.9385,-0.8826,-0.8826,-0.8826,-0.8712,-0.8488,-0.8374,-0.8263,-0.8045,-0.8266,-0.8374,-0.8374,-0.8602,-0.8716,-0.8826,-0.8826,-0.8826,-0.894,-0.894,-0.894,-0.894,-0.894,-0.894,-0.894,-0.894,-0.894,-0.894,-0.894,0.0,-0.6705,-0.6031,-0.5029,-0.3804,-0.28,-0.3023,-0.4026,-0.5252,-0.6478,-0.7598,-0.8605,-0.8712,-0.8488,-0.8156,-0.7937,-0.7604,-0.7379,-0.7265,-0.7154,-0.7154,-0.7154,-0.7265,-0.7265,-0.7382,-0.7607,-0.7607,-0.7826,-0.8045,-0.8045,-0.8266,-0.8484,-0.8598,0.0,0.0,0.0,0.0,0.0,0.0,0.0,0.0,-0.894,-0.9266,-0.9511,-0.9442,-0.9631,-0.9949,-1.0286,-1.0548,-1.0757,-1.1024,0.0,-1.1522,0.0,-1.1776,0.0,0.0,0.0,-1.1776,-1.1776,-1.1776,-1.1776,-1.1776,-1.1776,-1.1776,-1.1776,-1.1776,-1.1776,-1.1776,-1.1893,-1.2695,-1.4037,-1.4689,-1.6044,-1.7542,-1.7588,-1.811,-1.9066,-2.1177,-1.9954,-1.8777,-1.8025,-1.6799,-1.5454,0.0,-1.2981,-1.1626,-0.9911,-0.9219,-0.894,-0.894,-0.894,-0.8826,-0.8712,-0.8712,-0.8602,-0.8491,-0.8602,-0.8712,-0.8712,-0.8826,-0.894,-0.894,-0.894,-0.894,-0.894,-0.894,-0.894,-0.894,-0.894,-0.894,-0.894,-0.894,-0.8605,-0.8045,0.0,0.0,-0.5254,-0.5363,-0.4249,-0.2576,-0.2019,-0.213,-0.28,-0.4026,-0.5252,-0.648,-0.8266,-0.8712,-0.8484,-0.8156,-0.7826,-0.7496,-0.7268,-0.7154,-0.7154,-0.7154,-0.7154,-0.7154,-0.7154,-0.7268,-0.7379,-0.7379,-0.749,-0.7601,-0.7715,-0.7937,-0.8156,-0.8484,-0.8712,0.0,0.0,0.0,0.0,0.0,0.0,-0.8964,-0.9042,-0.9222,-0.9471,-0.9476,-0.9549,-0.9916,-1.0543,-1.0629,-1.0917,-1.1403,0.0,-1.1398,0.0,0.0,0.0,-1.1776,0.0,0.0,-1.1776,-1.1776,-1.1776,-1.1776,-1.1776,-1.1776,-1.1776,-1.1776,-1.1776,-1.1776,-1.1776,-1.2356,-1.3128,-1.3486,-1.4201,-1.5233,-1.5352,-1.5971,-1.7345,-2.1807,-2.045,-1.9122,-1.8452,-1.7268,-1.6116,-1.5389,-1.3896,-1.1987,-0.9919,-0.9154,-0.894,-0.894,-0.894,-0.894,-0.894,-0.894,-0.894,-0.894,-0.894,-0.894,-0.894,-0.894,-0.894,-0.894,-0.894,-0.894,-0.894,-0.894,-0.894,-0.894,-0.894,-0.894,-0.894,-0.894,0.0,0.0,0.0,-0.7038,-0.4026,-0.5027,-0.3914,-0.1795,-0.1795,-0.1795,-0.1907,-0.3135,-0.4249,-0.5361,-0.7706,-0.8377,-0.8374,-0.8045,-0.7715,-0.7493,-0.7265,-0.7154,-0.7154,-0.7154,-0.7154,-0.7154,-0.7154,-0.7154,-0.7154,-0.7154,-0.7154,-0.7265,-0.7493,-0.7607,-0.7826,-0.8374,-0.8712,0.0,0.0,0.0,0.0,0.0,0.0,-0.8991,-0.9133,-0.895,-0.9076,-0.9581,-0.9397,-0.9696,-1.0657,-1.0668,-1.0914,-1.153,-1.1398,-1.1398,0.0,0.0,-1.1651,-1.1651,0.0,-1.1776,-1.1776,-1.1776,-1.1776,-1.1776,-1.1776,-1.1776,-1.1776,-1.1776,-1.1776,-1.178,-1.1813,-1.1935,-1.2105,-1.2292,-1.2594,-1.303,-1.3181,-1.4137,-1.5679,-2.1949,-2.0616,-1.9384,-1.8429,0.0,-1.5902,-1.485,-1.4327,-1.3511,-1.22,-1.0245,-0.894,-0.894,-0.894,-0.894,-0.894,-0.894,-0.894,-0.894,-0.894,-0.894,-0.894,-0.894,-0.894,-0.894,-0.894,-0.894,-0.894,-0.894,-0.894,-0.894,-0.894,-0.894,-0.894,0.0,0.0,0.0,-0.883,-0.7482,-0.525,-0.5361,-0.3914,-0.1795,-0.1795,-0.1795,-0.1907,-0.3135,-0.3692,-0.4137,-0.6144,-0.7374,-0.8045,-0.7715,-0.749,-0.7265,-0.7154,-0.7154,-0.7154,-0.7154,-0.7154,-0.7154,-0.7154,-0.7154,-0.7154,-0.7154,-0.7154,-0.7154,-0.7265,-0.7382,-0.7826,-0.8374,-0.8484,-0.8598,0.0,0.0,0.0,0.0,0.0,-0.8991,-0.9133,-0.8229,-0.8128,-0.9473,-0.863,-0.8699,-1.0183,-1.0304,-1.0547,-1.091,-1.091,-1.1031,-1.1394,-1.1394,-1.1394,-1.1394,-1.1651,-1.1776,-1.1776,-1.1776,-1.1776,-1.1776,-1.1776,-1.1776,-1.1776,-1.1776,-1.1776,-1.1788,-1.1943,-1.2113,-1.23,-1.2471,-1.2649,-1.2812,-1.2832,-1.2968,-1.3354,0.0,0.0,0.0,0.0,0.0,0.0,0.0,-1.4955,-1.4261,-1.3511,-1.1442,-0.9699,-0.8937,-0.894,-0.894,-0.894,-0.894,-0.894,-0.894,-0.894,-0.894,-0.894,-0.894,-0.894,-0.894,-0.894,-0.894,0.0,-0.894,-0.894,-0.894,-0.894,-0.894,0.0,0.0,-0.894,-0.894,-0.894,-0.7595,-0.5361,-0.5361,-0.3914,-0.1795,-0.1795,-0.1795,-0.1907,-0.2353,-0.3023,-0.3692,-0.4587,-0.5815,-0.7043,-0.7493,-0.7382,-0.7154,-0.7154,-0.7154,-0.7154,-0.7154,-0.7154,-0.7154,-0.7154,-0.7154,-0.7154,-0.7154,-0.7154,-0.7154,-0.7154,-0.7382,-0.7718,-0.7937,-0.8266,-0.8484,0.0,0.0,0.0,0.0,0.0,0.0,-0.9398,0.0,-0.8975,-0.96,-0.9297,-0.9329,-0.994,-0.994,-0.9937,-0.9559,-1.0176,-0.9933,-0.8705,0.0,-1.0664,-1.0051,-1.1031,-1.1647,-1.1776,-1.1776,-1.1776,-1.1776,-1.1776,-1.1776,-1.1776,-1.1776,-1.1833,-1.1935,-1.2004,-1.2199,-1.2467,-1.2536,-1.2674,-1.2836,-1.2836,-1.2836,-1.2836,-1.9834,0.0,-1.8592,0.0,-1.7546,-1.7073,-1.6643,-1.5773,-1.4905,-1.4374,-1.2521,-1.0785,-0.9592,-0.9154,-0.894,-0.894,-0.894,-0.894,-0.894,-0.894,-0.894,-0.894,-0.894,0.0,-0.894,-0.894,-0.894,-0.894,-0.894,0.0,0.0,0.0,0.0,0.0,-0.894,-0.894,-0.894,-0.894,-0.7595,-0.5361,-0.5361,-0.3914,-0.1795,-0.1795,-0.1795,-0.1795,-0.1795,-0.2353,-0.3135,-0.3474,-0.4142,-0.5029,-0.6937,-0.7385,-0.7154,-0.7154,-0.7154,-0.7154,-0.7154,-0.7154,-0.7154,-0.7154,-0.7154,-0.7154,-0.7154,-0.7154,-0.7154,-0.7154,-0.7379,-0.7493,-0.7607,-0.7937,-0.8266,-0.8484,0.0,0.0,0.0,-0.9191,0.0,-0.9578,-0.9248,-0.9181,-0.9808,-0.9454,-0.9451,-0.9819,0.0,-0.9201,-0.9191,-0.9562,-0.9201,0.0,0.0,0.0,-0.9566,-1.0785,-1.1398,-1.1651,-1.1776,-1.1776,-1.1776,-1.1776,-1.1776,-1.178,-1.1829,-1.1918,-1.2036,-1.2142,-1.2337,-1.2568,-1.2621,-1.2722,-1.2836,-1.2836,-1.2836,-1.2844,-2.0025,-1.942,-1.8812,-1.7786,-1.7378,-1.7179,-1.7179,-1.6649,-1.5885,-1.4685,-1.328,-1.1982,-1.0781,-0.9588,-0.894,-0.894,-0.894,-0.894,-0.894,-0.894,-0.894,0.0,0.0,-0.894,-0.894,-0.894,-0.894,-0.894,0.0,0.0,-0.894,0.0,-0.894,-0.894,-0.894,-0.894,-0.894,-0.894,-0.7595,-0.5361,-0.5361,-0.3914,-0.1795,-0.1795,-0.1795,-0.1795,-0.1795,-0.1795,-0.2019,-0.3251,-0.2464,-0.1678,-0.594,-0.7171,-0.7154,-0.7154,-0.7154,-0.7154,-0.7154,-0.7154,-0.7154,-0.7154,-0.7154,-0.7154,-0.7154,-0.7154,-0.7154,-0.7154,-0.7154,-0.7268,-0.7607,-0.7607,-0.7826,-0.8374,0.0,0.0,0.0,-0.9283,0.0,-0.9591,-0.8408,-0.8213,-0.9684,-0.8714,-0.8471,0.0,0.0,0.0,0.0,0.0,0.0,-1.0183,-0.8952,0.0,-1.0304,-1.091,-1.1273,-1.1273,-1.1647,-1.1776,-1.1776,-1.1776,-1.1776,-1.1784,-1.1955,-1.2028,-1.2056,-1.2414,-1.256,-1.2584,-1.2763,-1.2836,-1.2836,-1.2836,-1.2836,-1.286,-1.8401,-1.8199,-1.7989,-1.7687,-1.7483,-1.7378,-1.7179,-1.7067,-1.6643,-1.5885,-1.3922,-1.2512,-1.1869,-1.0135,-0.894,0.0,-0.894,-0.894,0.0,-0.894,-0.894,-0.894,-0.894,-0.894,-0.894,-0.894,-0.894,-0.894,0.0,0.0,0.0,-0.894,-0.894,-0.894,-0.894,-0.894,-0.894,-0.894,-0.7595,-0.5361,-0.5361,-0.3914,-0.1795,-0.1795,-0.1795,-0.1795,-0.1795,-0.1795,-0.1795,-0.1794,-0.1345,-0.1679,-0.5839,-0.7187,-0.7171,-0.716,-0.7154,-0.7154,-0.7154,-0.7154,-0.7154,-0.7154,-0.7154,-0.7154,-0.7154,-0.7154,-0.7154,-0.7154,-0.7154,-0.7265,-0.7268,-0.7493,-0.7744,-0.7939,-0.8442,0.0,-0.9075,0.0,-0.9591,-0.9737,-0.9389,-0.9284,-0.9694,-0.9451,0.0,0.0,0.0,0.0,0.0,0.0,0.0,0.0,-0.5896,0.0,-0.7604,-0.8705,-0.9926,-1.1273,-1.1398,-1.1526,-1.178,-1.1898,-1.1951,-1.1959,-1.2142,-1.2284,-1.2402,-1.2515,-1.2637,-1.2755,-1.2812,-1.2836,-1.2836,-1.2836,-1.2913,-1.3019,-1.7687,-1.7582,-1.7582,-1.7582,-1.7582,-1.7582,-1.7378,-1.7279,-1.7073,-1.6643,-1.4352,-1.2719,-1.2625,-1.0351,0.0,-0.894,-0.894,-0.894,-0.894,-0.894,-0.894,-0.894,-0.894,-0.894,-0.894,-0.894,0.0,-0.894,-0.894,-0.894,-0.894,-0.894,-0.894,-0.894,-0.894,-0.8967,-0.9018,-0.9018,-0.7918,-0.6145,-0.569,-0.433,-0.251,-0.2043,-0.1812,-0.181,-0.1799,-0.1795,-0.1683,-0.1121,-0.0897,-0.1344,-0.3701,-0.5158,-0.6049,-0.6943,-0.716,-0.7154,-0.7154,-0.7154,-0.7154,-0.7154,-0.7154,-0.7154,-0.7154,-0.7154,-0.7154,-0.7154,-0.7154,-0.7168,-0.7214,-0.7337,-0.7604,-0.7841,-0.825,-0.869,-0.9094,0.0,-0.9603,0.0,0.0,0.0,0.0,-0.9822,-0.9451,0.0,0.0,0.0,0.0,0.0,0.0,-0.3451,-0.4551,0.0,-0.6261,-0.7604,-0.8948,-1.0172,-1.0781,-1.1312,-1.163,-1.1733,-1.1945,-1.2146,-1.2324,-1.2467,-1.2568,-1.2637,-1.2735,-1.2836,-1.2836,-1.2836,-1.2844,-1.2909,-1.3003,-1.3112,-1.7853,-1.7642,-1.7635,0.0,-1.7642,0.0,-1.7642,-1.7444,-1.7238,-1.7238,-1.4832,-1.298,-1.2871,-1.0598,-0.9078,-0.8967,0.0,0.0,0.0,-0.894,-0.894,-0.894,-0.894,-0.894,-0.894,-0.894,-0.8944,-0.8954,-0.8964,-0.8967,-0.8967,-0.8967,-0.8967,-0.8967,-0.8967,-0.9045,-0.9167,-0.9167,-0.8558,-0.7505,-0.6102,-0.4932,-0.3639,-0.2316,-0.1843,-0.184,-0.1811,-0.1802,-0.1688,-0.1125,-0.09,-0.0788,-0.0225,-0.1684,-0.4041,-0.6507,-0.7171,-0.7154,-0.7154,-0.7154,-0.7154,-0.7154,-0.7154,-0.7154,-0.7154,-0.7154,-0.7157,-0.7165,-0.7168,-0.7203,-0.7326,-0.7347,-0.7503,-0.7857,-0.8095,-0.8414,-0.9016,-0.9131,-0.9335,0.0,0.0,0.0,0.0,-0.9822,-0.9697,0.0,0.0,0.0,0.0,0.0,-0.4304,-0.5531,-0.4427,-0.4427,-0.5774,-0.724,-0.8094,-0.834,-0.994,-1.1008,-1.141,-1.1557,-1.1783,-1.2337,-1.2507,-1.2584,-1.2596,-1.2767,-1.2836,-1.284,-1.2848,-1.2852,-1.2877,-1.3047,-1.312,-1.3181,0.0,0.0,-1.7779,-1.816,-1.8277,-1.8277,-1.8277,-1.8277,-1.8167,-1.7941,-1.6244,-1.467,-1.3433,-1.1755,-1.0292,-0.9391,-0.9069,-0.894,-0.894,-0.894,-0.894,-0.894,-0.894,-0.894,-0.894,-0.894,-0.8991,-0.9103,-0.9218,-0.9276,-0.9276,-0.9276,-0.9276,-0.9276,-0.9276,-0.9296,-0.9327,-0.9327,-0.8646,-0.7505,-0.6102,-0.4932,-0.3643,-0.2345,-0.1875,-0.1874,-0.1867,-0.1864,-0.1747,-0.1048,-0.0582,-0.0233,-0.0,-0.1629,-0.4054,-0.6442,-0.7171,-0.7154,-0.7154,-0.7154,-0.7154,-0.7154,-0.7154,-0.7154,-0.7154,-0.7154,-0.7182,-0.7274,-0.7293,-0.7331,-0.7453,-0.7475,-0.7516,-0.7757,-0.8036,-0.833,-0.8551,-0.8833,-0.9095,0.0,-0.9457,-0.9579,-0.9819,-0.9822,-0.8961,0.0,0.0,0.0,0.0,-0.259,-0.259,-0.296,-0.259,-0.3081,-0.4304,-0.4794,-0.6016,-0.834,-0.9057,-1.0122,-1.1174,-1.1676,-1.1946,-1.2126,-1.256,-1.2771,-1.2775,-1.282,-1.2836,-1.2848,-1.2982,-1.3035,-1.3055,-1.3238,-1.3392,-1.3526,-1.849,-1.836,-1.8236,-1.8484,-1.8608,-1.8615,-1.849,-1.849,-1.849,-1.8262,-1.6316,-1.4611,-1.3818,-1.1774,-1.0181,-0.9497,-0.9235,-0.914,-0.914,-0.914,-0.914,-0.914,-0.914,-0.914,-0.914,-0.914,-0.9181,-0.9256,-0.934,-0.9381,-0.9381,-0.9381,-0.9381,-0.9381,-0.9381,-0.9418,-0.9486,-0.9486,-0.9167,-0.8385,-0.6469,-0.5397,-0.4556,-0.2626,-0.1907,-0.1904,-0.1891,-0.1885,-0.1768,-0.106,-0.0471,0.0,0.0,-0.0942,-0.2462,-0.4953,-0.6384,-0.7236,-0.7171,-0.7154,-0.7154,-0.7154,-0.7154,-0.7168,-0.7225,-0.7236,-0.7271,-0.7394,-0.7418,-0.7456,-0.7578,-0.7603,-0.7641,-0.7761,-0.7898,-0.8164,-0.8358,-0.8613,0.0,-0.9214,-0.9335,-0.9457,-0.9822,-0.9822,-0.9207,-0.7734,-0.663,0.0,-0.3817,-0.2591,-0.1977,-0.1977,-0.1977,-0.2346,-0.3081,-0.3595,-0.5091,-0.7192,-0.8185,-0.916,-1.0122,-1.1059,-1.1698,-1.2168,-1.2397,-1.2704,-1.2836,-1.2836,-1.2885,-1.2962,-1.3059,-1.3145,-1.3242,-1.3429,-1.3559,-1.3656,-1.8624,-1.8749,-1.8867,-1.8624,-1.8749,-1.8867,-1.8624,-1.8624,-1.8624,-1.8624,-1.609,-1.4147,-1.3919,-1.1401,-0.9679,-0.9445,-0.9449,-0.9429,-0.9384,-0.9381,-0.9381,-0.9381,-0.9381,-0.9381,-0.9381,-0.9405,-0.9415,-0.9415,-0.9439,-0.9449,-0.9449,-0.9449,-0.9449,-0.9449,-0.9449,-0.952,-0.9642,-0.9642,-0.971,-0.9576,-0.6999,-0.5896,-0.5645,-0.2916,-0.1938,-0.1934,-0.1909,-0.1899,-0.178,-0.1306,-0.0593,0.0,0.0,0.0,-0.0473,-0.3187,-0.5498,-0.7276,-0.7247,-0.7209,-0.7209,-0.7211,-0.7211,-0.7236,-0.7339,-0.7364,-0.7396,-0.7521,-0.7546,-0.7584,-0.7703,-0.7728,-0.7758,-0.7856,-0.7872,-0.7994,-0.8244,0.0,-0.861,-0.9217,-0.9217,-0.9335,-0.9822,-0.9822,-0.9697,-0.9576,-0.7243,-0.5774,-0.5651,-0.3328,-0.1979,-0.1983,-0.1979,-0.1979,-0.1983,-0.3138,-0.4293,-0.5676,-0.7167,-0.817,-0.8923,-1.038,-1.1381,-1.2177,-1.2177,-1.2441,-1.2704,-1.2732,-1.2962,-1.31,-1.3157,-1.3271,-1.3433,-1.3616,-1.3685,-1.3705,-1.9232,-1.9239,-1.9354,-1.9232,-1.9239,-1.9354,-1.9232,-1.9232,-1.911,-1.8866,-1.7217,-1.5563,-1.4257,-1.249,-1.0951,-0.9871,-0.9751,-0.9646,-0.9398,-0.9381,-0.9381,-0.9381,-0.9381,-0.9381,-0.9381,-0.9507,-0.9574,-0.9574,-0.9693,-0.9751,-0.9751,-0.9751,-0.9751,-0.9751,-0.9751,-0.9768,-0.9788,-0.9788,-0.9802,-0.9576,-0.6999,-0.5896,-0.5651,-0.2952,-0.1969,-0.1969,-0.1964,-0.1962,-0.1962,-0.184,-0.0981,0.0,0.0,0.0,-0.0489,-0.3128,-0.5759,-0.7782,-0.7505,-0.7462,-0.7464,-0.7354,-0.7467,-0.7467,-0.7486,-0.7491,-0.7527,-0.7649,-0.7674,-0.7709,-0.7823,-0.7845,-0.785,-0.7869,-0.7872,-0.7872,-0.7994,0.0,-0.8238,-0.8851,-0.8976,-0.9217,-0.97,-0.9822,-0.9329,-0.8224,-0.6754,-0.5406,-0.4304,-0.2836,-0.1988,-0.2011,-0.1989,-0.1988,-0.2011,-0.2297,-0.3082,-0.4361,-0.5852,-0.7338,-0.8538,-1.0356,-1.1226,-1.1383,-1.178,-1.2045,-1.2452,-1.2594,-1.2799,-1.3124,-1.3437,-1.3575,-1.3624,-1.3794,-1.3859,-1.3863,-1.9366,-1.9366,-1.9366,-1.9366,-1.9366,-1.9366,-1.9366,-1.9366,-1.9004,-1.804,-1.6503,-1.4837,-1.3287,-1.1619,-1.0425,-0.9822,-0.9822,-0.9764,-0.9629,-0.9618,-0.9618,-0.9618,-0.9618,-0.9618,-0.9618,-0.896,-0.8995,-0.9724,-0.9788,-0.9822,-0.9822,-0.9822,-0.9822,-0.9822,-0.9822,-0.9822,-0.9822,-0.9822,-0.9822,-0.9576,-0.7734,-0.651,-0.5651,-0.3817,-0.259,-0.1977,-0.1977,-0.1977,-0.1977,-0.1977,-0.1359,-0.0494,-0.0123,-0.0988,-0.259,-0.5265,-0.6767,-0.7622,-0.7557,-0.6469,-0.5758,-0.7176,-0.7529,-0.7543,-0.7603,-0.7616,-0.7652,-0.7769,-0.7793,-0.7809,-0.7861,-0.7872,-0.7872,-0.7872,-0.7872,0.0,0.0,-0.7872,-0.8116,-0.8854,-0.8854,-0.9098,-0.97,-0.9822,-0.9329,-0.798,-0.663,-0.5304,-0.3984,-0.2746,-0.2012,-0.2042,-0.2031,-0.203,-0.2043,-0.2073,-0.2349,-0.3,-0.4493,-0.5585,-0.6247,-0.8684,-0.9908,-1.0174,-1.1111,-1.1829,-1.2449,-1.2523,-1.2938,-1.3409,-1.3579,-1.3701,-1.379,-1.3872,-1.39,-1.39,-1.9366,-1.9366,-1.9366,-1.9366,-1.9366,-1.9366,-1.9366,-1.9127,-1.8409,-1.7091,-1.5311,-1.3651,-1.2217,-1.066,-0.9822,-0.9822,-0.9822,-0.9822,-0.9822,-0.9822,-0.9822,-0.9822,-0.9822,-0.9822,-0.9822,-0.8839,-0.8836,-0.9822,-0.9822,-0.9822,-0.9822,-0.9822,-0.9822,-0.9822,-0.9822,-0.9822,-0.9822,-0.9822,-0.9822,-0.9697,-0.8102,-0.6877,-0.5774,-0.406,-0.2836,-0.1977,-0.1977,-0.1977,-0.1977,-0.1977,-0.1606,-0.0864,-0.0247,-0.1359,-0.3585,-0.6941,-0.7669,-0.7512,-0.7525,-0.5716,-0.4158,-0.6182,-0.7256,-0.7641,-0.7728,-0.7744,-0.7766,-0.7858,-0.7875,-0.7872,-0.7872,-0.7872,-0.7872,-0.7872,0.0,0.0,0.0,-0.7872,-0.8116,-0.8854,-0.8854,-0.9098,-0.97,-0.9822,-0.9467,-0.8512,-0.6789,-0.5472,-0.455,-0.2913,-0.2043,-0.2074,-0.2074,-0.2074,-0.2074,-0.2105,-0.212,-0.212,-0.3612,-0.43,-0.4434,-0.7238,-0.872,-0.9149,-1.0495,-1.1658,-1.2346,-1.2523,-1.2976,-1.3508,-1.3689,-1.3786,-1.39,-1.39,-1.39,-1.39,-1.9366,-1.9366,-1.9366,-1.9366,-1.9366,-1.9366,-1.9366,-1.8409,-1.7337,-1.6626,-1.4366,-1.2582,-1.1868,-1.0543,-0.9822,-0.9822,-0.9822,-0.9822,-0.9822,-0.9822,-0.9822,-0.9822,-0.9822,-0.9822,-0.9822,-0.9697,-0.9697,-0.9822,-0.9822,-0.9822,-0.9822,-0.9822,-0.9822,-0.9822,-0.9822,-0.9822,-0.9822,-0.9822,-0.9822,-0.9576,-0.7121,-0.6018,-0.5651,-0.3082,-0.2099,-0.1977,-0.1977,-0.1977,-0.1977,-0.1977,-0.1606,-0.0864,-0.0247,-0.0123,-0.1235,-0.6438,-0.7926,-0.791,-0.7913,-0.5908,-0.3924,-0.4169,-0.6014,-0.7872,-0.7883,-0.7869,-0.7864,-0.7891,-0.7883,-0.7872,-0.7872,-0.7872,-0.7872,-0.7872,0.0,0.0,-0.7872,-0.7872,-0.8116,-0.8854,-0.8854,-0.9098,-0.97,-0.9822,-0.9757,-0.9898,-0.7398,-0.5936,-0.6028,-0.3471,-0.2074,-0.2105,-0.2106,-0.2106,-0.2106,-0.2136,-0.2151,-0.2151,-0.3629,-0.43,-0.4434,-0.7238,-0.8636,-0.888,-1.0248,-1.1285,-1.1844,-1.2274,-1.2776,-1.3239,-1.3677,-1.3892,-1.39,-1.39,-1.39,-1.39,-1.9366,-1.9366,-1.9366,-1.9366,-1.9366,-1.9127,-1.8292,-1.7812,-1.6738,-1.4485,-1.3292,-1.2101,-1.0664,-1.0061,-0.9822,-0.9822,-0.9822,-0.9822,-0.9822,-0.9822,-0.9822,-0.9822,-0.9083,-0.8961,-0.9819,-0.9083,-0.8961,-0.9822,-0.9822,-0.9822,-0.9822,-0.9822,-0.9822,-0.9822,-0.9822,-0.9822,-0.9822,-0.9822,-0.9822,-0.9697,-0.7856,-0.6632,-0.5651,-0.3816,-0.2714,-0.1977,-0.1977,-0.1977,-0.1977,-0.1977,-0.1853,-0.1482,-0.037,0.0,-0.037,-0.247,-0.5322,-0.7195,-0.3832,-0.2221,-0.1479,-0.1478,-0.4687,-0.7921,-0.791,-0.6653,-0.5906,-0.7531,-0.7902,-0.7896,-0.7896,-0.7891,-0.7888,-0.7888,0.0,-0.7872,-0.7872,-0.7872,-0.8116,-0.8854,-0.8854,-0.9098,-0.97,-0.9907,-0.9236,-0.7533,-0.6591,-0.539,-0.3782,-0.2768,-0.2125,-0.2137,-0.2138,-0.2138,-0.2138,-0.2148,-0.2155,-0.2155,-0.2692,-0.296,-0.3096,-0.5013,-0.6541,-0.7531,-0.8974,-1.0467,-1.1867,-1.2071,-1.2437,-1.2955,-1.3159,-1.3325,-1.3468,-1.3468,-1.3757,-1.39,-1.9366,-1.9366,-1.9366,-1.9366,-1.9127,-1.8525,-1.7689,-1.6738,-1.5316,-1.3057,-1.2221,-1.1382,-0.994,-0.9822,-0.9822,-0.9822,-0.9822,-0.9822,-0.9822,-0.9822,-0.9822,-0.9822,-0.8961,-0.8961,-0.9819,-0.8961,-0.8961,-0.9822,-0.9822,-0.9822,-0.9822,-0.9822,-0.9822,-0.9822,-0.9822,-0.9822,-0.9822,-0.9822,-0.9822,-0.9697,-0.7978,-0.6754,-0.5651,-0.3939,-0.2713,-0.1977,-0.1977,-0.1977,-0.1977,-0.1977,-0.1977,-0.1853,-0.0617,-0.0123,0.0,0.0,-0.2595,-0.458,-0.0988,0.0,0.0,0.0,-0.2714,-0.5812,-0.7547,-0.5796,-0.4185,-0.5177,-0.6046,-0.6664,-0.6664,-0.666,-0.6905,-0.7777,-0.7891,-0.788,-0.788,-0.8,-0.8241,-0.8854,-0.8976,-0.9233,-0.9764,-0.9988,-0.9077,-0.6875,-0.6434,-0.4954,-0.2254,-0.2144,-0.2155,-0.2155,-0.2155,-0.2155,-0.2155,-0.2155,-0.2155,-0.2155,-0.2164,-0.2169,-0.2305,-0.3706,-0.5253,-0.6798,-0.8256,-1.0046,-1.1889,-1.203,-1.2233,-1.2613,-1.2757,-1.3039,-1.3325,-1.3325,-1.3615,-1.39,-1.9366,-1.9366,-1.9366,-1.9366,-1.8286,-1.7455,-1.7455,-1.5079,-1.3062,-1.2697,-1.1261,-1.0183,-0.9819,-0.9822,-0.9822,-0.9822,-0.9822,-0.9822,-0.9822,-0.9822,-0.9822,-0.9822,-0.9822,-0.9822,-0.9822,-0.9822,-0.9822,-0.9822,-0.9822,-0.9822,-0.9822,-0.9822,-0.9822,-0.9822,-0.9822,-0.9822,-0.9822,-0.9822,-0.9822,-0.9576,-0.6999,-0.5896,-0.5653,-0.2959,-0.1977,-0.1977,-0.1977,-0.1977,-0.1977,-0.1977,-0.1977,-0.1853,-0.1235,-0.0494,0.0,0.0,0.0,0.0,0.0,0.0,0.0,0.0,0.0,-0.1356,-0.6687,-0.5804,-0.3076,-0.0493,-0.2092,-0.3813,-0.3813,-0.3813,-0.4679,-0.7411,-0.7902,-0.7899,-0.7899,-0.8133,-0.8491,-0.8857,-0.9095,-0.9516,-0.9911,-0.9928,-0.9541,-0.8386,-0.6961,-0.5028,-0.2287,-0.2155,-0.2155,-0.2155,-0.2155,-0.2155,-0.2155,-0.2155,-0.2155,-0.2155,-0.2186,-0.22,-0.2201,-0.3756,-0.5352,-0.6985,-0.8401,-1.004,-1.1619,-1.2051,-1.2194,-1.2194,-1.2613,-1.3039,-1.3325,-1.3325,-1.3615,-1.39,-1.6756,-1.6756,-1.6756,-1.6756,-1.6397,-1.5924,-1.4971,-1.3899,-1.2702,-1.1507,-1.0785,-1.0183,-0.9819,-0.9822,-0.9822,-0.9822,-0.9822,-0.9822,-0.9822,-0.9822,-0.9822,-0.9822,-0.8961,-0.8471,-0.8471,-0.8471,-0.8961,-0.9822,-0.9822,-0.9822,-0.9822,-0.9822,-0.9822,-0.9822,-0.9822,-0.9822,-0.9822,-0.9822,-0.9329,-0.8349,-0.6632,-0.5284,-0.4304,-0.259,-0.1977,-0.1977,-0.1977,-0.1977,-0.1977,-0.1977,-0.1977,-0.1853,-0.0617,-0.0123,0.0,0.0,0.0,0.0,0.0,0.0,0.0,0.0,0.0,-0.037,-0.1975,-0.1727,-0.0986,-0.0123,-0.0617,-0.111,-0.111,-0.1109,-0.1478,-0.2218,-0.3939,-0.5788,-0.7649,-0.8264,-0.8658,-0.8989,-0.8369,-0.8163,-0.8664,-0.8759,-0.7935,-0.5515,-0.4117,-0.308,-0.2289,-0.2155,-0.2155,-0.2155,-0.2155,-0.2155,-0.2155,-0.2155,-0.2166,-0.2187,-0.2196,-0.2211,-0.2233,-0.2685,-0.3843,-0.5423,-0.6903,-0.8532,-1.0017,-1.1325,-1.1763,-1.1763,-1.1903,-1.2191,-1.2477,-1.2477,-1.276,-1.3182,-1.5575,-1.5575,-1.5575,-1.5575,-1.5173,-1.463,-1.3667,-1.2891,-1.2086,-1.0986,-1.0496,-1.0249,-1.0002,-1.0002,-1.0002,-1.0002,-1.0002,-1.0002,-1.0002,-1.0002,-0.9503,-0.8375,-0.7624,-0.7459,-0.7858,-0.7365,-0.749,-0.8224,-0.8839,-0.9083,-0.9083,-0.9576,-0.9822,-0.9822,-0.9822,-0.9822,-0.9822,-0.9822,-0.9083,-0.7734,-0.6388,-0.5039,-0.3815,-0.2468,-0.1977,-0.1977,-0.1977,-0.1977,-0.1977,-0.1977,-0.1977,-0.1853,-0.0988,-0.0617,-0.037,-0.0123,0.0,0.0,0.0,0.0,0.0,0.0,0.0,0.0,0.0,0.0,0.0,0.0,0.0,0.0,0.0,0.0,0.0,0.0,-0.1355,-0.3083,-0.4965,-0.6586,-0.7498,-0.7602,-0.7231,-0.7014,-0.7374,-0.7447,-0.6583,-0.4375,-0.2946,-0.2155,-0.2155,-0.2155,-0.2155,-0.2155,-0.2155,-0.2161,-0.2172,-0.2172,-0.2182,-0.22,-0.2224,-0.2245,-0.2264,-0.2294,-0.3169,-0.4747,-0.637,-0.7837,-0.9435,-1.089,-1.1619,-1.1619,-1.1619,-1.1907,-1.2194,-1.2194,-1.2477,-1.2753,-1.5277,-1.5277,-1.5277,-1.5277,-1.4363,-1.3519,-1.3269,-1.2061,-1.1169,-1.0788,-1.0534,-1.028,-1.028,-1.028,-1.028,-1.028,-1.028,-1.028,-1.028,-1.028,-0.9121,-0.6682,-0.6298,-0.6724,-0.7771,-0.6412,-0.5921,-0.6291,-0.7398,-0.8013,-0.8136,-0.9246,-0.9863,-0.9863,-0.9863,-0.9863,-0.9863,-0.9863,-0.8998,-0.7643,-0.6412,-0.506,-0.3584,-0.2477,-0.1983,-0.198,-0.198,-0.1979,-0.1977,-0.1977,-0.1977,-0.1977,-0.1977,-0.1606,-0.0988,-0.037,-0.0123,0.0,0.0,0.0,0.0,0.0,-0.0123,-0.0123,-0.0123,-0.0123,-0.0123,-0.0123,-0.0,0.0,0.0,0.0,0.0,0.0,-0.0124,-0.0372,-0.1007,-0.3908,-0.5835,-0.5533,-0.5668,-0.5829,-0.6046,-0.5923,-0.543,-0.443,-0.296,-0.2155,-0.2155,-0.2155,-0.2155,-0.2155,-0.2157,-0.2172,-0.22,-0.2205,-0.2208,-0.2208,-0.2264,-0.2292,-0.2295,-0.2321,-0.3059,-0.4511,-0.6246,-0.7837,-0.9291,-1.089,-1.1619,-1.1619,-1.1619,-1.1763,-1.2194,-1.2194,-1.2334,-1.2757,-1.2927,-1.2549,-1.2299,-1.2553,-1.2211,-1.1732,-1.1736,-1.1266,-1.0912,-1.0788,-1.0534,-1.028,-1.028,-1.028,-1.028,-1.028,-1.028,-1.028,-1.028,-1.028,-1.0022,-0.9379,-0.7323,-0.6279,-0.662,-0.5095,-0.5984,-0.9289,-0.8523,-0.8649,-0.9797,-1.0052,-1.0181,-1.0181,-1.0181,-1.0181,-1.0181,-1.0181,-0.8778,-0.6493,-0.6237,-0.4715,-0.2426,-0.2172,-0.203,-0.2009,-0.2009,-0.1995,-0.1977,-0.1977,-0.1977,-0.1977,-0.1977,-0.1853,-0.1729,-0.1606,-0.0864,0.0,0.0,0.0,0.0,0.0,-0.0741,-0.1606,-0.1606,-0.1112,-0.0741,-0.0741,-0.037,0.0,0.0,0.0,0.0,0.0,-0.1006,-0.1515,-0.1151,-0.3331,-0.5153,-0.5619,-0.4973,-0.4607,-0.4674,-0.3748,-0.3352,-0.43,-0.296,-0.2155,-0.2155,-0.2155,-0.2155,-0.2155,-0.2178,-0.2193,-0.22,-0.2247,-0.2271,-0.2271,-0.2285,-0.2303,-0.2324,-0.233,-0.2478,-0.2914,-0.5812,-0.7257,-0.7693,-1.0452,-1.1619,-1.1619,-1.1619,-1.1619,-1.1763,-1.1763,-1.1763,-1.1903,-1.1672,-1.1419,-1.1292,-1.1419,-1.1479,-1.1276,-1.1148,-1.1084,-1.0876,-1.075,-1.062,-1.049,-1.049,-1.049,-1.049,-1.049,-1.049,-1.049,-1.049,-1.049,-0.9834,-0.8519,-0.708,-0.6035,-0.5253,-0.3943,-0.4177,-0.6426,-0.6937,-0.7579,-0.835,-0.9637,-1.028,-1.028,-0.9506,-0.9249,-0.9249,-0.8478,-0.7065,-0.5144,-0.5144,-0.3862,-0.2064,-0.2064,-0.2054,-0.204,-0.204,-0.2031,-0.2018,-0.2018,-0.2009,-0.1996,-0.1996,-0.1988,-0.1977,-0.1606,-0.0988,-0.037,-0.0123,-0.0494,-0.099,-0.0997,-0.1498,-0.1993,-0.1979,-0.1729,-0.1482,-0.1482,-0.1242,-0.0749,-0.0125,0.0,0.0,0.0,-0.1277,-0.2053,-0.169,-0.2735,-0.3665,-0.3983,-0.3591,-0.3201,-0.3226,-0.2692,-0.2558,-0.3228,-0.2558,-0.2155,-0.2155,-0.2155,-0.2161,-0.2176,-0.2191,-0.2214,-0.2243,-0.2275,-0.2298,-0.2311,-0.2311,-0.2318,-0.2333,-0.2333,-0.2333,-0.2478,-0.4799,-0.6393,-0.7112,-0.9579,-1.089,-1.1619,-1.1619,-1.1619,-1.1619,-1.1619,-1.1619,-1.1619,-1.1246,-1.1246,-1.1119,-1.1246,-1.1353,-1.1312,-1.1048,-1.103,-1.0986,-1.0721,-1.0721,-1.0721,-1.0721,-1.0721,-1.0721,-1.0721,-1.0721,-1.0721,-1.0721,-1.0721,-0.9513,-0.6833,-0.6566,-0.5767,-0.4301,-0.296,-0.2395,-0.2856,-0.4925,-0.5958,-0.6344,-0.8539,-0.9579,-0.9575,-0.8408,-0.7763,-0.7763,-0.6601,-0.5311,-0.4019,-0.4019,-0.3244,-0.2079,-0.2079,-0.2076,-0.2071,-0.2071,-0.2068,-0.2064,-0.2064,-0.2047,-0.2026,-0.2026,-0.201,-0.1867,-0.1369,-0.112,-0.0871,-0.0124,-0.0871,-0.1872,-0.215,-0.2155,-0.202,-0.1996,-0.1992,-0.1992,-0.1992,-0.1886,-0.1522,-0.0507,-0.0128,-0.0129,-0.0389,-0.1297,-0.2084,-0.2245,-0.2249,-0.226,-0.2151,-0.2155,-0.2155,-0.2155,-0.2155,-0.2155,-0.2155,-0.2155,-0.2155,-0.2155,-0.2159,-0.2174,-0.22,-0.221,-0.224,-0.229,-0.2296,-0.2309,-0.2333,-0.2333,-0.2333,-0.2333,-0.2333,-0.2333,-0.2333,-0.3931,-0.5381,-0.668,-0.8564,-1.0017,-1.1181,-1.1476,-1.1619,-1.1619,-1.1619,-1.1619,-1.1619,-1.1582,-1.1187,-1.0923,-1.1187,-1.0941,-1.0822,-1.069,-1.0707,-1.0721,-1.0721,-1.0721,-1.0721,-1.0721,-1.0721,-1.0721,-1.0721,-1.0721,-1.0721,-1.0721,-1.0721,-1.0047,-0.8437,-0.71,-0.5767,-0.4301,-0.296,-0.3355,-0.5865,-0.4939,-0.5205,-0.6396,-0.6794,-0.6929,-0.6929,-0.6662,-0.6662,-0.6662,-0.6396,-0.5603,-0.4275,-0.4275,-0.3477,-0.2142,-0.2142,-0.2126,-0.2103,-0.2103,-0.2086,-0.2064,-0.2064,-0.2061,-0.2058,-0.2057,-0.2055,-0.1924,-0.1926,-0.154,-0.0897,-0.0257,-0.0641,-0.1411,-0.206,-0.2188,-0.2186,-0.2053,-0.2052,-0.2052,-0.2052,-0.1541,-0.1286,-0.1674,-0.0774,-0.0389,-0.1705,-0.1577,-0.1453,-0.2144,-0.2148,-0.215,-0.2155,-0.2155,-0.2155,-0.2155,-0.2155,-0.2155,-0.2155,-0.2155,-0.2155,-0.2155,-0.2179,-0.2196,-0.22,-0.2251,-0.2282,-0.2291,-0.2315,-0.2329,-0.2333,-0.2333,-0.2333,-0.2333,-0.2333,-0.2333,-0.2333,-0.3931,-0.4802,-0.5236,-0.8131,-0.9435,-0.9726,-1.1038,-1.1619,-1.1619,-1.1619,-1.1619,-1.1619,-1.1118,-1.0986,-1.0721,-1.085,-1.0853,-1.0721,-1.0721,-1.0721,-1.0721,-1.0721,-1.0721,-1.0721,-1.0721,-1.0721,-1.0721,-1.0721,-1.0721,-1.0721,-1.0721,-0.9915,-0.8842,-0.7369,-0.6036,-0.4565,-0.3095,-0.2558,-0.2826,-0.403,-0.4166,-0.4567,-0.5235,-0.6032,-0.6433,-0.6431,-0.5635,-0.5235,-0.5233,-0.4431,-0.3629,-0.3094,-0.3094,-0.2692,-0.2155,-0.2155,-0.2146,-0.2135,-0.2135,-0.2126,-0.2114,-0.2114,-0.2104,-0.2089,-0.2089,-0.2078,-0.2064,-0.2065,-0.1677,-0.129,-0.1291,-0.142,-0.1809,-0.2086,-0.222,-0.2093,-0.211,-0.2114,-0.2105,-0.2071,-0.1558,-0.0914,-0.0914,-0.0394,-0.053,-0.1999,-0.1867,-0.1872,-0.2153,-0.2155,-0.2155,-0.2155,-0.2155,-0.2155,-0.2155,-0.2155,-0.2155,-0.2155,-0.217,-0.218,-0.218,-0.2208,-0.2233,-0.225,-0.2277,-0.2298,-0.2314,-0.2326,-0.2333,-0.2333,-0.2333,-0.2333,-0.2333,-0.2333,-0.2333,-0.2333,-0.306,-0.3931,-0.4802,-0.7117,-0.8564,-0.9435,-1.1034,-1.1619,-1.1619,-1.1619,-1.1619,-1.1619]}]]